GFSWCAN_250_spd_000.txt.gz
Wind_Speed
89 87 83 76 70 65 61 56 53 63 69 69 69 64 64 62 63 60 62 59 55 56 53 51 49 50 50 51 50 51 51 53 52 52 52 52 54 56 58 57 58 57 53 50 51 52 52 55 59 62 65 67 71 75
92 88 84 78 73 70 63 60 55 53 60 74 70 64 65 66 64 63 65 65 61 58 57 56 55 56 53 54 55 55 53 53 53 52 51 53 56 56 56 57 60 58 55 55 53 57 57 60 63 64 68 71 76 80
95 92 89 84 77 72 69 64 61 56 54 59 68 75 72 67 67 67 68 68 67 66 64 63 62 61 59 59 59 59 58 56 55 54 55 56 58 57 59 58 55 60 59 59 58 63 64 66 69 74 78 80 84 90
92 95 92 86 80 76 73 64 62 58 56 54 59 62 69 71 72 71 69 69 69 67 65 63 61 61 62 62 62 62 62 61 59 59 58 59 59 59 58 56 57 63 62 62 64 66 70 76 81 83 84 88 94 99
89 95 94 91 83 77 75 69 64 58 56 56 54 56 58 62 65 67 67 67 67 67 64 64 62 62 64 65 65 65 66 66 64 62 61 62 65 63 57 56 64 66 65 68 70 73 78 80 83 88 91 95 100 106
88 91 91 89 89 82 78 76 69 64 61 59 58 56 56 57 58 61 64 63 64 66 64 64 64 63 64 66 69 70 70 69 69 67 66 66 67 63 59 59 70 69 72 75 78 78 80 84 90 95 99 103 107 112
88 95 94 90 91 87 83 80 77 71 67 64 62 61 60 58 59 60 59 62 63 63 63 62 61 64 67 69 69 70 72 72 70 67 63 65 66 67 65 68 74 74 77 79 80 84 89 93 97 100 104 109 112 117
89 91 97 97 94 91 87 83 81 77 74 71 67 66 64 64 62 60 61 64 65 64 62 55 55 60 66 65 66 68 68 68 65 65 63 67 68 73 72 78 81 82 85 88 91 94 98 101 105 108 112 116 119 119
85 86 91 100 97 95 93 91 87 84 82 80 75 72 69 66 65 66 69 71 70 67 63 57 57 60 61 67 70 71 71 71 68 69 71 73 73 77 83 85 87 90 92 94 97 101 105 108 111 116 120 121 120 122
81 87 90 95 103 97 90 94 92 90 87 86 84 81 76 72 72 75 76 74 72 69 63 60 64 64 66 71 75 78 77 76 75 74 77 78 81 87 92 93 93 95 97 100 104 106 109 113 117 118 118 120 122 121
84 83 86 88 93 99 96 91 92 89 89 89 89 88 84 81 81 83 83 80 77 74 70 65 68 72 74 77 79 81 82 83 83 81 86 87 88 94 96 97 97 100 103 107 109 111 115 117 119 117 117 120 120 120
83 85 86 87 87 90 92 98 96 95 94 93 90 91 91 89 90 91 91 90 85 81 75 75 77 79 81 83 84 87 90 90 89 89 90 89 92 95 97 99 102 106 110 111 112 115 119 120 120 121 118 118 117 117
82 82 84 86 89 90 92 94 96 97 97 96 97 100 98 97 98 99 98 93 88 87 86 86 86 88 87 88 90 92 93 95 96 95 94 95 98 100 100 105 110 112 110 113 116 118 118 121 122 120 117 117 117 115
84 83 84 88 89 90 91 92 93 94 97 100 100 98 99 99 100 99 98 96 95 94 93 93 94 94 95 95 95 97 98 97 98 99 101 103 105 106 106 106 108 108 110 114 117 119 122 121 118 117 117 116 113 110
79 82 84 87 91 93 90 94 95 98 100 101 101 103 104 105 103 101 100 100 101 101 102 101 100 100 100 100 98 99 101 100 100 101 101 100 102 107 108 111 112 110 111 115 117 119 118 114 112 114 116 113 107 104
74 76 80 84 87 88 92 95 100 101 101 98 101 103 104 104 105 104 102 103 104 105 104 103 103 103 104 103 102 102 105 108 109 105 104 107 111 113 112 108 109 112 114 114 114 113 111 113 112 111 108 103 101 98
69 73 77 80 84 88 90 91 95 98 101 101 103 105 106 107 105 106 106 106 104 105 106 107 106 106 105 105 105 106 108 108 107 107 108 112 110 107 108 111 114 114 114 113 111 111 110 109 107 103 95 96 95 88
66 71 70 74 77 85 91 93 94 95 96 97 105 109 108 107 107 107 106 107 109 110 109 108 108 108 108 109 108 107 108 107 107 107 109 110 110 111 111 112 111 109 109 110 110 107 105 104 98 93 90 87 84 79
63 64 68 73 76 80 85 89 92 93 94 95 95 99 102 105 107 107 108 110 110 110 109 110 110 112 113 109 106 106 107 107 106 105 106 106 109 110 108 109 109 107 105 106 104 100 97 95 90 84 82 78 73 73
58 67 68 68 69 72 75 79 83 84 86 88 90 94 97 98 99 102 104 106 108 108 107 107 107 104 104 104 105 104 103 103 101 103 108 107 108 107 107 105 103 102 101 98 94 90 89 84 80 77 74 70 69 67
61 66 68 69 69 69 69 71 73 76 78 80 83 87 94 95 96 98 100 101 100 101 102 101 102 101 102 103 104 104 105 101 100 100 102 103 104 104 104 103 99 95 92 88 86 84 80 77 74 71 69 68 65 62
54 57 59 63 66 66 67 67 67 68 71 76 80 82 85 87 90 92 93 95 98 100 95 95 102 102 100 98 98 99 98 97 96 96 97 97 99 98 96 96 92 89 86 83 77 76 76 73 68 66 65 64 61 58
48 47 50 53 54 56 60 60 61 63 65 68 71 74 78 82 84 86 88 91 95 93 90 93 95 97 97 96 94 93 90 89 91 92 91 89 88 88 86 85 82 78 74 73 72 72 71 66 63 62 61 58 55 53
41 41 42 45 48 52 55 59 60 61 63 66 69 71 72 74 74 75 77 82 84 81 83 84 84 85 86 86 86 85 82 81 80 82 83 81 78 77 75 74 71 67 64 66 68 67 64 61 60 58 54 53 52 51
36 37 40 43 47 51 54 56 59 62 63 60 59 59 61 61 61 62 66 69 68 68 68 70 71 71 72 72 73 74 73 72 73 74 77 72 68 65 66 66 65 62 60 62 62 59 57 56 55 53 51 50 49 49
34 36 38 42 45 48 50 52 53 54 53 52 53 54 54 55 57 58 61 59 60 61 62 62 63 65 67 68 69 69 68 65 65 65 67 65 62 58 58 60 59 58 56 55 53 53 53 53 52 50 48 47 47 48
34 35 34 35 38 40 42 44 46 48 49 51 51 51 52 53 53 51 52 54 55 57 59 59 58 58 58 59 58 57 58 58 58 57 57 57 55 52 52 53 53 52 51 51 50 49 49 49 48 47 45 44 45 45
25 27 30 33 37 39 41 43 43 43 44 45 45 44 44 45 46 48 50 51 52 51 49 49 50 51 51 51 52 53 54 52 51 50 49 48 46 47 49 49 48 47 47 46 45 45 45 45 44 43 44 43 42 42
29 32 34 35 37 36 34 34 35 36 38 40 40 39 39 39 41 44 45 44 43 44 46 47 46 46 46 47 47 48 47 47 45 44 44 43 43 47 47 48 46 46 45 45 43 42 42 42 42 41 41 41 41 42
27 27 27 26 26 26 28 32 34 34 34 33 32 34 35 37 40 40 39 39 41 43 43 44 44 44 44 44 42 42 42 42 43 45 45 45 44 44 45 45 44 43 43 42 41 40 40 39 40 41 41 41 41 41
20 23 26 27 28 28 30 30 29 30 31 31 31 33 34 36 37 37 36 37 38 38 39 39 41 42 43 44 44 44 44 43 42 42 43 44 45 44 44 43 41 40 39 39 39 39 39 40 40 40 40 40 41 42
22 24 25 24 23 23 25 27 29 29 27 26 28 31 31 31 34 35 34 36 38 38 39 39 40 40 41 42 42 43 44 44 42 41 41 41 41 42 43 43 41 40 39 39 40 40 40 40 39 38 39 40 41 41
18 20 20 20 19 20 23 26 27 26 25 27 29 28 30 32 33 33 35 36 37 37 37 37 38 39 41 41 41 41 41 41 41 41 41 40 40 40 42 42 42 42 42 42 41 40 39 39 39 40 40 40 38 37

GFSWCAN_250_spd_003.txt.gz
Wind_Speed
88 87 82 79 74 71 65 61 61 66 69 66 66 66 65 65 62 60 57 54 52 49 49 45 43 42 41 40 42 44 45 46 49 49 51 51 53 55 55 57 56 56 56 58 58 60 56 54 54 56 59 62 65 70
90 91 84 82 78 73 68 64 60 63 67 71 65 65 65 70 68 66 60 60 60 55 54 53 52 48 49 50 50 51 51 53 52 54 56 57 57 57 57 57 58 62 60 61 61 65 61 59 57 60 64 67 71 75
96 92 87 86 82 75 71 68 62 58 60 66 68 70 66 69 70 71 69 67 65 64 60 57 56 58 58 57 59 59 60 61 60 62 62 62 62 62 61 59 61 68 64 61 62 66 63 65 65 67 71 76 79 84
95 94 90 88 87 81 76 71 65 60 57 58 66 69 70 69 66 67 65 66 66 65 65 64 63 63 65 65 67 66 66 67 68 67 65 65 65 63 62 63 65 73 68 65 64 66 66 71 71 76 78 84 88 92
87 95 95 90 89 83 78 75 69 64 61 59 58 62 71 71 69 70 68 67 67 68 65 66 65 65 67 70 71 70 70 69 67 65 64 64 65 67 59 59 70 75 68 65 64 68 70 73 78 81 85 89 93 96
80 85 96 95 90 86 81 79 74 69 64 61 57 55 55 61 72 74 71 70 67 68 68 69 69 69 70 70 72 73 71 69 68 65 63 63 67 69 57 59 67 70 69 68 71 72 75 79 83 89 92 94 98 102
73 75 89 96 90 89 83 82 77 74 70 66 64 62 58 57 56 56 65 75 77 77 78 76 75 73 73 73 71 70 69 66 66 63 61 64 67 64 58 59 69 69 71 75 78 80 83 87 90 92 95 98 103 107
76 79 80 85 92 92 86 85 81 76 75 72 68 65 63 59 57 54 55 59 61 61 64 63 59 64 70 68 67 66 66 66 64 63 61 64 63 64 61 71 71 74 75 78 82 86 89 90 92 96 98 104 106 109
72 79 83 82 82 85 96 90 86 83 80 75 74 71 68 63 59 60 63 64 64 61 58 51 52 59 63 64 67 68 68 68 67 66 67 66 63 66 73 77 78 81 83 85 87 89 91 94 97 101 104 106 109 113
70 72 81 80 80 81 90 95 93 88 83 80 81 79 73 69 69 72 70 69 67 65 61 59 61 63 65 68 72 75 77 77 73 70 71 69 67 75 83 84 86 88 90 91 93 94 96 100 102 105 106 110 113 118
72 75 75 78 81 84 86 89 92 93 93 88 87 83 80 80 80 80 78 76 73 71 68 65 67 69 72 73 76 79 80 81 78 73 77 75 75 82 87 90 92 92 93 97 98 98 99 100 105 105 110 114 116 116
80 78 79 82 83 86 87 88 90 91 93 93 92 89 88 89 90 90 87 84 79 76 72 70 72 76 76 79 82 82 85 86 86 82 84 83 85 90 92 94 96 98 102 102 102 101 104 107 109 111 113 115 115 118
79 79 79 82 85 89 92 90 91 93 92 91 93 94 94 96 96 97 93 89 85 82 81 83 84 84 84 85 86 87 90 92 93 93 91 93 95 97 98 101 103 105 105 105 104 107 110 113 114 113 114 116 116 118
75 77 81 83 87 92 89 92 93 93 96 96 97 97 100 104 102 101 97 97 97 94 91 88 89 90 90 92 94 96 97 99 101 100 100 102 102 102 103 106 107 107 108 110 114 115 116 114 114 114 116 117 117 114
76 76 77 80 83 86 89 87 93 96 96 98 100 102 103 105 105 101 98 97 96 98 94 93 93 94 96 98 99 101 103 103 102 104 104 105 106 107 110 112 112 113 114 114 112 112 114 113 112 113 117 117 113 111
75 76 77 79 80 83 86 89 93 97 97 97 98 102 105 106 109 109 108 106 106 103 104 103 101 101 102 103 104 104 104 105 104 107 109 109 111 112 113 112 114 114 113 112 114 113 112 114 115 116 113 110 110 108
73 75 75 77 79 82 85 88 91 98 99 97 99 100 101 102 104 106 107 108 109 110 111 112 109 108 106 107 109 108 107 108 109 109 110 111 111 111 111 111 111 110 110 110 112 115 117 117 111 108 105 106 101 99
71 69 69 70 73 77 82 86 88 94 97 97 99 101 102 105 108 108 109 108 109 109 109 108 106 107 109 108 104 103 104 104 106 106 105 106 106 105 107 107 107 108 112 114 114 113 110 108 107 104 99 96 94 92
65 66 65 66 68 71 75 80 85 89 93 97 98 100 102 106 108 110 109 108 108 109 109 109 109 110 110 107 107 109 110 111 111 111 110 110 110 107 109 110 111 111 109 109 107 106 105 103 98 94 90 88 86 84
61 64 65 67 70 71 72 73 78 82 86 92 96 98 102 106 109 108 107 108 110 110 111 112 113 112 112 112 113 115 114 112 114 114 113 113 112 113 113 111 107 106 105 104 103 100 97 94 90 85 83 80 77 76
60 62 65 66 66 69 71 74 76 76 80 85 89 93 98 100 102 103 105 106 106 107 109 108 107 106 108 110 111 111 112 112 112 112 112 112 111 109 108 107 104 102 100 99 96 92 89 85 80 79 77 75 72 69
54 60 65 66 66 68 71 73 74 76 79 81 82 85 88 92 96 99 101 101 103 104 102 101 102 105 106 106 106 106 106 105 104 102 101 100 100 102 102 100 97 95 91 87 86 83 80 78 76 73 71 69 67 64
52 54 59 64 64 63 64 66 70 73 75 77 79 80 83 85 87 90 91 95 100 101 101 103 105 106 105 102 100 98 97 96 96 96 96 95 95 95 94 91 86 83 82 81 78 75 73 72 70 67 65 63 62 61
46 49 52 54 56 57 58 60 61 62 65 69 71 73 76 79 82 82 85 90 90 90 91 92 93 94 93 93 93 91 89 88 88 87 89 88 84 82 82 81 79 77 74 71 70 70 69 67 66 62 61 61 59 56
41 43 40 39 43 48 52 55 57 58 60 62 64 65 67 69 72 75 77 79 78 79 79 80 80 81 81 81 80 79 78 78 79 79 80 79 76 75 73 71 70 69 68 67 66 66 65 62 61 60 60 58 58 55
37 36 36 38 41 45 49 52 54 57 59 59 61 63 65 66 65 65 68 68 67 69 69 69 69 69 70 70 70 72 73 71 70 70 72 71 70 68 65 64 65 66 64 62 62 61 60 59 59 59 58 56 54 52
33 35 38 42 45 47 49 52 53 55 56 57 58 57 56 56 58 58 59 58 59 59 60 62 64 65 65 64 64 63 64 64 64 63 64 65 64 62 60 58 59 60 60 60 59 57 56 56 56 56 55 53 51 51
33 35 38 40 43 45 46 47 47 48 49 51 52 52 51 50 50 51 54 56 57 57 56 55 55 56 57 57 57 58 59 59 59 59 60 60 58 58 56 55 55 55 56 58 57 54 52 51 51 52 51 51 50 50
32 34 36 37 38 39 40 42 44 45 43 43 42 42 43 46 48 50 51 52 51 51 50 51 53 55 55 54 55 56 56 57 57 57 56 56 53 51 51 52 52 52 53 54 52 52 51 50 50 50 49 48 47 47
30 32 33 33 33 32 32 35 37 39 40 41 41 41 41 44 45 47 49 49 48 48 49 51 51 52 52 51 51 51 52 51 52 53 53 53 52 51 50 50 51 52 52 52 52 50 48 48 48 49 48 48 48 48
26 26 26 27 28 31 33 35 35 36 36 35 34 35 37 40 43 45 44 43 42 44 47 48 48 48 47 47 47 46 46 47 47 48 49 50 51 51 51 51 51 51 51 51 51 50 49 49 49 49 49 49 47 46
25 27 28 29 30 30 29 29 29 30 31 31 34 34 36 38 40 42 39 39 41 42 43 43 43 44 44 44 43 42 43 43 44 45 46 47 49 52 52 52 51 50 50 49 49 49 49 49 47 46 44 43 43 43
24 25 25 25 26 26 27 30 32 32 30 30 30 31 32 35 37 38 38 38 38 38 39 39 39 40 40 41 42 43 43 44 45 45 46 46 46 47 47 48 49 48 47 46 45 45 44 43 42 42 41 42 41 40

GFSWCAN_250_spd_006.txt.gz
Wind_Speed
87 81 79 77 72 66 60 59 56 57 56 57 61 62 67 64 60 57 53 52 51 49 47 39 36 33 34 34 35 36 38 37 38 40 42 45 47 50 53 55 58 60 64 62 61 62 60 60 60 62 65 63 61 62
88 84 81 81 76 70 63 62 59 59 59 59 60 62 62 67 66 62 59 58 57 55 55 52 48 42 43 41 42 44 42 47 47 50 52 54 56 59 61 62 65 70 69 64 62 64 66 63 63 63 64 63 63 66
90 88 83 81 80 75 68 65 62 57 60 63 62 62 64 64 66 66 65 62 59 57 57 50 52 53 51 47 48 47 51 52 55 57 59 61 64 64 66 68 73 67 68 63 59 63 64 66 66 61 64 66 68 71
92 89 87 84 84 80 74 69 65 62 58 59 64 64 65 62 62 63 64 62 60 62 59 56 57 54 56 55 55 53 54 57 60 64 65 68 70 69 69 71 70 70 69 68 63 62 64 64 65 67 69 71 75 80
83 93 88 86 85 83 77 73 70 65 63 60 58 64 66 64 64 65 67 67 65 66 65 66 65 65 65 65 65 64 63 64 66 68 70 72 71 74 71 69 68 73 70 68 63 61 66 66 67 70 76 79 84 87
80 86 93 89 88 84 83 78 75 68 67 65 61 57 59 65 67 67 62 60 63 65 68 70 69 70 70 70 68 69 69 69 67 70 73 73 75 78 71 62 66 71 70 69 68 66 66 70 74 78 82 87 90 92
77 81 93 92 91 88 86 82 77 73 70 66 64 62 58 59 63 67 66 69 69 69 66 66 66 66 66 66 67 71 71 71 74 74 73 76 80 75 64 60 72 70 71 70 73 72 74 77 81 83 88 93 95 98
71 77 81 92 92 88 88 85 83 78 74 69 65 64 61 58 57 56 60 67 71 71 73 69 66 69 72 71 72 73 74 78 79 80 78 76 71 68 59 69 71 76 76 73 74 78 81 84 88 91 95 97 102 105
62 69 74 81 92 92 87 90 86 84 79 76 73 69 64 61 59 62 63 63 62 61 62 61 65 72 76 76 78 78 78 78 74 69 69 68 63 62 72 75 80 79 81 79 80 84 87 92 97 100 103 105 105 107
61 61 69 73 80 89 94 90 88 87 86 83 79 76 72 69 71 70 68 67 66 63 57 54 57 58 62 65 69 71 70 70 65 65 70 69 65 72 81 84 86 84 84 87 88 91 95 99 102 106 108 108 109 111
64 61 62 66 74 78 88 95 92 90 87 87 86 81 78 80 79 77 77 75 70 65 63 60 62 64 64 68 73 76 76 77 74 71 76 73 71 78 86 89 90 89 91 92 96 99 102 105 107 110 111 112 116 119
70 67 62 63 70 75 85 85 89 91 95 93 88 90 87 86 87 86 83 79 73 72 69 68 69 72 74 76 79 79 79 80 77 78 81 78 80 82 86 89 92 94 97 101 103 106 108 109 111 113 116 119 121 122
76 71 69 65 70 77 81 83 83 83 84 90 95 92 96 94 95 96 93 86 83 78 76 80 80 82 81 81 83 85 87 85 85 86 85 88 90 92 94 97 99 100 104 105 106 109 111 115 115 119 119 120 120 120
80 77 74 73 72 75 82 84 88 89 89 91 95 95 96 101 103 101 98 93 89 88 86 85 88 90 89 91 92 94 95 95 95 94 93 96 98 100 100 101 101 105 107 109 113 115 116 117 120 118 117 117 114 112
80 80 80 79 77 76 75 84 82 92 93 93 97 97 96 98 101 103 103 102 101 99 96 97 97 97 96 98 98 99 101 101 101 102 103 104 105 105 106 107 110 110 113 118 119 120 121 120 119 117 115 111 110 111
75 78 80 80 81 80 81 82 85 86 95 98 95 95 97 97 96 100 105 104 105 106 104 102 103 104 103 103 105 105 107 108 109 110 110 109 110 110 112 114 115 119 120 120 117 114 113 114 112 110 110 111 111 108
71 71 73 75 78 81 83 85 86 86 91 94 95 97 98 99 98 98 99 103 103 103 105 107 107 106 106 109 109 110 113 114 115 113 111 111 112 113 117 119 120 116 111 110 111 108 105 107 110 112 110 107 105 101
69 71 73 74 76 78 80 82 85 87 86 90 96 96 97 97 98 99 100 103 103 103 104 107 107 109 110 110 112 112 114 116 116 115 115 113 111 109 108 107 107 108 105 105 106 109 111 113 110 107 105 103 99 97
67 68 69 71 75 76 78 78 79 80 84 91 93 95 99 101 102 102 102 103 104 106 107 108 109 109 106 105 107 109 109 109 108 106 106 105 105 106 105 106 106 108 111 112 111 110 108 107 106 105 99 94 88 85
65 66 67 67 69 71 72 72 75 78 80 82 85 90 94 97 98 104 104 104 105 105 105 107 111 112 112 112 112 113 111 110 109 108 108 107 107 109 111 109 107 107 108 108 107 107 105 104 101 97 91 86 83 81
61 63 65 66 67 68 69 70 72 73 75 78 81 84 87 89 90 94 101 105 105 106 106 108 110 112 114 115 115 115 114 114 114 113 113 111 110 109 109 109 108 108 106 106 106 103 101 95 89 87 83 80 78 76
58 61 62 62 63 65 67 70 71 72 74 76 77 79 82 86 89 92 95 97 100 103 103 105 109 112 113 113 113 113 113 113 113 112 111 109 108 106 105 105 103 102 101 101 99 92 87 84 82 82 78 75 74 72
55 57 58 58 60 61 64 65 68 71 73 75 76 78 81 83 85 87 89 93 97 99 101 103 105 107 108 109 109 108 106 107 105 103 102 100 99 98 98 99 97 95 93 91 87 82 79 76 75 76 73 70 67 65
52 53 54 54 55 57 60 62 65 67 70 72 73 74 77 80 82 83 85 88 89 90 93 96 98 100 100 100 99 97 96 96 96 95 95 95 93 92 90 88 87 86 83 81 80 77 74 73 72 72 69 65 63 62
45 44 44 43 46 51 53 56 57 58 60 62 64 67 72 75 76 78 80 81 83 84 87 87 88 88 87 87 87 87 85 86 85 86 87 84 81 80 80 81 80 80 78 75 73 71 70 68 68 67 65 63 62 63
38 37 38 39 42 45 46 47 48 51 54 55 56 59 61 62 64 67 70 74 74 75 74 74 74 75 75 74 75 76 77 78 78 76 77 77 75 73 74 74 74 75 74 70 68 66 64 62 62 63 63 62 62 61
34 34 36 38 37 37 39 42 47 49 50 50 52 52 53 54 55 58 59 59 61 60 61 63 65 66 66 66 66 66 69 70 69 68 69 69 68 68 68 67 67 68 67 65 64 62 62 63 63 62 61 59 56 56
33 35 36 37 39 41 42 45 47 48 48 49 49 48 48 49 49 50 52 51 53 54 55 56 58 56 56 58 59 61 61 61 61 61 61 61 62 64 63 63 63 63 62 61 61 60 61 61 59 57 56 55 53 53
32 34 34 35 37 38 39 41 43 44 45 46 46 45 46 46 47 49 50 51 51 50 50 50 52 53 55 55 54 56 58 57 57 58 58 59 59 58 59 60 60 60 60 59 56 54 53 54 55 55 55 54 53 53
28 29 31 32 33 35 37 39 40 40 40 41 41 41 43 46 45 46 47 47 47 47 48 49 51 51 52 52 52 53 56 56 56 57 57 56 56 56 56 56 56 56 56 56 55 53 51 52 53 55 56 55 53 52
29 30 30 30 31 31 32 33 35 36 37 38 37 37 38 40 42 44 44 45 45 46 46 47 48 50 51 52 52 53 52 52 53 53 54 55 55 55 54 54 54 53 53 53 54 54 54 53 52 52 53 52 51 50
24 25 27 28 29 30 32 33 33 33 33 32 33 35 36 38 41 43 42 42 44 44 44 44 45 46 48 48 49 49 50 50 50 50 50 51 52 52 52 52 51 51 51 50 50 52 51 49 48 48 47 47 46 46
25 25 26 26 27 27 28 28 30 31 32 33 34 33 33 35 38 39 41 42 42 43 43 43 43 44 44 45 45 46 47 47 48 48 48 48 48 47 47 47 47 46 45 44 44 45 45 44 44 44 44 44 43 43

GFSWCAN_250_spd_009.txt.gz
Wind_Speed
80 77 74 70 68 63 59 58 54 53 53 55 58 59 57 58 55 52 50 48 44 44 38 30 27 30 34 35 34 31 31 30 31 31 35 38 40 42 43 45 50 52 56 60 61 63 63 61 59 60 61 59 58 59
79 78 74 72 69 64 60 58 58 55 53 53 56 57 59 58 59 57 54 52 53 52 47 43 38 34 33 32 37 37 33 37 35 37 41 43 44 46 50 52 57 58 62 66 68 68 68 62 62 60 59 62 61 60
81 81 77 75 71 69 63 61 59 59 58 55 53 54 58 60 61 61 60 57 55 53 52 51 48 48 45 42 42 43 43 43 44 47 47 48 51 53 55 58 63 64 68 71 71 71 74 68 61 59 61 61 61 63
83 82 81 78 76 73 69 66 62 59 57 57 54 54 52 57 60 63 63 63 59 57 55 52 52 52 50 50 51 53 53 54 51 54 52 52 53 55 56 60 65 71 75 76 73 76 74 69 65 64 65 65 67 71
88 86 83 80 78 74 72 68 64 60 58 56 56 55 55 53 55 60 62 62 63 62 60 60 59 58 58 55 55 55 55 55 57 58 60 62 65 67 65 66 67 73 77 79 77 80 78 71 70 72 73 73 76 79
89 90 87 83 81 79 76 74 69 65 60 57 54 54 57 57 56 54 56 59 62 64 64 65 64 64 61 61 61 61 63 64 65 68 68 69 72 72 64 64 69 75 81 84 80 79 75 71 74 76 79 81 84 87
88 92 92 85 81 80 79 75 72 69 65 59 58 56 53 57 58 59 58 59 60 61 62 62 61 61 62 63 63 66 68 70 73 72 70 70 70 69 68 66 74 80 84 84 81 77 74 76 80 82 85 88 91 93
78 79 86 86 78 78 78 78 78 73 69 66 61 59 57 55 53 55 59 63 65 64 60 55 56 61 63 62 63 67 69 71 69 67 67 73 75 74 68 75 79 83 85 79 73 77 78 80 84 86 89 91 95 98
76 74 72 79 88 78 80 81 81 78 75 73 71 66 63 59 60 61 59 58 59 60 60 60 65 68 69 69 70 72 74 76 74 75 78 77 73 73 77 77 74 71 74 77 81 83 84 86 89 90 93 98 102 104
69 66 69 73 80 88 80 84 84 82 82 80 77 73 69 69 67 64 65 64 61 58 53 53 60 63 67 71 74 76 78 78 75 74 77 73 67 70 74 75 75 78 80 81 83 86 88 89 93 96 100 103 106 108
60 63 69 69 71 78 82 90 80 87 84 84 84 80 78 79 76 73 70 67 65 62 60 58 60 61 64 69 73 75 74 73 72 71 73 70 67 73 76 81 82 83 84 86 88 91 94 96 98 103 106 108 111 114
63 60 59 63 67 67 73 82 89 88 84 86 88 88 86 86 86 83 77 75 72 70 66 66 69 71 71 74 77 77 78 78 77 76 77 76 75 77 80 83 84 87 89 93 96 98 101 103 107 109 113 115 117 119
67 65 61 58 58 60 66 71 79 86 92 92 88 90 93 93 94 92 87 83 79 78 77 78 79 80 80 82 84 85 85 85 83 82 82 84 86 86 87 88 89 93 97 99 101 105 109 112 113 115 120 121 120 123
73 69 65 63 60 59 58 64 75 75 82 90 95 100 98 95 96 98 94 91 89 89 88 86 86 86 87 89 91 92 94 93 94 92 90 92 94 96 96 96 99 102 105 108 109 112 114 117 120 123 124 123 120 112
74 71 70 70 69 66 63 63 63 73 72 83 86 91 94 101 103 101 101 100 99 98 96 96 96 97 96 99 99 100 102 104 103 104 103 101 101 104 105 107 109 111 112 115 118 119 121 121 121 121 118 111 109 106
77 77 76 75 73 72 74 71 67 66 66 77 87 87 91 95 98 101 104 104 104 103 103 105 104 104 105 105 106 107 109 111 114 114 113 113 114 114 117 119 120 120 122 122 121 120 120 116 110 108 107 105 104 103
76 78 80 81 81 80 80 78 76 77 76 74 79 85 88 90 96 96 96 97 99 102 104 104 105 107 109 111 111 112 116 116 117 118 120 122 123 124 124 124 123 122 121 118 113 108 105 104 102 102 101 102 102 102
71 73 75 77 81 82 82 81 82 84 86 84 82 83 85 91 91 92 95 97 98 100 101 102 104 105 106 108 110 111 112 113 114 117 120 120 120 118 115 113 110 108 105 105 104 103 103 103 102 102 101 100 99 98
68 71 73 75 76 76 76 77 79 82 85 87 89 87 88 91 93 94 98 101 97 97 98 101 103 102 104 106 106 106 106 106 107 109 109 108 108 108 107 105 105 106 107 107 106 103 103 104 102 100 97 96 95 91
67 69 70 72 74 75 75 75 75 76 79 81 84 87 89 91 93 95 93 92 94 97 98 99 102 103 106 108 107 105 105 105 106 108 109 108 108 107 108 110 109 108 107 105 105 103 101 99 97 95 92 90 89 83
62 63 65 68 70 72 73 75 76 76 77 78 77 78 81 83 85 87 89 90 91 95 98 97 98 100 101 104 107 109 110 109 109 109 110 111 111 112 110 109 109 107 106 106 103 99 96 94 91 91 88 87 82 80
58 58 60 62 64 64 65 67 70 71 73 74 75 76 78 80 83 84 86 87 89 91 91 94 96 99 100 102 104 104 104 105 107 107 106 106 108 109 109 107 104 104 102 99 95 92 90 89 88 85 84 82 78 74
50 50 52 55 57 56 56 61 63 65 67 68 70 72 74 76 78 80 81 84 85 86 88 90 91 92 94 95 95 96 98 99 99 99 99 99 100 100 99 98 96 93 89 89 86 85 85 83 81 80 76 73 71 68
47 48 52 54 53 53 53 55 58 61 64 66 67 68 70 71 73 74 76 78 79 82 84 85 86 87 88 88 89 90 91 91 91 91 90 90 90 89 88 87 85 83 82 80 81 80 78 76 73 71 69 68 67 65
44 46 47 47 46 47 49 53 54 56 58 60 61 64 67 68 68 69 71 73 75 76 77 78 78 79 81 80 81 81 81 83 84 84 83 80 79 80 81 80 79 78 77 75 74 72 71 68 67 66 65 65 63 61
40 40 40 39 39 41 43 45 47 49 51 52 55 57 58 59 60 60 63 64 66 67 68 69 70 71 71 71 71 71 74 75 75 76 75 73 72 73 71 69 70 72 71 68 66 66 65 65 64 63 62 61 59 59
35 34 36 36 36 37 38 40 42 43 45 47 50 51 52 53 54 54 54 56 56 56 58 57 57 58 60 62 62 63 65 65 65 66 65 63 63 63 62 61 62 63 66 66 65 62 61 61 61 60 59 58 56 57
32 33 33 33 34 35 37 38 39 41 43 44 45 47 47 48 47 47 46 46 47 47 50 52 52 51 52 52 53 56 58 58 57 58 56 55 58 59 58 57 57 58 59 60 60 59 58 59 58 56 55 55 54 54
30 30 31 31 33 34 35 37 38 40 42 43 44 44 44 43 43 43 43 43 44 44 44 45 47 48 48 47 48 50 52 52 53 54 54 53 53 52 52 54 54 55 56 57 57 56 56 56 55 56 56 53 51 51
26 26 28 28 29 31 32 34 35 35 36 37 38 40 41 41 41 43 43 42 42 42 43 44 46 46 46 47 46 46 50 50 51 51 52 52 52 52 53 52 52 52 52 52 53 52 51 51 50 52 54 53 50 50
25 26 27 27 28 29 30 31 32 32 33 33 34 37 38 38 38 38 38 40 41 41 42 42 43 44 45 46 47 48 47 48 49 51 51 51 51 51 51 51 51 50 50 49 48 49 49 49 48 47 47 47 47 46
23 24 25 26 26 27 28 29 30 31 31 31 34 35 34 35 37 37 37 38 40 41 41 42 42 43 44 44 45 45 45 45 45 46 47 47 48 48 49 49 49 49 49 49 49 48 47 44 43 41 41 42 43 41
23 23 24 25 26 26 26 27 27 28 30 31 33 32 32 33 35 35 37 38 38 39 39 40 40 41 41 41 42 43 43 44 44 45 46 47 48 48 48 47 47 47 46 45 43 42 41 39 38 37 38 39 40 39

GFSWCAN_250_spd_012.txt.gz
Wind_Speed
66 73 75 73 72 67 60 56 53 51 48 56 59 59 56 49 45 44 46 44 42 41 37 30 24 25 29 34 36 36 36 36 35 33 32 30 28 30 34 35 39 40 44 50 53 57 57 61 64 66 67 68 69 71
73 77 75 72 72 66 59 56 53 52 50 48 55 63 59 52 48 46 45 46 44 38 37 36 38 32 27 28 30 34 38 39 36 36 35 35 35 36 38 39 45 48 52 54 55 58 63 68 70 71 71 72 73 74
78 78 74 71 69 65 59 57 55 54 52 48 49 58 65 58 52 49 48 46 47 47 42 40 39 40 38 36 34 32 32 37 40 39 40 40 40 43 45 47 50 52 55 58 63 67 71 71 72 73 73 75 77 76
78 78 73 70 68 65 62 57 54 53 52 49 46 52 63 64 59 54 51 52 50 50 50 49 49 47 47 47 48 46 47 47 47 47 47 50 53 53 54 54 56 60 63 68 68 72 70 71 75 74 77 79 80 76
78 76 73 72 69 67 62 60 55 55 54 49 48 47 51 60 60 57 55 55 55 54 53 54 52 51 51 51 52 53 54 55 54 54 55 57 58 57 55 57 59 67 72 75 73 74 73 76 77 77 80 83 79 77
79 78 76 74 71 70 65 62 59 57 57 58 55 52 50 50 52 56 56 55 56 59 58 60 59 58 57 56 56 57 58 59 60 63 63 63 66 65 61 61 67 76 78 76 73 76 81 82 81 81 84 81 79 81
82 81 79 78 75 72 70 67 63 60 58 57 56 56 56 56 57 55 53 52 52 55 55 58 60 62 64 63 64 65 66 68 70 68 67 67 69 67 64 62 74 74 75 77 80 84 83 83 84 86 84 83 86 88
86 85 84 80 78 75 71 69 66 64 62 60 59 57 56 56 55 54 55 56 56 55 53 49 50 57 61 63 66 68 70 73 71 69 67 69 68 68 62 74 75 77 79 82 84 83 83 83 83 83 85 87 90 91
85 86 84 81 77 75 74 71 68 68 67 64 62 60 57 56 55 55 55 56 56 54 52 51 54 57 61 64 66 67 68 69 67 66 69 69 66 68 73 76 77 80 81 81 80 80 81 84 85 87 89 91 93 96
82 82 82 79 80 76 76 74 70 70 69 67 65 63 63 62 61 60 57 55 52 50 49 55 60 62 67 71 73 73 73 71 68 68 72 69 66 72 77 76 76 78 79 80 82 83 85 88 91 92 94 98 101 103
77 80 82 81 81 79 77 75 74 72 71 71 69 69 69 68 67 67 65 62 60 57 57 58 61 62 63 66 70 71 70 70 68 68 71 66 64 72 74 76 78 79 82 85 87 90 91 94 97 100 102 105 108 110
67 69 73 80 83 81 81 76 74 74 74 73 74 77 77 76 75 74 70 69 68 67 64 65 68 71 72 74 75 75 76 77 74 73 74 71 72 76 79 81 83 86 88 91 93 96 99 102 105 107 110 113 115 119
58 62 64 68 71 76 84 81 78 79 77 75 76 77 79 83 84 80 79 77 78 78 77 77 77 78 78 80 82 82 83 82 84 83 82 83 85 86 89 89 91 94 95 98 101 103 106 110 113 116 119 121 124 127
59 53 54 56 58 60 64 68 72 81 87 85 81 81 82 84 86 84 87 87 87 87 88 86 87 88 88 90 92 93 94 94 94 92 93 94 97 98 98 99 102 103 104 106 109 113 115 119 122 124 126 125 124 122
60 56 54 54 56 57 57 59 62 66 71 77 81 86 90 92 92 93 95 94 92 94 97 96 95 96 96 96 97 101 103 104 105 105 104 106 108 110 110 110 112 113 116 118 119 120 122 123 121 117 114 112 108 105
69 65 62 59 56 57 57 60 60 63 65 70 77 80 81 83 86 90 94 97 101 100 98 98 99 102 103 105 106 108 111 111 112 112 114 115 116 117 119 119 119 120 120 118 115 117 114 112 111 108 107 104 103 104
68 67 65 64 63 63 62 61 61 64 65 67 72 76 75 78 81 86 89 92 96 97 98 101 103 107 110 113 115 114 116 117 117 116 116 117 118 118 119 118 116 116 115 109 106 102 101 101 102 102 103 104 99 98
78 76 75 73 70 70 70 69 68 70 71 70 69 71 73 74 79 77 80 85 91 92 92 92 94 96 99 102 102 104 105 107 108 109 110 110 109 109 108 106 103 101 102 101 100 100 101 102 101 100 96 93 93 93
77 78 78 76 75 74 72 73 73 75 77 77 78 78 80 80 80 81 83 83 84 85 85 88 91 93 96 96 98 99 99 101 103 105 107 108 108 108 109 107 105 104 104 102 102 102 101 99 98 95 92 90 87 85
74 72 72 74 74 74 75 76 77 76 79 80 80 83 83 84 84 85 87 88 89 91 93 95 93 91 92 96 98 99 99 101 104 105 105 106 108 108 109 109 108 104 102 101 100 100 98 95 93 89 86 83 81 80
71 71 72 75 76 74 73 74 74 75 77 77 77 78 78 79 80 81 81 82 83 86 87 87 88 91 94 96 97 96 99 103 106 104 104 103 102 102 102 100 100 99 98 97 95 94 91 88 86 85 83 80 77 78
67 68 70 71 73 73 74 74 77 77 79 80 80 81 81 81 82 81 81 81 82 82 82 83 83 83 84 86 88 91 92 93 94 95 96 96 98 98 95 93 91 91 91 89 87 86 86 85 82 79 77 76 74 72
61 64 66 68 70 69 71 74 73 75 75 75 76 77 78 79 79 79 80 81 81 82 82 82 82 82 82 85 86 86 87 88 88 88 88 87 87 87 87 85 83 82 81 81 79 78 77 75 74 72 71 69 67 68
48 50 51 51 53 55 59 61 64 66 66 67 68 68 70 72 73 72 73 74 76 76 77 78 78 79 80 80 80 80 81 82 81 81 79 79 80 80 78 77 75 74 72 71 72 72 71 70 69 68 68 66 65 64
49 50 50 52 55 58 58 58 59 58 60 62 62 62 64 63 63 64 65 67 66 67 67 68 69 69 70 71 71 72 72 72 72 70 69 71 72 72 71 70 69 69 67 67 66 66 66 65 64 63 64 62 61 61
44 45 48 51 51 50 49 49 50 51 52 53 54 58 59 57 57 58 61 60 60 60 61 62 63 63 63 63 63 63 64 65 65 64 62 64 64 64 65 65 66 66 63 61 61 63 64 64 63 62 61 59 57 56
41 42 44 45 44 43 44 44 45 46 47 48 49 50 50 51 53 54 55 55 55 54 54 53 52 51 52 53 56 58 59 60 60 60 60 60 60 60 60 60 60 61 62 61 60 59 59 60 59 57 56 55 54 53
36 36 38 37 38 37 38 39 40 41 42 42 44 45 46 47 48 48 48 48 47 47 46 46 47 49 51 53 54 56 56 57 55 54 56 56 55 56 55 55 54 55 56 56 56 55 54 54 53 53 53 52 52 52
32 32 32 33 33 34 36 37 38 39 40 41 42 42 43 43 43 43 42 42 43 44 45 46 46 46 47 49 49 50 50 50 51 49 48 48 49 49 50 50 50 50 50 51 49 49 51 51 51 52 53 53 52 51
27 27 27 28 29 30 31 32 32 33 35 36 36 37 37 37 38 39 39 39 40 40 43 44 44 45 44 43 44 46 46 46 46 47 46 45 45 46 46 46 46 46 46 46 47 48 46 46 45 45 45 47 48 48
26 27 27 28 28 30 30 30 31 31 32 33 34 35 36 36 37 37 37 36 37 39 41 41 41 41 42 42 42 42 44 44 45 45 45 45 45 45 45 45 46 47 47 47 47 48 47 46 45 44 42 41 42 42
23 24 24 25 25 26 27 28 29 30 32 33 34 34 33 32 32 33 34 35 37 37 38 38 39 38 40 40 40 40 39 40 40 41 42 43 44 45 46 46 47 47 47 47 46 46 44 44 43 43 42 41 39 38
23 23 24 24 24 24 25 25 26 28 29 31 31 31 30 30 31 32 34 34 34 35 35 36 37 37 37 37 37 38 39 40 41 42 42 43 43 43 42 42 43 43 42 41 42 42 43 42 41 40 38 38 38 38

GFSWCAN_250_spd_015.txt.gz
Wind_Speed
64 59 57 62 71 76 71 65 61 54 60 60 60 57 53 48 48 46 50 48 47 43 40 37 34 33 36 34 32 32 33 35 34 35 35 36 34 34 35 35 37 39 39 40 41 45 46 54 57 58 62 66 69 69
57 57 61 68 74 71 66 64 58 53 59 60 59 59 53 49 45 44 48 48 47 45 41 39 36 32 34 34 32 32 36 38 38 39 39 39 40 40 41 40 42 41 44 45 52 57 58 60 61 63 65 69 71 72
59 59 64 72 73 68 66 62 56 52 56 58 61 58 57 53 47 43 42 49 46 45 42 39 40 40 39 36 33 31 34 38 37 39 41 43 44 44 43 42 43 46 52 57 60 63 66 65 65 68 71 74 74 75
55 58 65 73 72 69 63 61 55 52 55 53 56 59 58 57 52 47 44 42 45 46 45 42 42 44 44 44 44 43 42 41 39 38 39 41 42 42 44 46 49 55 62 65 62 65 66 69 72 74 76 76 76 78
57 59 68 74 72 64 60 59 56 54 54 54 50 56 54 56 58 53 49 46 44 43 45 47 49 49 48 47 47 48 49 50 51 52 52 53 52 52 50 50 55 63 70 70 67 71 72 73 75 77 77 78 80 83
58 64 73 73 69 62 58 55 56 55 52 53 53 50 51 55 60 57 55 50 49 47 47 48 49 50 52 54 56 56 57 57 57 56 55 55 58 58 54 55 64 75 75 76 74 75 75 76 77 78 79 82 84 82
61 67 71 68 67 64 59 57 55 54 54 51 52 50 47 45 48 59 60 59 55 52 51 51 52 52 55 57 59 61 62 63 62 61 61 63 65 64 61 61 77 77 79 80 79 78 75 79 80 82 83 82 82 83
68 71 70 67 66 67 64 58 57 53 52 53 53 52 51 48 45 47 55 64 63 59 56 55 55 58 60 63 65 67 69 70 68 68 70 71 69 70 64 74 74 75 75 77 79 80 81 82 81 81 82 84 87 89
70 71 72 70 70 66 65 62 60 57 53 53 54 55 57 58 57 56 56 57 59 61 61 59 59 61 62 66 68 69 70 70 68 67 70 70 64 63 71 73 74 78 78 79 78 78 80 82 83 85 87 90 94 95
70 73 74 71 69 65 62 62 60 58 56 53 51 51 51 54 55 54 53 54 55 55 54 57 62 64 68 70 71 71 71 68 63 63 67 65 63 69 74 75 76 77 77 77 78 80 82 85 88 91 94 97 102 104
70 73 73 72 70 68 64 61 60 60 58 58 56 56 56 55 56 56 55 54 54 54 56 57 62 64 67 68 70 70 68 69 66 67 69 66 65 70 73 77 78 80 82 82 84 87 90 93 96 99 103 106 109 112
65 71 72 73 70 67 66 63 64 64 64 64 61 61 61 61 61 58 56 56 56 57 59 64 68 70 70 72 73 72 74 73 72 73 74 73 74 78 82 83 84 85 88 90 92 96 99 102 105 109 111 114 116 118
63 65 68 71 68 69 70 68 67 67 68 68 68 67 67 66 65 63 62 62 65 68 69 70 72 75 76 78 79 80 81 81 82 82 83 82 84 87 89 90 91 94 96 99 101 104 107 110 113 116 117 119 122 123
59 64 68 71 74 72 72 72 73 72 73 73 72 73 73 70 70 71 72 73 74 76 76 78 81 83 85 87 88 90 92 93 92 91 92 94 96 97 98 100 102 103 105 107 108 111 113 115 117 120 122 122 118 113
60 61 62 65 70 74 72 76 76 75 77 76 76 78 76 76 77 78 79 78 80 81 83 86 89 90 93 96 97 99 101 102 103 104 104 104 105 108 109 110 111 111 112 113 114 115 118 120 120 115 112 112 113 114
59 60 63 62 63 63 67 73 76 80 84 81 80 80 81 83 85 84 85 84 83 86 89 92 93 95 96 98 99 100 104 104 107 109 110 112 112 112 110 112 113 114 114 113 112 109 107 109 110 110 110 111 110 109
65 61 58 61 61 60 60 63 66 68 72 76 78 82 83 83 88 91 88 88 93 96 97 99 100 103 105 108 108 107 108 106 108 110 108 107 107 108 106 104 105 106 104 104 105 104 101 99 101 100 102 100 97 96
68 64 62 61 62 63 62 60 60 60 62 65 67 70 72 74 79 83 87 92 94 93 93 93 94 96 97 98 97 95 97 99 102 103 102 101 103 103 103 103 104 105 105 105 102 102 102 102 102 97 96 95 91 91
69 70 68 66 62 61 59 59 60 63 64 67 69 72 76 75 78 82 84 85 85 84 84 88 91 91 94 93 91 92 93 94 94 94 99 103 103 103 104 105 107 108 107 105 104 102 99 95 93 94 94 92 90 89
70 69 69 69 69 70 68 67 65 65 67 68 67 69 70 71 72 74 75 77 83 89 90 88 88 88 92 95 95 96 97 98 100 101 101 101 102 101 100 98 97 95 93 93 92 91 90 91 91 88 86 85 83 83
72 72 71 72 74 73 73 75 76 75 75 74 73 74 76 75 76 77 79 78 79 81 83 84 84 85 83 84 86 87 87 88 89 88 89 89 90 91 91 91 92 91 89 89 88 87 88 86 85 84 83 81 78 76
73 72 73 71 70 73 70 72 72 74 75 75 75 77 79 80 81 81 80 79 81 83 83 84 84 85 84 84 84 84 85 84 84 85 85 84 85 85 85 86 86 84 82 81 81 83 82 80 78 76 73 73 72 70
67 68 70 72 72 70 71 71 71 72 74 75 76 76 78 79 79 78 76 77 79 80 81 82 84 83 81 81 81 81 80 80 80 80 81 81 80 79 80 78 78 78 79 79 77 76 74 73 72 70 69 68 66 66
65 68 68 68 69 69 69 71 71 73 74 75 75 74 75 76 75 74 74 75 76 75 76 76 76 77 77 75 75 75 74 74 74 74 75 75 75 74 73 72 73 72 71 69 68 68 68 67 67 66 64 63 63 63
66 66 65 66 66 67 66 67 69 70 71 71 70 70 72 72 70 69 69 70 71 71 70 69 69 68 67 68 68 68 68 67 67 68 68 67 67 68 67 65 64 64 64 64 64 63 63 62 62 62 62 61 60 61
56 56 56 58 61 62 62 65 64 65 65 66 65 66 70 70 68 65 67 68 67 66 66 64 63 63 63 63 63 61 59 59 59 60 62 63 63 62 62 63 63 62 60 59 59 60 61 61 61 61 62 61 59 57
51 52 53 55 55 55 57 58 58 57 58 57 58 59 60 59 58 58 60 60 59 59 59 57 56 56 55 55 55 55 56 57 58 59 59 59 59 59 59 59 59 59 59 58 58 57 58 59 58 58 58 57 55 55
42 43 44 45 47 48 49 48 49 49 49 49 50 51 52 53 53 54 55 54 53 51 50 50 50 51 52 54 55 56 55 55 56 56 56 55 55 55 55 54 54 55 56 55 54 54 54 53 53 54 54 56 57 55
35 36 38 39 40 40 41 41 42 42 42 43 45 46 47 47 48 48 48 47 47 47 46 47 48 50 51 52 52 52 51 50 49 50 50 51 50 50 51 50 50 50 50 50 49 49 50 51 52 53 52 52 53 53
32 34 35 35 36 36 36 36 37 37 37 38 39 40 41 41 41 42 43 44 45 46 46 46 46 46 47 48 48 48 47 47 46 46 45 46 46 45 45 46 46 47 46 47 48 49 48 48 48 49 49 48 47 47
30 30 31 32 32 33 33 34 34 34 35 37 38 38 39 39 40 39 39 40 42 43 44 44 44 45 45 45 45 46 46 46 45 45 44 44 43 44 44 45 46 47 47 48 48 48 49 48 47 45 44 43 43 42
26 26 27 28 29 30 31 32 33 34 35 36 36 36 35 35 36 37 36 39 40 40 40 41 42 43 43 42 42 43 43 44 44 43 43 44 44 45 45 45 47 46 45 45 45 45 44 44 45 44 43 40 39 38
26 27 27 28 28 29 30 31 31 32 33 34 34 34 33 33 35 36 37 37 37 37 38 39 39 39 40 41 41 41 41 42 42 42 43 43 43 44 43 42 42 43 43 43 43 44 44 43 42 40 39 39 38 36

GFSWCAN_250_spd_018.txt.gz
Wind_Speed
69 70 67 66 67 63 65 71 72 69 64 62 56 61 59 56 58 56 54 54 51 48 46 44 42 39 37 34 31 30 31 32 33 33 33 34 32 34 36 38 39 41 42 43 43 44 42 46 45 52 56 59 62 65
66 65 66 67 62 66 72 72 68 64 60 58 59 62 58 58 58 57 57 52 50 49 47 46 44 40 37 33 32 31 31 33 35 36 36 36 37 40 41 42 46 47 49 49 50 50 51 51 54 57 62 65 68 72
64 64 64 60 66 74 73 69 66 60 58 57 61 63 57 57 56 53 50 53 49 48 48 48 45 41 38 36 34 36 36 36 35 36 38 40 41 42 44 45 48 52 54 52 52 55 57 58 60 64 67 70 74 77
66 64 61 61 71 75 71 67 62 56 55 57 60 63 57 53 52 50 51 52 50 50 49 47 46 45 43 42 40 40 39 38 38 37 36 36 38 40 43 45 47 53 58 58 56 59 59 63 68 70 73 77 81 81
58 58 54 58 73 72 68 65 59 55 51 50 58 62 58 53 50 49 50 51 50 48 48 49 48 47 47 47 47 47 47 46 46 45 46 47 46 47 47 49 54 62 65 62 60 65 65 69 74 77 79 82 84 83
55 54 56 63 72 71 67 62 58 53 47 47 59 64 57 54 50 47 43 44 46 48 49 49 48 50 50 50 51 51 51 51 51 51 50 50 56 54 50 52 63 70 68 69 69 73 74 75 78 81 83 83 83 85
53 57 61 67 70 69 66 61 55 52 49 45 59 63 58 54 53 52 50 46 45 45 46 47 49 49 50 52 54 55 55 55 56 57 58 59 60 60 57 58 73 72 73 76 79 80 81 84 81 81 83 87 87 86
53 56 64 67 70 68 65 59 55 51 50 48 53 64 62 57 55 56 56 54 50 48 48 46 47 50 52 55 56 57 58 59 58 59 60 62 62 65 65 71 75 78 81 83 83 82 80 80 82 84 86 85 86 90
51 56 66 70 70 66 60 58 58 52 52 48 50 59 62 63 62 58 54 54 54 55 53 51 53 56 58 61 62 62 63 63 63 64 67 67 65 69 71 74 76 78 77 76 79 81 82 83 82 83 86 89 92 95
51 57 66 70 70 68 62 57 56 57 51 51 50 48 56 59 60 59 58 55 54 57 59 59 63 65 68 70 70 69 68 66 65 67 70 69 69 75 78 77 77 80 81 81 80 81 82 84 88 91 93 97 100 102
49 52 60 67 68 65 62 60 57 57 55 53 53 53 54 56 57 59 59 56 54 52 52 57 61 64 66 70 74 75 74 74 73 74 76 74 73 76 77 78 78 79 81 83 86 88 90 93 95 99 102 104 107 111
52 55 59 63 64 64 63 59 57 57 54 51 50 50 49 50 53 53 51 52 54 57 59 64 66 67 68 70 72 72 74 75 75 74 73 71 73 77 80 81 83 86 88 92 95 98 101 102 105 107 109 112 113 115
52 56 58 64 67 67 64 63 62 59 57 56 53 52 52 51 50 50 52 53 57 59 62 65 66 67 68 71 72 73 73 72 74 74 76 78 82 84 86 88 90 92 96 99 102 105 108 110 112 115 116 115 118 120
51 54 58 64 67 66 65 63 62 59 60 62 61 59 56 53 53 53 55 57 58 60 62 64 66 68 70 72 74 76 77 80 81 83 86 89 92 94 94 96 98 102 104 106 108 109 112 117 118 117 117 115 111 109
50 54 59 61 62 65 65 65 64 65 63 63 62 60 59 61 62 63 63 63 64 66 68 70 73 75 78 80 81 84 87 89 91 92 93 96 99 102 102 104 106 107 108 113 116 116 113 110 109 105 106 106 108 109
50 50 52 58 64 66 66 67 67 66 66 66 66 67 68 68 69 69 70 72 73 74 76 78 80 82 85 87 88 92 95 97 98 100 101 103 105 106 109 111 114 117 113 111 108 109 107 107 108 109 108 109 111 110
50 51 51 55 58 60 63 65 67 70 71 72 72 72 73 75 76 77 78 79 81 83 85 85 86 89 89 92 96 99 102 104 105 104 106 109 113 117 113 108 106 108 109 109 108 106 105 107 108 106 104 98 93 92
54 52 52 53 56 57 59 60 63 66 67 70 73 75 77 76 76 79 82 84 86 86 88 90 90 92 94 97 101 104 106 109 111 112 113 113 110 109 111 111 111 111 112 111 110 111 108 103 99 93 92 91 91 92
57 57 57 57 57 59 61 61 63 66 67 67 67 69 70 72 74 77 80 85 84 85 87 91 94 95 95 97 100 101 101 103 103 105 106 106 104 105 105 109 109 107 105 104 103 99 98 97 95 92 90 89 88 89
61 62 61 61 62 62 61 62 62 64 66 68 68 69 71 73 73 75 78 79 81 83 85 86 88 89 93 96 98 98 98 100 103 103 105 108 109 109 105 98 96 98 98 98 96 94 92 89 88 86 85 84 83 82
66 66 64 64 65 64 63 63 65 66 67 68 70 70 72 74 75 74 74 76 78 81 84 87 89 89 89 95 98 97 98 97 97 95 93 93 94 94 93 91 91 89 88 86 85 84 82 81 81 81 81 79 77 75
65 66 68 68 69 68 66 68 65 65 66 68 69 69 69 71 72 72 73 75 76 78 78 81 81 82 83 84 86 88 89 88 88 87 87 87 86 85 85 83 83 82 81 80 79 78 78 78 77 75 73 72 71 71
62 64 65 66 67 66 68 69 70 69 69 70 70 70 71 72 71 72 73 75 78 79 79 81 83 83 84 83 82 83 84 84 84 83 81 79 79 79 78 77 77 77 77 76 76 75 74 72 70 69 68 68 66 66
64 66 66 64 65 66 66 69 70 71 71 71 71 70 71 73 72 72 72 74 76 76 77 78 79 79 79 77 75 74 75 77 77 77 77 76 75 74 73 73 72 72 72 72 71 69 69 69 66 65 64 63 63 63
63 63 64 65 65 67 68 69 70 70 69 68 67 67 68 69 68 67 69 73 74 73 73 73 72 71 72 72 72 73 73 72 72 71 70 69 69 67 67 67 68 67 67 67 67 66 65 64 63 62 62 62 62 62
63 62 63 63 63 63 61 63 62 63 62 62 62 62 62 61 62 62 65 67 67 68 69 68 68 68 68 67 67 68 68 67 65 64 63 63 63 64 64 63 63 62 61 62 62 62 62 62 61 62 62 61 59 59
56 55 54 55 57 56 58 59 60 60 60 60 61 62 61 61 62 62 63 64 63 64 65 64 64 63 63 63 63 61 60 60 60 60 61 62 61 60 60 60 60 60 60 59 58 58 59 60 59 59 59 58 56 56
54 55 54 54 55 54 57 57 57 57 57 57 57 57 57 57 57 58 59 59 58 59 59 58 57 58 58 58 58 58 58 58 58 58 57 57 56 56 56 56 57 57 57 56 56 56 56 56 56 56 57 58 58 57
45 46 46 48 48 49 50 51 51 52 52 52 52 52 51 51 51 51 52 53 53 53 53 53 53 54 55 55 55 55 55 55 55 54 54 53 52 52 53 53 53 53 54 53 52 53 53 54 55 55 56 56 57 57
39 40 42 42 42 43 44 44 45 45 46 46 47 47 47 47 48 48 49 49 50 50 50 50 50 51 50 51 52 52 52 51 51 51 51 51 51 51 51 51 51 51 51 51 51 51 52 52 52 51 51 50 51 51
32 32 33 34 35 37 37 38 39 40 40 41 42 42 42 42 43 44 45 45 45 46 46 47 47 48 49 49 49 49 50 49 49 49 48 48 49 49 49 49 50 50 50 50 51 51 50 49 49 48 47 47 48 46
29 30 32 32 32 32 33 35 36 37 38 39 39 38 38 39 40 41 41 42 43 44 44 45 45 45 46 47 47 48 48 48 49 48 48 48 48 48 48 48 48 49 49 47 47 47 47 47 46 47 47 47 46 45
29 30 30 30 31 32 33 33 34 35 36 37 36 36 36 36 38 39 40 41 41 42 42 43 43 44 45 45 46 46 46 46 46 46 46 45 45 46 46 46 46 46 45 45 46 45 45 46 47 47 46 45 44 43

GFSWCAN_250_spd_021.txt.gz
Wind_Speed
57 57 57 59 60 60 61 64 64 64 66 65 65 67 66 61 64 63 63 63 58 56 52 48 45 45 44 40 36 34 30 30 29 30 31 30 30 31 35 36 38 38 38 40 42 45 45 47 48 49 48 50 52 56
58 61 63 61 60 61 62 61 63 65 62 63 66 65 61 64 63 63 62 59 56 55 52 49 46 45 43 41 37 35 33 33 33 33 33 32 35 36 37 38 41 43 45 46 48 50 51 51 53 53 53 55 60 62
60 62 62 63 62 62 62 63 64 63 63 66 63 61 60 65 61 62 62 59 58 56 53 49 45 44 44 41 38 37 37 36 34 33 34 37 37 39 40 41 43 45 48 51 51 54 55 55 55 57 60 61 65 69
59 61 60 60 60 59 62 62 58 60 65 62 60 55 65 65 61 60 60 58 57 55 53 50 47 45 44 43 40 39 38 36 35 35 35 37 39 39 40 42 44 47 49 49 50 54 55 58 62 63 65 69 72 76
57 57 55 53 55 56 53 51 56 61 60 59 55 53 65 62 59 61 59 56 56 53 52 51 47 46 46 45 44 43 42 41 41 40 40 40 41 42 43 46 51 59 57 56 56 60 60 64 67 69 73 77 81 85
54 56 54 50 49 51 54 59 62 61 58 55 52 58 64 58 54 54 53 50 48 49 50 50 49 47 47 48 49 49 48 48 47 45 44 43 46 46 47 52 60 62 63 64 63 64 66 69 72 76 80 84 87 88
53 52 53 52 54 57 59 61 59 57 54 53 50 57 63 57 54 53 53 55 54 53 51 50 50 49 49 50 51 52 52 50 49 49 49 51 54 56 56 59 65 68 68 69 69 70 73 77 80 84 88 87 84 83
50 52 53 56 56 58 58 58 56 52 51 49 50 55 59 57 50 50 52 52 51 51 52 51 52 54 54 54 54 53 53 53 53 53 55 57 59 62 61 65 68 71 73 75 76 77 79 83 85 84 83 82 81 83
50 47 45 49 57 62 60 58 55 52 50 47 44 49 57 60 55 51 50 47 47 45 46 50 54 56 56 58 57 57 56 56 56 57 61 64 63 64 65 67 71 74 77 80 82 84 85 86 84 81 82 85 89 92
46 44 45 51 59 64 62 58 53 52 49 46 44 40 58 59 62 56 53 49 48 46 44 47 49 51 53 55 56 57 58 59 61 64 65 64 64 69 73 74 76 79 83 85 87 87 86 84 85 87 90 94 97 100
43 46 49 54 59 62 61 59 56 53 51 48 45 41 47 63 55 64 57 53 52 51 52 53 55 58 59 59 61 63 64 65 64 64 68 69 71 76 80 83 85 87 87 87 88 86 86 89 93 96 99 102 104 106
43 43 46 54 60 63 62 61 59 56 53 51 48 45 43 47 56 56 58 58 60 60 61 63 64 63 65 67 68 68 70 71 72 72 74 75 77 81 84 85 85 85 85 85 87 90 94 98 100 103 106 109 111 114
42 42 42 47 54 61 63 61 60 60 56 50 46 47 47 44 43 44 51 60 67 68 69 70 70 70 69 70 69 70 70 71 72 73 75 77 80 81 82 83 84 86 88 91 94 97 101 104 106 110 112 113 115 118
45 41 43 47 56 62 63 63 61 59 59 59 56 52 49 48 47 50 52 55 58 60 64 66 67 67 68 69 68 70 71 72 72 74 77 78 78 80 82 86 89 93 96 97 101 104 107 109 111 113 115 118 117 116
41 44 47 50 56 63 66 66 61 60 58 57 59 57 55 52 53 54 55 57 59 61 62 65 66 67 69 69 70 71 72 72 74 77 79 82 84 87 90 94 98 101 104 106 110 111 113 113 115 117 117 117 116 117
42 45 49 53 57 59 62 66 66 64 66 64 60 59 60 60 59 60 60 61 62 63 64 65 66 68 70 71 72 75 76 79 81 83 86 89 92 95 98 101 105 108 112 112 115 117 114 113 113 112 114 115 115 112
41 45 46 52 56 61 64 67 67 68 67 67 67 67 65 65 65 65 65 66 66 66 68 69 70 73 74 75 78 82 84 87 89 93 97 99 101 103 105 107 111 110 114 113 109 110 112 113 114 113 110 105 100 100
46 47 49 51 55 59 61 63 67 70 69 70 71 71 71 71 71 71 72 73 73 74 75 77 78 80 82 84 88 91 93 95 96 99 101 102 104 106 108 109 111 110 111 110 113 115 113 113 112 106 102 100 96 94
50 51 51 53 54 56 61 64 67 68 69 70 70 70 71 72 74 75 77 78 78 78 80 81 83 85 88 90 91 93 95 97 98 101 103 104 103 105 105 106 107 110 113 116 117 113 104 102 100 97 94 91 89 87
54 55 57 56 57 58 59 61 61 62 63 66 68 70 71 72 73 74 76 77 78 78 78 80 82 83 85 87 88 92 94 94 95 97 99 100 103 105 107 109 111 113 111 104 102 99 96 92 90 89 87 85 84 83
54 55 57 58 59 61 63 65 65 64 64 65 67 69 70 70 72 73 76 78 78 80 81 82 84 87 88 89 91 93 96 95 94 95 98 100 105 109 109 104 99 98 95 93 90 88 88 86 85 83 82 81 78 75
52 53 55 59 61 63 64 65 66 65 65 67 68 70 70 71 71 71 73 75 76 79 79 82 84 87 89 90 91 93 95 96 97 98 96 94 96 93 90 90 89 86 85 85 83 82 81 79 78 76 74 73 73 71
55 54 54 54 55 56 59 63 65 66 66 67 68 68 70 73 74 74 75 76 78 80 81 81 82 84 86 86 87 88 87 88 87 87 87 86 85 82 81 81 82 80 78 77 76 75 74 73 72 71 70 69 67 66
56 54 54 56 56 57 57 60 60 61 62 63 65 66 68 70 71 72 73 74 76 78 79 80 80 81 81 82 81 82 82 82 82 80 78 78 78 78 77 77 75 73 72 72 72 70 69 68 68 67 65 65 63 62
56 57 56 57 58 60 60 61 62 62 64 65 66 67 69 68 69 69 70 72 73 73 74 74 74 76 77 76 75 74 73 74 74 75 74 73 72 72 71 69 68 68 69 69 68 67 66 65 64 63 61 61 62 61
57 58 59 58 58 59 58 59 59 60 60 59 60 61 61 62 63 65 66 67 67 69 70 69 69 69 70 70 71 71 70 69 68 67 66 66 66 65 66 66 66 65 64 64 64 64 63 62 61 61 61 59 58 58
53 52 54 55 56 56 58 57 57 56 58 59 59 59 59 59 60 61 61 61 62 64 65 65 65 65 64 64 64 63 63 62 62 62 63 64 63 63 62 62 61 61 60 59 59 60 60 59 59 59 58 56 56 56
48 50 52 53 54 53 54 53 53 53 53 54 54 54 55 54 55 56 56 56 56 56 57 58 58 58 58 59 58 58 58 58 58 59 59 58 58 58 58 57 57 57 57 56 56 55 56 56 56 56 56 56 57 57
42 43 44 46 45 46 46 47 47 47 48 49 50 50 50 49 49 49 50 51 52 52 54 54 55 55 55 55 55 55 55 55 55 55 56 55 55 55 54 53 53 54 53 52 52 52 53 53 53 54 55 56 56 56
35 35 36 37 38 38 39 41 42 44 45 45 45 46 46 47 47 48 48 49 49 50 51 51 52 52 52 53 53 53 53 53 53 52 52 51 51 51 50 50 50 50 50 50 50 50 50 51 52 53 54 54 54 52
32 34 34 35 36 38 40 41 41 43 44 43 43 44 43 43 43 44 45 46 46 47 47 48 49 49 50 50 50 49 49 49 49 49 48 49 49 48 48 48 48 48 48 48 49 49 49 49 48 48 47 47 46 47
33 34 34 34 34 35 36 38 38 39 40 40 39 39 40 40 41 42 43 44 45 45 45 46 46 46 46 46 45 45 46 46 46 45 46 46 45 45 45 45 46 47 47 47 47 46 45 45 45 44 44 44 45 44
29 30 30 31 31 32 34 35 36 37 37 38 37 36 36 37 38 39 39 40 40 41 41 41 41 42 43 43 44 44 45 45 44 44 44 44 43 44 44 45 45 44 44 44 44 44 44 43 43 43 44 43 42 42

GFSWCAN_250_spd_024.txt.gz
Wind_Speed
51 52 54 57 58 58 57 56 57 59 57 58 64 68 71 72 72 70 69 67 63 62 60 58 56 51 46 45 43 44 41 38 38 37 36 35 34 34 36 37 37 36 36 38 40 43 42 44 44 47 49 52 56 58
52 52 55 55 54 54 55 54 56 58 60 62 63 65 68 71 70 69 67 67 64 63 59 59 57 53 49 47 44 42 41 37 37 39 38 35 36 37 37 37 38 39 40 43 45 46 46 48 49 49 50 53 56 58
50 51 53 56 57 55 53 55 58 60 62 64 65 67 69 69 67 63 68 66 65 63 61 60 57 52 50 46 45 43 41 39 39 38 36 36 36 37 38 38 41 43 45 47 48 49 47 46 47 50 54 57 58 60
53 53 54 55 55 56 59 61 62 64 67 68 67 67 66 66 65 70 68 66 63 63 61 60 57 53 50 47 46 45 44 41 39 38 37 37 38 38 40 42 45 47 47 46 48 52 51 55 57 59 61 61 64 67
58 58 57 57 57 57 59 60 61 61 61 60 62 64 64 68 68 65 66 63 63 64 61 59 57 53 49 47 47 46 45 44 43 42 41 40 39 39 40 41 44 46 48 50 52 54 57 62 65 66 66 69 72 74
58 57 55 54 52 52 54 55 53 54 58 58 61 63 69 65 62 64 64 62 62 60 58 57 56 53 49 48 48 47 46 45 43 42 42 41 43 45 45 48 52 54 54 53 58 65 67 68 69 72 74 75 77 79
53 54 54 52 50 49 48 50 51 54 54 59 62 63 55 55 59 61 56 57 57 57 57 58 57 54 50 49 47 46 46 46 47 47 47 49 51 51 51 52 56 59 62 64 68 71 71 72 74 76 77 79 82 86
40 40 42 44 43 44 44 45 46 48 54 57 58 54 53 59 63 59 56 57 60 59 58 56 55 55 53 52 50 49 49 50 51 52 53 55 54 55 54 59 62 66 70 73 76 75 76 79 80 80 82 86 90 90
40 38 36 40 39 42 42 41 44 49 52 49 50 48 44 56 58 57 53 53 52 51 51 53 55 57 56 56 54 54 53 53 53 54 56 57 57 58 62 66 69 72 76 77 78 81 82 82 84 87 90 92 89 89
42 41 38 37 37 40 43 47 50 51 50 49 50 48 46 56 58 56 52 49 49 50 52 53 55 56 57 58 58 58 57 56 55 56 57 58 61 67 70 71 73 76 79 80 82 84 86 89 92 92 90 91 91 92
34 36 38 36 38 40 44 48 49 47 48 46 47 46 47 53 59 56 52 51 51 52 54 56 57 59 60 60 60 58 57 56 55 58 63 61 60 69 73 76 78 79 81 83 86 90 92 91 91 92 92 94 97 101
25 28 36 34 38 43 44 48 50 49 49 48 47 44 46 49 53 58 53 53 55 53 54 57 57 56 55 56 56 56 58 58 55 58 62 62 70 75 76 78 81 84 86 88 87 88 90 92 92 95 98 101 104 108
30 29 32 32 34 42 46 50 50 50 48 47 47 45 43 43 46 52 57 58 60 62 62 60 59 61 62 63 64 64 64 63 65 66 68 71 77 78 79 81 82 83 85 87 89 91 92 95 97 100 104 108 111 114
32 31 31 33 36 42 48 50 50 50 49 48 47 46 43 41 41 48 56 62 65 63 66 67 64 64 64 65 65 68 69 70 70 72 75 78 80 80 80 82 83 85 86 88 91 94 96 99 103 108 111 114 114 118
36 35 33 34 35 41 49 53 54 54 53 53 51 47 47 47 47 47 47 49 54 62 65 64 65 67 69 69 70 71 72 74 74 75 75 76 78 81 82 83 85 87 90 94 96 99 102 106 111 112 112 115 116 115
45 43 41 39 37 40 46 54 56 58 58 57 54 53 52 53 53 52 53 54 54 56 58 60 62 63 65 66 66 68 70 71 73 74 76 78 80 82 84 87 90 93 97 100 103 106 109 110 111 113 114 112 112 114
45 45 46 45 43 44 47 52 58 61 59 60 62 62 61 62 60 59 59 59 59 61 62 63 65 67 67 68 69 71 72 74 76 78 81 83 85 87 90 94 97 101 104 106 108 108 110 111 110 108 109 111 113 113
49 46 47 48 48 50 51 54 58 62 64 65 65 63 64 64 65 66 67 69 69 68 69 69 70 71 73 75 76 78 80 82 82 83 86 89 92 95 99 101 104 106 108 107 103 103 105 107 107 110 111 114 109 104
45 50 49 50 51 52 54 57 60 62 64 67 68 69 70 71 71 70 71 72 73 73 73 73 74 76 78 80 81 82 84 86 89 92 94 96 100 102 104 104 103 103 105 107 106 107 108 108 110 111 107 102 96 94
43 43 49 52 53 55 57 60 62 64 67 70 71 71 72 74 76 77 77 77 77 78 78 78 79 82 85 87 88 90 92 94 96 97 99 100 99 101 102 103 103 104 105 106 108 108 109 105 102 98 94 93 91 88
49 52 52 52 56 59 60 62 64 66 68 69 71 74 76 78 79 79 80 82 83 84 85 85 84 84 85 88 89 89 90 92 93 94 97 99 100 100 101 102 104 106 107 106 102 101 99 93 91 92 90 86 84 81
53 54 53 53 55 57 62 65 65 66 67 70 72 74 75 76 76 76 77 78 79 80 81 81 82 82 82 84 86 89 92 93 93 94 96 98 100 102 103 102 102 100 97 95 92 90 89 89 88 84 81 79 77 75
49 49 54 54 55 58 60 62 62 63 64 65 67 69 71 72 73 74 75 75 76 76 76 78 80 82 85 88 90 92 93 95 96 98 97 97 96 95 93 91 90 88 87 87 87 86 84 82 79 77 75 73 72 70
49 51 50 51 52 57 59 60 61 62 63 64 66 68 70 73 75 77 78 79 79 80 81 83 85 87 89 90 91 92 92 90 89 87 86 84 84 84 84 83 84 84 83 81 79 78 76 75 73 70 70 69 67 65
49 50 51 51 50 52 55 58 60 64 68 69 70 71 72 72 74 75 76 79 80 80 80 79 78 79 80 79 79 78 79 80 80 79 78 78 79 80 79 78 77 76 76 75 73 71 69 67 66 65 64 64 63 61
48 49 51 49 50 53 53 54 54 56 59 60 60 63 65 65 66 68 68 69 69 69 68 67 69 71 72 73 75 75 75 75 74 74 74 74 73 72 72 71 70 68 67 66 66 65 63 62 62 61 60 59 59 58
41 41 41 42 43 45 47 49 49 50 51 52 53 55 56 58 60 60 61 63 64 66 66 66 67 69 69 69 70 70 70 69 68 67 66 65 64 64 64 63 62 62 61 60 61 61 60 60 59 58 58 57 56 56
39 39 42 42 43 43 46 47 48 49 50 50 52 53 54 55 56 57 58 59 60 61 61 61 61 61 61 62 62 62 62 62 62 61 60 59 59 58 57 56 57 56 56 56 56 56 57 57 56 56 55 54 53 53
38 39 40 42 42 42 43 44 45 46 46 47 48 49 50 50 50 51 52 52 53 54 55 55 55 55 55 55 55 55 55 55 54 54 54 54 54 54 53 53 54 54 53 53 53 54 53 53 52 52 52 53 53 53
35 35 35 36 37 38 39 40 41 42 42 42 42 43 44 45 46 46 47 47 48 49 48 48 48 48 49 49 50 50 51 51 51 51 52 52 52 51 51 51 51 51 51 50 49 48 48 49 51 51 51 50 50 50
31 32 32 33 33 34 35 36 37 38 38 39 39 39 39 39 39 40 41 43 44 44 45 45 46 47 47 48 48 49 49 49 49 49 48 48 48 48 48 48 47 47 46 46 46 47 47 47 46 46 47 47 46 45
29 30 30 30 31 32 33 34 35 36 36 36 35 36 37 38 40 41 41 42 43 43 43 44 44 44 44 45 45 45 45 45 45 45 45 44 44 44 45 45 45 46 46 46 45 45 44 43 43 44 43 41 41 42
26 28 29 29 29 29 31 32 34 34 34 35 35 35 36 36 37 39 39 40 40 41 41 41 41 41 41 41 41 41 41 41 42 43 43 42 42 42 42 43 43 43 43 43 42 43 43 43 42 41 40 40 40 40

GFSWCAN_250_spd_027.txt.gz
Wind_Speed
41 41 42 43 45 45 48 50 55 58 61 62 65 67 67 69 71 71 70 71 83 76 67 54 51 51 53 52 48 46 46 40 41 40 38 36 36 34 34 36 37 37 38 40 40 42 42 43 43 46 47 49 50 53
45 46 45 46 47 48 49 54 59 63 64 64 64 67 68 66 68 70 70 77 83 74 61 57 55 53 53 56 53 51 48 43 42 38 39 39 38 37 38 39 38 39 41 43 45 47 44 44 46 48 49 52 55 55
45 46 48 49 50 52 54 54 57 58 59 61 62 61 63 66 67 67 67 83 82 71 62 59 53 55 53 54 51 51 46 44 43 43 42 40 40 41 41 41 41 41 42 42 45 47 45 47 49 51 54 55 57 59
46 46 48 48 49 49 52 55 57 58 59 58 58 61 64 65 69 76 80 83 79 69 65 57 55 58 55 56 52 50 47 47 46 44 43 41 42 44 44 42 43 43 43 45 47 48 48 49 50 53 57 57 61 67
49 48 48 47 48 50 51 53 55 55 53 54 57 59 63 68 75 79 82 80 77 72 64 60 59 60 58 58 54 52 50 47 46 45 44 43 44 44 43 42 43 46 45 47 47 46 51 55 56 57 59 66 71 71
49 50 50 48 48 49 49 50 53 53 55 58 60 62 66 72 77 76 77 76 72 68 65 64 61 60 60 57 55 53 52 51 48 46 46 45 44 44 44 45 45 48 48 49 52 56 57 60 60 64 68 73 75 78
47 47 46 47 48 49 50 50 51 53 56 60 64 67 69 73 71 72 72 69 71 66 64 62 62 61 60 58 56 54 54 52 50 50 49 49 49 48 47 47 49 53 55 57 61 62 62 67 67 71 76 79 82 84
43 42 42 42 44 47 50 51 53 55 58 59 61 65 66 66 68 68 69 65 64 64 66 62 58 58 59 56 56 55 54 53 52 51 51 51 51 51 49 53 58 62 63 64 65 68 70 71 76 79 82 84 87 88
45 42 40 41 42 43 46 47 49 52 55 57 59 60 61 61 60 60 60 62 62 63 62 58 55 58 59 58 57 56 54 53 52 51 53 53 53 54 58 62 65 67 68 69 71 73 76 79 82 84 86 87 88 91
38 40 38 38 41 42 41 42 44 44 47 50 52 55 57 57 54 57 60 61 59 59 58 55 56 59 58 59 58 58 57 55 53 54 56 55 56 60 64 66 68 69 71 71 72 78 81 83 84 86 86 91 92 90
32 33 31 31 32 31 34 34 38 37 39 42 47 49 48 50 51 50 50 52 54 56 55 53 55 56 56 56 59 59 59 59 58 58 59 58 60 68 71 72 72 72 72 75 79 82 82 83 85 89 91 91 92 95
20 22 24 24 26 29 30 33 34 37 41 43 43 47 47 42 43 46 47 47 52 54 52 52 54 56 56 57 58 59 61 60 58 61 63 62 67 74 74 73 73 75 78 80 82 83 85 89 91 91 91 95 97 99
15 13 15 22 24 26 27 31 38 43 44 44 45 47 45 40 38 43 50 53 53 57 55 52 53 55 56 56 56 57 59 59 61 62 62 64 72 74 74 76 78 80 81 82 84 88 90 91 91 94 97 99 101 104
21 21 19 20 18 20 28 34 39 42 46 45 43 43 41 40 40 43 48 55 56 54 54 54 55 57 58 60 60 61 62 64 64 65 66 73 74 75 77 78 80 82 84 88 90 91 90 93 97 98 100 103 107 111
20 19 20 24 25 23 24 33 41 44 45 45 44 42 41 42 43 43 46 50 55 58 57 57 57 59 62 64 65 66 67 67 67 69 74 76 77 77 79 81 84 88 90 89 89 92 94 96 98 103 107 109 112 115
28 27 25 26 27 32 31 34 39 44 49 47 47 47 47 47 47 46 46 46 49 53 58 62 64 64 65 65 66 69 70 70 72 75 76 78 81 83 86 85 84 85 88 90 92 95 99 103 106 108 110 113 116 116
36 34 31 30 31 30 32 36 40 44 47 51 52 51 50 49 50 50 51 51 51 52 54 55 57 61 66 70 72 74 76 77 78 79 79 78 78 80 83 85 87 89 92 96 101 103 105 106 109 113 113 114 113 113
39 40 40 38 37 36 37 37 40 44 44 47 55 57 58 58 58 58 58 58 59 59 60 61 62 63 64 64 66 68 70 73 75 77 79 81 83 85 88 91 95 99 101 102 103 106 109 111 110 110 110 112 111 111
42 46 46 43 44 44 46 45 46 47 47 49 51 55 58 62 64 65 66 66 66 67 67 68 68 68 70 71 73 74 76 79 81 84 86 88 90 93 95 97 98 101 103 105 107 108 108 108 109 109 108 109 111 112
41 42 45 49 50 50 51 51 54 54 54 55 55 57 60 62 64 66 68 70 71 72 73 75 75 76 78 80 82 83 85 86 87 88 89 91 94 96 98 101 103 103 105 104 104 105 107 107 108 109 110 110 107 104
46 43 43 45 46 50 58 57 57 58 58 59 61 62 63 66 68 71 73 74 75 76 77 78 79 81 83 84 85 86 88 90 91 93 95 98 100 102 100 101 102 101 103 104 105 106 106 106 108 106 103 101 98 96
56 53 52 51 50 49 50 54 58 60 62 64 65 66 67 68 70 71 73 74 76 78 80 82 83 83 84 85 87 89 91 93 94 95 95 95 97 97 98 100 101 102 103 103 103 103 104 104 101 98 96 94 91 88
59 60 60 59 56 55 57 56 57 59 62 65 65 66 69 71 72 73 73 74 76 79 80 81 82 82 83 84 85 86 88 89 91 92 94 95 96 98 100 100 100 101 101 101 99 98 96 94 92 90 87 85 82 80
55 55 53 52 52 55 57 63 65 63 63 64 66 67 68 69 71 73 74 74 74 76 77 78 79 80 81 83 85 88 89 91 92 94 95 96 97 95 95 96 96 95 93 92 91 89 88 86 84 81 79 78 77 75
54 56 53 54 53 54 55 55 57 60 61 65 68 68 70 70 70 69 71 73 75 78 79 79 80 81 84 85 87 89 89 90 90 91 91 91 93 93 92 90 88 86 85 83 81 80 78 77 76 75 73 72 71 69
49 49 50 49 49 50 51 53 56 57 59 60 62 67 68 69 70 71 72 75 79 81 82 83 84 85 86 86 88 88 88 87 88 88 87 86 86 85 83 81 79 77 76 74 73 72 71 71 70 69 68 66 65 64
41 41 41 41 41 42 44 45 46 48 50 52 54 56 58 59 62 65 67 69 70 72 73 74 75 75 76 77 77 78 79 79 80 80 79 79 77 75 73 72 71 70 69 69 68 68 67 67 65 63 62 60 60 59
34 34 36 37 40 41 43 44 46 48 49 51 52 54 55 57 59 61 62 63 64 65 65 66 68 69 71 71 70 70 71 70 70 70 70 70 69 69 68 67 66 66 65 65 64 63 61 60 59 58 57 56 55 55
37 38 39 40 41 42 43 44 45 47 48 49 51 52 53 54 55 56 58 59 60 60 61 62 62 62 61 61 61 61 61 62 63 63 62 62 63 64 63 62 61 60 58 56 56 56 56 56 55 55 54 54 54 54
37 38 38 39 40 41 42 43 43 44 44 45 46 47 48 48 48 50 51 52 52 53 53 53 54 54 54 55 55 56 56 57 57 57 57 57 56 55 54 54 53 53 53 53 53 52 53 53 53 53 53 52 52 51
33 34 35 35 36 36 37 37 38 38 39 40 41 42 42 44 45 46 46 47 48 48 49 49 49 50 51 52 52 52 52 51 51 50 49 49 49 49 49 50 50 51 52 52 51 51 51 51 52 52 51 50 49 48
31 31 32 33 33 33 35 36 36 36 36 37 37 37 38 40 41 40 41 42 43 44 44 45 45 45 45 45 45 45 45 45 46 46 46 46 47 48 49 50 50 50 50 49 49 49 49 48 46 46 45 45 45 44
29 29 29 30 30 30 31 32 34 33 32 33 33 34 36 36 36 37 38 38 39 40 40 40 40 41 42 42 43 44 44 45 46 48 48 48 48 47 47 46 46 47 47 47 46 45 45 44 44 43 42 41 41 41

GFSWCAN_250_spd_030.txt.gz
Wind_Speed
33 35 37 41 44 44 45 44 48 52 54 55 55 57 54 63 64 66 67 67 70 56 59 63 67 56 50 52 47 46 49 46 47 47 44 39 39 37 36 33 32 31 34 35 37 39 40 42 42 46 46 48 51 52
31 33 36 39 40 40 40 41 42 43 45 48 51 56 63 64 66 70 66 63 61 58 60 55 50 49 58 52 47 43 45 50 52 50 41 40 39 38 36 36 34 33 36 38 39 41 42 43 46 47 49 54 54 53
39 37 40 41 41 40 39 40 44 47 52 53 59 63 63 66 67 68 69 36 20 63 53 61 56 59 58 51 41 43 46 49 50 47 47 44 41 39 38 38 36 37 38 40 42 45 43 46 48 47 51 52 52 54
38 40 38 37 38 41 43 45 53 59 61 61 62 64 65 69 70 71 69 85 71 69 63 59 57 63 57 50 44 48 48 52 54 51 47 43 43 42 41 40 38 40 42 43 46 48 50 48 45 50 52 50 52 58
41 40 39 37 38 40 47 51 55 59 60 59 60 63 65 65 67 64 66 66 57 68 59 57 65 65 56 50 48 52 52 53 52 51 47 45 45 45 44 41 42 42 46 48 50 49 54 50 48 50 51 55 61 64
43 44 43 41 41 42 44 50 52 54 55 54 55 57 59 61 63 67 74 68 60 61 61 64 65 63 54 52 52 50 53 55 55 51 47 46 48 48 45 45 44 46 50 51 50 53 52 51 51 54 60 63 67 69
46 45 44 44 44 44 46 45 48 53 56 58 60 60 60 62 62 64 63 62 59 63 67 66 69 64 58 55 54 51 52 56 52 53 52 50 51 49 50 50 47 51 53 53 56 56 54 54 56 63 67 71 73 75
41 40 41 42 41 42 44 45 48 50 52 52 53 55 57 61 63 68 63 63 63 68 70 68 68 65 63 57 54 52 50 55 54 57 56 54 53 52 52 51 53 56 55 57 59 61 60 62 67 69 72 75 78 81
36 38 38 37 38 39 38 38 37 40 43 47 50 54 57 59 55 60 61 62 64 68 70 69 68 68 62 60 58 57 56 58 57 56 58 57 56 54 54 58 58 61 60 60 63 65 68 70 72 74 77 78 82 87
31 31 31 31 32 33 36 37 38 39 41 44 47 50 54 57 56 59 56 57 62 65 70 71 71 70 64 63 61 59 57 57 58 58 59 56 56 58 59 62 63 65 65 66 68 69 71 74 77 79 81 84 88 90
32 31 30 29 29 30 30 30 33 36 40 45 47 50 55 55 56 59 57 58 60 65 69 72 72 66 63 61 60 62 59 57 56 57 58 58 57 61 65 66 67 69 69 70 71 73 76 78 80 83 86 88 90 91
23 26 28 29 29 29 29 27 28 31 34 39 44 48 51 53 55 56 59 58 60 62 63 66 67 64 60 59 58 59 58 57 56 57 59 57 61 67 70 71 72 73 73 74 76 78 80 82 85 87 89 90 92 95
13 13 16 19 22 24 27 30 29 30 33 34 36 39 42 43 45 48 49 49 49 52 55 57 56 55 56 57 58 59 57 55 55 56 57 58 66 70 73 74 74 75 76 78 80 81 84 85 87 89 91 93 97 100
17 15 14 16 20 21 23 26 31 30 31 35 37 37 37 38 39 40 43 44 47 48 49 51 53 56 58 60 59 58 57 56 56 55 56 65 67 69 71 73 75 78 80 81 83 85 86 88 90 93 96 100 99 99
11 12 12 14 15 16 20 23 24 25 29 33 34 36 37 39 41 43 42 43 43 46 47 49 51 52 55 57 58 57 57 56 56 57 64 68 70 72 75 77 80 81 83 85 86 87 90 92 96 98 98 99 102 105
15 15 15 16 17 18 19 22 26 30 31 31 31 32 35 43 42 40 40 41 42 42 46 51 54 55 55 56 57 59 60 58 60 66 68 71 74 76 78 80 82 84 86 88 90 92 95 98 98 99 102 104 107 111
19 19 18 17 19 22 24 25 29 32 36 36 35 34 35 39 43 44 43 42 42 43 43 45 49 54 57 61 62 63 64 66 67 69 72 74 76 79 82 84 86 88 90 93 95 97 96 98 101 104 107 112 113 114
25 26 24 25 25 24 24 26 28 31 38 43 45 46 47 47 46 47 47 48 48 49 51 51 52 53 55 57 59 63 66 69 71 73 75 76 77 78 80 82 84 86 89 91 95 98 101 104 108 111 112 111 113 114
32 31 31 31 34 35 33 31 31 33 36 40 46 52 54 54 55 55 55 56 56 56 58 59 60 61 62 63 64 65 67 69 71 73 75 77 79 81 84 87 89 92 95 98 102 105 108 107 108 109 111 111 112 111
41 39 37 37 38 37 39 40 41 40 39 40 40 42 47 53 60 64 65 65 65 66 66 67 68 68 70 72 74 75 76 78 79 81 83 85 87 90 93 95 97 99 101 103 103 104 106 107 108 109 110 109 109 110
50 47 45 43 45 46 47 46 46 47 47 49 50 50 50 51 52 54 56 60 65 70 73 75 77 78 79 80 82 83 85 87 88 90 91 93 93 95 96 97 98 98 99 101 103 104 105 106 106 107 107 106 103 102
50 47 45 45 46 47 51 52 53 55 55 53 53 54 56 57 59 61 62 63 66 68 70 72 74 77 79 81 83 84 85 86 87 89 90 91 92 93 94 94 95 98 100 101 103 103 103 102 101 99 98 98 96 97
58 55 55 55 55 55 55 54 54 55 56 57 58 59 60 62 64 66 66 67 69 70 72 74 75 77 79 81 82 84 85 87 88 89 90 90 91 94 96 97 98 99 99 99 97 96 95 93 94 93 94 94 93 92
64 67 68 65 64 64 64 63 62 62 62 62 62 62 62 63 64 66 67 68 70 72 73 74 75 76 78 80 82 84 85 86 87 89 89 91 92 93 93 92 93 93 93 92 90 89 90 91 92 91 90 87 85 83
62 63 62 63 63 63 62 64 65 67 66 68 69 70 70 70 70 72 73 73 74 74 74 75 77 77 78 80 82 83 84 85 86 86 86 87 88 90 90 90 88 88 87 88 90 89 88 86 84 82 80 78 76 75
51 55 57 57 59 61 60 61 61 60 59 59 60 62 63 64 65 67 69 73 77 77 77 78 80 81 82 82 82 82 83 83 84 86 86 86 85 85 85 85 87 88 86 85 83 81 79 77 76 74 73 71 71 71
45 46 47 49 51 51 50 49 51 54 56 57 58 59 59 60 63 66 68 71 72 73 74 74 74 75 75 75 76 77 78 80 81 82 82 82 83 83 83 84 83 81 79 78 76 75 73 72 71 69 69 68 67 66
39 39 41 40 42 42 43 45 47 50 51 53 55 57 58 59 61 63 64 65 66 67 68 69 70 71 72 72 73 74 75 76 77 77 77 76 76 75 73 73 73 72 70 70 70 69 69 68 67 66 65 64 63 61
38 38 38 40 41 43 44 46 48 49 50 51 53 54 55 56 57 59 60 61 62 63 63 64 64 65 65 66 66 66 65 65 65 65 66 66 66 67 66 66 66 66 66 65 65 64 64 63 62 61 60 59 58 57
38 40 40 41 42 43 44 44 45 45 46 46 47 48 49 50 51 51 51 52 52 52 53 54 54 54 55 56 56 57 58 58 59 59 60 61 61 61 62 62 62 62 61 60 59 59 58 59 59 57 56 56 55 55
35 35 36 36 37 38 39 39 39 39 39 40 40 42 43 43 44 45 46 47 47 48 49 50 51 52 52 53 54 55 55 55 56 56 56 56 56 56 56 56 56 56 57 57 57 56 55 55 54 55 54 54 53 52
33 33 34 35 34 33 34 35 35 36 36 36 37 38 40 41 41 42 43 43 44 45 46 47 48 48 49 49 49 50 50 51 51 52 52 51 51 52 53 53 53 53 53 53 53 53 52 51 50 49 49 48 48 48
29 31 32 32 32 33 34 34 35 35 34 35 35 36 37 38 38 38 38 39 39 40 41 41 43 43 44 45 45 46 47 47 48 49 49 50 50 50 50 50 50 50 49 49 48 48 47 47 47 46 45 44 44 44

GFSWCAN_250_spd_033.txt.gz
Wind_Speed
20 24 29 33 39 42 44 45 48 50 53 56 60 61 62 60 61 65 67 73 76 82 84 84 79 77 76 71 65 61 55 51 49 44 39 40 44 42 42 42 37 37 34 32 31 33 35 36 38 39 40 44 48 49
21 24 27 34 39 40 40 42 46 48 49 50 55 58 59 57 62 64 59 61 66 70 75 80 78 73 67 67 55 54 48 45 48 45 44 44 45 44 42 41 39 40 37 36 34 35 37 37 40 41 43 49 49 50
22 24 29 34 37 38 38 40 43 45 46 50 53 55 57 59 60 57 56 55 55 56 57 59 58 57 52 46 47 44 43 47 46 42 44 44 44 45 44 43 39 40 41 38 38 38 37 38 40 41 46 51 51 53
29 30 32 34 34 33 34 35 37 39 44 51 56 59 59 61 62 59 50 50 48 41 34 41 49 39 37 43 46 43 48 48 46 41 44 44 45 45 46 45 41 41 43 42 43 40 39 40 42 46 50 53 53 55
29 32 33 36 39 41 40 38 38 42 48 56 63 67 68 68 65 61 54 49 47 30 29 61 39 31 38 44 48 49 52 53 49 47 44 41 45 49 51 49 45 44 43 45 44 44 43 44 47 50 53 55 55 59
35 33 34 34 38 43 50 52 55 59 66 71 74 74 70 69 65 63 61 42 57 59 57 68 71 53 41 47 49 55 58 55 51 45 37 39 44 51 53 51 48 46 47 47 48 46 45 47 52 55 55 57 59 60
37 36 37 37 40 44 47 51 56 63 69 72 72 72 70 68 70 68 71 67 62 56 57 60 62 58 44 44 54 59 58 56 47 39 40 44 46 52 54 52 51 51 51 53 52 51 52 55 59 60 61 61 63 65
39 38 36 39 42 45 49 51 53 59 64 66 69 72 75 83 80 76 77 65 63 66 65 59 50 48 51 48 59 61 54 54 50 45 46 46 50 52 53 52 55 55 56 56 59 59 58 59 61 63 64 66 69 72
41 41 39 38 37 44 49 50 53 57 60 64 69 73 80 76 70 82 78 73 72 67 54 51 52 52 52 54 64 60 57 57 53 51 49 48 46 50 51 57 60 59 59 60 63 64 64 65 66 67 69 72 75 79
37 39 40 39 36 36 40 44 49 54 56 62 69 78 86 84 82 68 62 55 61 54 56 49 48 56 59 64 68 64 59 56 56 54 56 54 50 51 53 59 64 63 63 64 66 67 68 69 70 72 75 77 80 82
29 31 34 36 36 36 35 35 37 40 47 52 51 53 63 61 54 57 67 70 65 64 64 62 58 60 61 66 68 65 63 63 62 61 62 58 55 56 59 61 64 65 67 69 70 70 72 73 75 76 78 80 82 85
25 26 28 30 33 34 34 33 36 41 45 50 53 51 53 51 53 55 60 69 71 64 62 60 59 61 65 65 66 68 69 67 68 67 67 61 58 61 62 64 66 69 71 71 72 73 74 76 79 81 83 84 85 88
20 20 22 25 26 26 26 28 30 36 40 45 52 54 52 44 50 46 51 62 59 55 60 60 61 67 68 67 69 71 71 70 69 69 64 61 63 64 66 68 69 70 69 70 73 73 76 78 80 81 83 87 90 92
20 15 16 20 21 23 25 23 21 20 21 26 34 40 36 31 36 38 41 45 47 46 51 54 56 61 65 66 67 69 68 68 69 66 62 62 63 66 69 69 69 68 69 71 72 75 77 79 82 84 88 91 94 96
20 20 19 15 15 17 18 20 22 23 24 25 26 27 29 32 38 41 42 45 44 48 48 48 52 57 61 62 64 66 67 68 69 68 65 65 66 67 68 70 69 70 73 74 76 79 81 84 87 90 92 94 96 99
13 17 21 22 21 20 20 20 21 21 22 24 25 28 30 33 34 36 39 42 45 46 48 49 50 51 53 55 57 60 61 59 61 63 64 66 67 67 69 71 70 72 74 76 79 82 85 87 90 93 96 98 99 100
11 14 17 21 23 24 25 26 25 24 23 26 28 32 34 34 36 38 39 40 41 42 44 47 46 46 49 50 52 55 57 59 60 62 63 64 65 66 69 71 73 75 79 81 84 87 90 92 94 96 96 97 101 105
11 13 14 16 18 18 19 22 25 28 30 31 31 32 33 37 40 40 39 39 42 44 45 46 48 50 50 50 52 53 56 58 61 65 67 70 72 74 76 79 80 82 84 86 88 89 90 92 96 99 102 104 107 110
22 19 18 19 18 18 20 23 24 27 31 34 36 38 40 41 43 45 47 48 49 49 50 51 52 52 53 54 56 58 59 60 62 64 66 69 71 73 75 78 80 82 84 87 91 94 97 100 103 106 108 109 109 108
30 29 28 27 27 27 28 29 30 31 31 32 36 41 44 46 47 47 49 50 53 57 59 60 61 62 63 64 66 66 67 68 70 72 73 75 77 80 82 85 87 90 93 96 99 102 104 106 107 107 106 106 103 102
39 39 38 37 37 36 36 38 40 42 43 42 42 42 43 46 51 56 59 59 61 63 65 66 68 69 70 72 74 75 76 77 79 80 82 85 87 89 91 93 95 97 99 101 103 101 100 100 100 100 101 101 102 101
46 48 49 49 49 48 45 44 44 45 47 49 50 50 52 52 52 53 54 56 59 62 66 69 72 76 78 79 80 80 81 81 83 84 86 88 91 92 92 93 94 95 95 95 96 97 97 98 97 97 98 96 95 96
49 49 53 56 56 55 54 54 55 54 54 53 53 54 55 58 60 61 62 64 65 66 66 67 69 71 73 74 76 77 79 81 83 84 85 86 88 90 91 92 93 93 94 93 94 95 96 96 95 94 93 91 90 89
55 57 57 56 55 57 57 57 57 57 56 57 58 58 58 59 60 61 62 64 66 68 69 70 73 74 76 78 80 81 82 82 83 84 85 85 86 87 88 90 91 91 92 92 90 90 91 89 87 87 85 84 82 81
59 60 59 60 64 64 63 62 61 60 63 62 61 62 63 63 65 67 68 68 69 70 72 72 73 74 75 76 77 78 79 80 82 83 84 85 85 85 86 87 86 86 86 85 84 83 83 83 81 79 78 77 75 75
55 58 60 61 62 63 63 65 65 65 64 64 66 68 68 69 69 69 70 72 73 74 74 74 74 74 75 74 75 76 77 78 80 81 82 83 82 82 81 81 81 80 81 81 80 79 77 76 75 74 74 74 74 73
48 50 51 52 54 55 56 55 54 55 55 56 58 62 64 67 68 68 69 70 70 70 70 70 71 71 72 73 74 75 75 75 75 75 75 76 77 77 76 77 78 77 77 75 75 74 73 73 73 72 71 69 68 66
43 43 46 47 49 49 48 48 50 49 50 51 52 55 56 57 59 60 61 62 62 63 64 65 66 67 68 68 68 68 69 69 70 70 71 72 71 71 71 71 71 71 71 71 71 70 69 69 67 65 65 65 64 64
37 39 40 40 41 42 44 45 45 47 48 48 49 50 50 52 53 54 55 56 56 58 59 59 59 60 61 61 62 63 64 64 64 65 65 66 67 67 65 65 65 66 66 65 64 63 63 63 63 63 63 63 63 62
36 36 37 38 39 39 40 41 41 42 42 43 44 45 47 48 48 49 50 51 51 52 53 53 53 53 55 55 56 56 58 58 59 59 59 59 59 60 60 60 61 60 60 60 60 60 60 61 60 59 58 58 58 58
34 35 36 35 34 35 36 36 36 37 37 37 39 40 41 41 42 43 44 44 45 47 47 48 49 50 50 51 52 53 52 53 54 55 55 55 56 56 57 58 58 58 58 58 57 57 57 56 56 55 54 52 52 52
32 31 31 33 34 34 33 33 33 34 33 31 33 36 38 37 38 39 40 40 41 42 43 44 44 45 46 47 48 48 49 51 51 52 52 52 52 52 53 53 53 54 54 54 53 53 51 51 50 50 49 48 47 46
28 27 29 31 32 30 31 32 32 31 31 32 33 34 35 35 35 36 36 37 38 39 40 40 41 41 42 43 45 45 46 46 47 48 49 49 49 48 49 49 48 48 48 48 47 47 46 46 45 45 45 45 44 43

GFSWCAN_250_spd_036.txt.gz
Wind_Speed
13 18 25 30 35 37 40 42 43 43 49 53 57 59 61 63 69 70 72 80 90 89 87 85 82 78 73 70 67 60 57 52 53 54 57 57 51 47 35 34 33 36 39 40 36 36 34 33 31 32 33 37 40 40
14 17 21 26 32 34 36 37 39 42 46 50 53 54 58 60 64 66 64 71 86 88 83 80 76 72 64 58 57 56 54 56 58 57 58 59 52 47 43 35 34 39 41 42 40 39 37 36 37 38 40 42 43 44
11 16 21 26 31 33 36 38 39 43 44 47 50 54 55 57 58 61 64 70 78 83 84 80 77 72 67 62 61 58 58 59 60 59 56 55 52 47 38 36 36 38 42 44 41 41 41 42 42 42 43 44 45 46
15 17 23 26 31 36 38 38 40 43 44 47 53 56 58 60 63 61 61 64 69 73 80 75 72 71 65 64 61 58 60 61 55 57 51 46 42 41 41 39 38 41 42 46 43 44 44 46 47 46 46 47 48 48
19 22 26 31 31 31 33 35 38 42 45 51 56 61 62 62 62 64 62 59 59 61 63 65 63 62 61 60 58 56 53 51 46 42 44 45 44 42 41 42 38 43 45 48 46 47 47 49 51 52 50 50 50 51
22 22 22 24 30 32 30 34 37 42 50 55 56 58 63 64 62 58 55 51 52 51 51 53 49 49 48 42 27 25 42 40 45 43 43 48 46 41 42 41 40 43 47 49 52 51 51 52 54 53 53 52 53 54
25 24 28 31 33 37 41 40 41 45 51 58 62 64 65 64 59 53 49 49 49 48 48 45 42 40 41 47 50 51 41 34 25 33 46 49 49 48 42 37 42 44 45 50 54 56 57 56 56 58 60 61 62 65
29 27 29 31 34 37 41 46 50 55 61 67 71 72 72 67 64 58 54 51 50 48 45 44 57 43 38 42 45 41 45 27 27 48 52 52 58 57 50 42 42 45 49 50 55 58 59 60 61 62 64 66 68 70
32 32 32 34 35 37 43 50 58 64 68 69 71 75 76 71 65 61 54 50 39 44 40 38 34 32 39 49 55 56 44 55 62 66 60 56 60 60 53 54 46 49 51 52 55 59 62 63 64 66 68 70 71 73
40 39 39 38 37 39 42 50 59 66 72 74 76 79 80 73 65 64 54 56 51 47 42 44 46 53 63 65 62 63 58 61 67 71 70 66 58 57 57 57 55 54 55 56 59 59 63 66 68 70 72 73 75 77
42 42 40 40 41 44 46 48 57 65 68 73 78 83 84 83 69 80 75 69 69 67 64 64 66 69 72 71 68 66 66 61 61 67 74 70 62 60 60 62 61 61 62 63 64 66 66 68 70 73 76 77 77 79
39 38 37 37 42 47 49 52 54 62 70 75 75 74 70 76 81 82 81 82 75 75 75 70 65 66 54 47 51 58 61 63 60 61 71 74 66 65 65 67 67 70 71 70 71 72 70 72 75 77 79 80 81 82
38 42 40 38 36 39 50 54 60 67 69 77 84 79 77 72 66 73 76 71 71 74 73 66 58 51 46 48 55 55 55 57 60 60 70 75 72 69 71 73 71 71 73 75 75 72 76 76 75 76 79 80 82 83
29 35 43 41 40 45 40 39 41 41 52 57 58 63 70 71 69 41 53 54 53 49 51 56 55 50 51 57 57 58 56 57 58 59 69 75 75 76 77 77 77 77 78 79 78 78 76 75 75 77 80 82 84 86
27 29 30 40 42 38 36 41 47 42 32 43 44 32 52 48 56 38 44 46 53 54 54 62 60 58 57 54 54 55 58 59 63 65 70 77 81 82 81 82 82 82 82 84 83 82 76 76 79 81 82 84 86 88
18 20 22 23 28 33 39 40 39 41 49 51 49 47 60 59 60 48 42 42 43 44 52 56 66 69 63 62 58 57 58 57 63 68 70 72 76 79 82 83 83 83 82 81 76 76 78 81 82 84 85 87 90 93
14 13 17 21 21 20 22 24 29 35 39 40 43 44 48 53 54 55 49 46 45 48 49 55 58 62 59 59 57 55 54 57 61 63 69 74 75 74 75 77 77 77 77 78 80 81 83 85 86 88 90 92 93 95
12 15 15 13 15 19 23 24 23 23 26 29 31 34 36 38 38 39 41 42 44 45 46 48 52 53 53 53 55 56 57 58 60 61 62 63 64 67 69 71 73 76 78 80 83 85 87 90 90 90 92 94 97 100
14 14 16 17 18 19 18 19 21 24 27 29 31 33 34 35 36 37 38 40 42 43 44 47 49 52 54 55 56 57 58 58 59 59 59 62 65 67 70 72 75 77 78 80 82 84 87 90 93 95 97 101 103 106
18 18 20 21 22 23 23 25 28 30 32 33 34 36 37 39 40 41 44 46 48 50 51 52 53 55 56 58 59 60 62 63 63 64 65 67 69 71 74 76 79 82 84 87 89 92 94 97 100 103 104 106 107 108
29 30 29 29 29 29 31 31 33 34 37 38 38 41 44 45 47 48 50 51 53 54 57 59 60 61 62 63 64 65 67 70 72 73 74 77 80 82 84 86 88 89 91 94 96 98 98 100 100 101 101 102 103 104
39 39 38 38 38 39 40 40 41 42 43 43 44 47 50 51 53 54 53 55 57 60 63 64 66 67 69 70 71 72 74 77 79 81 83 84 86 88 90 91 93 93 93 93 94 97 99 99 99 98 97 97 97 96
44 46 47 46 46 46 48 49 50 51 52 52 53 54 55 55 55 56 58 61 62 64 65 67 69 71 73 74 74 76 77 79 80 82 83 84 85 87 87 88 90 91 92 91 91 91 91 91 91 90 89 88 87 87
48 49 48 47 47 50 53 55 58 60 61 61 60 60 60 61 61 61 62 64 67 69 69 67 67 70 72 74 77 78 80 81 82 82 82 82 83 84 85 86 86 87 88 88 88 88 87 87 86 85 84 84 83 83
51 55 55 56 56 56 57 59 59 59 60 58 57 57 59 59 59 60 61 61 63 64 66 66 65 65 67 69 72 75 77 78 80 82 83 84 84 84 83 83 83 84 83 83 83 82 81 81 81 80 79 77 76 75
52 54 56 58 60 60 59 60 60 62 61 60 61 62 61 59 60 61 62 63 65 66 68 69 71 71 71 71 71 72 72 73 74 75 76 77 77 77 78 79 79 79 79 79 78 78 78 77 75 74 73 72 71 71
45 48 48 51 53 53 54 54 56 57 56 57 57 55 52 53 55 58 60 60 61 61 62 63 64 64 65 66 67 68 68 68 69 70 70 71 72 73 73 73 73 72 72 72 72 71 70 70 69 68 68 68 67 66
41 40 42 43 45 45 47 48 50 50 49 47 45 46 47 49 50 52 52 53 54 54 55 56 56 57 57 58 58 58 60 62 63 64 65 65 65 66 67 67 66 66 66 66 67 66 66 66 65 65 64 64 63 63
37 38 39 39 41 43 44 45 45 43 42 43 43 43 44 45 46 47 48 49 50 50 50 52 54 54 54 55 55 56 56 57 58 58 59 59 59 59 60 60 61 61 61 62 62 62 62 62 62 61 61 61 61 60
34 34 35 37 38 39 40 40 40 40 40 39 40 41 43 44 45 45 46 47 48 48 48 49 49 49 48 49 50 51 52 52 53 53 54 55 56 56 55 56 56 56 57 57 57 57 57 58 59 59 59 58 57 56
33 34 35 35 34 34 34 35 36 34 32 32 35 37 37 39 39 39 41 42 42 42 44 45 45 46 47 47 46 46 48 48 49 49 50 50 51 52 53 54 55 55 56 56 57 57 56 55 54 53 52 51 51 51
32 32 31 29 29 31 33 33 31 31 29 30 33 34 34 34 35 35 36 38 39 38 38 39 40 41 42 42 43 44 44 45 46 47 47 48 48 49 50 51 52 52 52 52 52 51 50 49 49 48 48 47 46 45
26 26 27 29 30 30 29 29 29 29 30 31 31 30 30 31 32 33 33 33 34 35 36 36 37 38 38 39 40 41 42 43 44 45 46 46 46 46 46 46 45 45 45 46 46 47 46 46 45 45 44 43 42 41

GFSWCAN_250_spd_039.txt.gz
Wind_Speed
8 14 21 28 33 37 41 44 47 49 52 54 56 62 67 69 68 68 76 80 78 85 94 97 94 92 88 85 80 76 73 69 63 61 60 60 52 51 48 47 47 44 43 40 37 33 33 38 34 35 40 39 38 36
8 12 16 23 29 33 36 38 40 43 46 49 52 56 60 59 59 64 71 70 75 88 91 92 90 86 85 89 85 78 70 67 60 58 59 56 52 50 49 48 49 46 43 40 39 33 35 41 41 39 41 42 43 42
7 12 18 21 24 28 31 33 36 39 41 43 45 48 50 53 55 61 68 75 81 86 90 91 89 87 85 84 78 69 67 67 60 57 59 57 51 46 48 47 49 44 40 37 37 37 39 43 44 43 43 44 46 47
10 11 15 20 24 28 30 34 38 40 42 43 42 43 47 51 57 62 67 72 77 83 86 86 86 82 80 79 75 66 64 59 58 57 56 53 48 50 51 51 48 43 39 36 37 40 41 43 45 46 47 48 49 51
15 16 19 22 26 30 34 35 37 40 40 39 41 45 51 54 55 58 66 71 72 72 78 83 81 80 78 71 64 63 59 59 56 55 52 49 49 50 51 50 41 38 38 40 40 39 41 45 47 49 50 51 53 54
18 18 22 25 25 27 31 32 33 36 37 40 44 49 50 51 56 61 60 61 62 67 73 79 80 78 72 69 66 63 61 60 56 55 54 51 50 52 49 45 36 40 44 45 43 42 41 44 48 51 52 53 55 56
19 21 21 25 28 27 27 28 32 35 40 45 48 50 54 58 59 56 55 59 62 62 66 71 74 75 73 68 63 61 61 57 53 51 54 52 48 49 44 38 41 47 49 47 42 41 44 46 46 49 54 56 59 62
22 21 21 22 26 28 29 33 37 41 45 49 53 56 62 64 66 68 67 62 59 61 61 65 70 70 70 66 63 60 57 54 49 37 38 43 46 50 40 38 47 52 53 52 50 46 45 47 49 52 53 56 60 63
24 25 28 28 30 32 35 39 43 46 51 54 56 60 63 67 66 63 62 63 61 59 56 51 50 53 55 57 56 48 42 41 36 37 34 38 35 35 43 50 45 53 57 58 57 61 62 60 59 57 56 58 60 63
29 30 30 32 34 37 41 46 50 53 56 59 62 65 64 61 56 54 51 49 47 47 49 47 46 43 41 41 37 34 30 31 34 44 47 38 39 49 54 62 63 62 62 63 63 64 66 68 70 68 67 67 67 68
34 36 32 30 35 40 46 51 55 58 59 62 67 67 63 61 56 52 50 49 46 43 43 42 41 48 53 46 51 50 41 39 37 49 55 51 53 54 55 55 58 58 61 67 70 71 72 73 71 71 74 76 77 76
39 41 41 41 44 47 53 58 61 65 64 63 65 60 58 58 59 58 57 55 55 53 54 58 62 60 58 47 53 58 64 72 69 62 58 63 64 70 73 71 72 72 71 72 74 77 79 82 81 80 81 81 82 83
40 42 45 48 48 54 55 61 63 68 67 67 68 66 62 60 58 57 53 52 51 58 60 68 70 65 66 60 67 73 81 77 68 63 58 64 67 68 73 78 81 81 83 87 85 84 86 87 85 85 84 83 85 86
37 34 39 43 51 55 56 62 65 65 67 72 67 66 61 54 51 50 50 51 53 56 60 56 77 62 68 66 69 74 70 68 64 61 63 68 71 74 77 82 85 83 82 85 88 91 93 92 91 88 87 90 91 94
34 32 32 33 34 42 49 56 57 58 63 66 65 66 61 59 59 60 61 61 60 54 51 53 60 64 68 69 61 62 63 60 64 69 70 74 76 72 70 72 76 79 82 84 83 86 90 93 94 93 94 97 98 98
23 31 37 28 33 37 40 38 41 48 59 59 61 60 63 62 64 60 64 62 67 64 64 61 62 57 59 64 67 62 58 60 62 66 68 66 67 68 72 72 71 74 78 80 82 86 91 94 96 98 100 98 96 94
30 31 26 18 13 15 24 29 33 27 39 45 56 53 55 54 69 62 65 61 64 67 50 57 49 66 50 49 57 67 67 65 63 63 66 70 69 66 65 65 67 68 73 78 82 85 86 87 88 90 91 90 89 91
27 28 34 39 38 29 23 23 22 25 30 29 31 21 39 30 26 32 32 36 40 37 38 47 46 45 54 58 58 60 68 73 73 75 76 76 73 72 69 68 68 69 71 73 75 78 80 83 84 86 88 89 91 92
20 24 26 29 34 40 40 37 35 36 42 41 42 37 42 42 35 42 45 52 46 53 59 51 53 57 56 56 59 59 60 65 69 68 69 72 73 71 71 73 74 74 76 76 77 79 81 83 85 87 89 91 94 98
21 21 21 23 25 28 33 37 39 45 48 51 53 58 47 48 52 52 51 53 56 58 60 59 56 53 54 56 58 61 64 66 67 68 70 70 70 71 72 74 75 76 77 79 81 83 85 87 90 93 96 99 101 102
22 24 26 26 27 30 31 31 33 36 38 41 43 47 50 49 49 49 49 49 51 52 55 57 57 58 58 59 60 62 64 65 66 67 69 71 72 74 76 77 79 81 84 86 87 90 92 95 96 97 98 99 99 99
29 29 30 31 32 34 37 38 39 39 41 43 44 46 48 49 51 52 52 54 54 55 57 58 60 60 62 63 64 66 67 68 69 70 72 74 76 78 79 81 83 85 87 88 89 90 91 93 94 95 97 98 98 99
38 38 38 37 38 39 41 42 45 47 49 51 53 55 56 57 59 60 60 60 60 60 61 63 65 67 69 70 71 73 74 75 77 77 78 79 80 80 81 82 83 84 86 88 90 93 94 94 95 96 95 95 93 90
40 42 41 40 41 44 48 51 52 54 55 56 57 59 60 60 62 63 64 65 65 65 66 69 72 75 76 77 78 78 79 80 83 84 84 84 85 84 84 84 85 85 87 88 89 91 91 91 90 89 88 87 86 85
42 44 47 48 48 49 51 53 56 57 57 58 59 59 60 60 63 61 59 59 60 61 64 66 69 71 73 74 76 77 78 78 78 78 79 80 81 83 84 85 86 86 85 85 85 85 84 84 83 83 81 80 80 79
47 49 49 52 54 55 55 57 59 61 61 63 64 63 62 63 64 63 62 61 62 64 66 68 70 72 73 75 77 78 78 77 77 78 77 76 77 76 76 76 76 77 77 77 77 77 76 76 75 75 75 73 73 73
49 50 51 52 53 56 58 59 58 58 58 59 58 57 56 54 52 52 53 56 58 60 62 63 65 65 65 64 64 64 63 63 63 63 64 65 65 66 66 67 68 69 70 70 70 70 70 70 69 70 70 69 68 67
43 43 44 45 46 48 49 49 49 50 51 51 50 50 49 49 48 48 49 50 51 52 54 54 54 54 54 55 56 57 57 57 57 58 59 61 62 63 63 63 63 63 64 64 64 64 64 64 64 63 63 63 62 60
42 42 43 43 44 45 45 46 45 45 45 44 43 44 43 44 44 45 45 45 46 47 48 48 48 49 50 50 51 52 52 52 52 52 53 53 54 56 57 57 58 59 59 59 59 60 60 60 60 60 60 59 58 57
38 37 39 40 41 41 42 42 41 41 40 41 42 41 41 42 42 42 42 43 43 44 45 44 44 45 46 46 46 47 48 48 48 49 49 50 51 51 53 53 53 54 55 56 57 57 56 56 55 54 54 54 54 53
34 36 36 36 37 36 36 36 37 36 35 35 35 36 37 37 38 39 39 40 41 41 41 41 42 41 42 43 44 44 45 46 46 47 47 48 48 49 49 50 51 52 53 53 53 53 52 52 51 51 51 50 49 49
32 32 31 29 29 29 32 32 32 30 29 29 31 32 32 33 34 34 34 35 36 37 37 38 38 38 38 38 38 39 40 40 40 41 43 44 45 47 47 48 49 49 50 50 50 50 49 49 48 47 47 46 45 45
27 26 25 26 27 29 29 29 30 29 29 30 29 29 30 30 31 31 32 32 32 32 33 33 33 34 34 35 35 36 37 38 39 40 41 41 41 42 42 42 43 44 44 45 45 46 46 46 46 45 45 44 43 41

GFSWCAN_250_spd_042.txt.gz
Wind_Speed
3 5 10 17 24 29 35 38 40 42 44 46 46 51 56 60 62 67 69 72 74 77 87 90 87 87 86 84 80 80 83 75 68 64 59 55 54 49 47 46 49 48 49 48 50 45 41 43 38 38 37 37 36 33
3 7 10 15 20 25 29 32 36 38 41 43 45 49 53 53 58 60 62 69 73 78 86 90 87 87 83 85 86 87 78 73 68 65 59 55 56 54 50 49 49 49 49 51 49 45 44 43 41 38 40 39 38 37
6 9 11 15 19 24 29 32 34 38 41 42 43 46 47 48 52 56 64 69 70 72 79 89 89 89 84 83 86 84 79 73 67 68 67 64 62 55 51 50 53 56 53 51 46 44 46 44 42 39 39 39 38 40
7 10 14 15 17 21 25 28 30 33 36 37 39 38 38 41 48 53 60 65 67 72 76 86 89 89 86 86 81 80 79 72 68 67 64 62 60 59 56 55 55 55 53 46 42 42 49 44 41 40 40 41 40 41
11 11 15 19 21 21 22 25 27 29 31 33 34 34 36 40 45 51 57 63 70 73 74 78 84 87 87 82 77 77 77 74 70 67 65 59 56 57 56 57 54 52 47 45 42 49 45 43 40 42 42 41 41 43
13 15 17 21 24 27 28 29 31 32 34 35 36 38 40 44 48 50 56 62 69 71 76 79 83 86 85 82 77 75 73 73 70 67 63 62 61 59 55 53 53 50 46 41 45 49 47 43 42 46 43 42 43 43
18 19 20 22 24 25 27 29 31 33 35 37 40 42 43 46 49 51 55 60 69 71 72 72 77 80 82 82 79 73 68 64 65 63 63 62 60 57 54 49 51 46 47 46 48 48 48 49 50 50 48 47 45 46
21 21 21 23 24 24 25 26 28 30 31 34 38 42 46 48 50 56 60 61 61 65 68 69 75 80 79 75 72 68 66 63 60 60 57 56 55 57 56 51 48 48 50 49 52 48 49 52 54 57 57 56 57 60
22 23 24 25 26 28 29 30 30 32 32 34 37 40 45 51 53 55 59 60 60 59 61 66 72 75 74 72 65 77 71 67 63 59 59 59 58 56 50 49 49 52 54 52 54 57 57 55 56 58 60 60 65 67
23 24 26 29 30 32 32 33 34 35 37 38 41 44 47 48 52 55 58 59 58 57 59 63 68 71 72 76 68 64 69 67 61 58 59 60 55 52 50 46 47 51 52 55 61 66 66 65 61 58 64 67 69 77
25 25 25 27 29 32 34 37 38 39 41 43 44 45 46 51 53 55 57 58 57 58 58 59 59 64 70 72 71 68 65 59 56 55 56 55 53 52 48 44 47 49 52 57 59 61 66 71 70 70 68 71 74 77
29 29 29 30 30 30 32 35 37 39 40 40 43 45 48 51 52 52 53 56 55 52 51 50 51 54 57 59 60 61 60 57 60 49 41 44 44 42 42 51 60 62 66 65 63 65 66 68 73 77 77 77 80 85
33 33 34 36 39 40 40 41 42 44 45 45 47 49 50 49 47 48 45 43 42 40 39 42 45 47 48 45 43 47 44 41 43 44 48 45 44 46 60 67 66 68 70 70 73 76 77 78 79 81 84 86 91 95
29 31 33 36 37 40 45 46 46 50 50 53 51 49 46 47 48 48 45 44 44 41 37 38 38 43 46 49 53 50 40 41 47 56 55 53 54 63 70 75 74 78 79 76 79 78 79 81 84 84 87 93 98 101
24 27 28 33 30 37 43 47 46 45 51 53 51 53 53 52 50 49 51 52 51 52 55 55 54 54 56 59 61 56 53 55 53 59 65 62 64 70 74 77 82 84 79 79 78 80 84 86 91 95 96 93 94 93
15 16 13 17 20 25 31 40 36 40 49 50 48 49 48 49 50 54 54 53 52 53 54 54 54 58 63 65 63 63 66 66 62 64 72 74 79 80 80 81 83 87 86 86 86 84 85 89 90 91 94 91 86 86
15 12 14 16 15 19 20 22 24 32 32 43 43 45 53 50 52 50 51 53 52 52 55 55 60 66 66 71 74 71 74 77 73 73 76 80 82 89 92 89 88 89 92 93 92 91 87 83 86 93 90 87 86 86
10 9 7 11 14 24 26 24 25 30 13 29 32 23 44 33 48 47 46 50 52 53 40 43 49 55 67 72 77 76 76 82 80 77 78 82 81 73 75 82 83 84 86 87 87 84 85 92 91 91 92 91 89 90
29 23 24 23 14 9 9 10 14 23 17 19 21 25 19 29 15 29 19 29 36 31 42 45 35 40 58 52 61 59 62 66 59 59 65 69 72 73 75 78 81 84 90 91 91 92 93 93 93 92 92 92 92 93
32 32 31 32 27 28 25 23 30 21 23 36 30 34 38 31 35 32 31 31 32 35 40 48 47 52 50 46 51 59 58 60 66 76 72 74 77 77 77 77 77 79 81 83 86 88 90 91 92 92 92 92 93 95
23 24 30 39 37 33 33 34 35 35 32 33 38 37 42 45 47 43 48 48 47 51 49 49 49 57 60 60 73 72 71 72 74 77 79 82 78 78 78 79 80 81 82 83 85 87 88 90 92 93 93 93 94 95
29 29 30 30 31 33 34 37 39 43 44 46 47 48 50 51 57 58 59 60 65 65 64 64 65 63 64 65 66 67 68 69 70 72 73 74 75 77 78 79 80 81 83 84 86 87 88 89 91 92 94 95 96 96
30 32 33 36 38 39 38 38 39 40 42 43 46 47 49 51 54 57 59 60 61 61 62 65 67 67 67 68 68 70 71 72 72 72 73 74 75 76 77 79 81 83 84 86 87 88 90 92 94 94 94 95 95 96
38 40 40 40 41 42 43 44 46 47 49 51 54 57 59 61 62 64 65 66 67 68 69 70 71 72 73 74 76 76 77 77 78 79 79 80 82 84 86 87 88 89 89 89 90 91 91 91 91 90 90 89 89 88
40 40 42 44 45 46 48 51 52 52 54 57 59 60 62 64 67 70 72 74 76 77 76 76 76 76 77 78 80 80 80 81 82 84 84 84 85 85 86 85 86 86 85 86 86 85 84 84 84 83 82 82 81 81
46 47 47 49 52 54 55 55 58 60 63 65 67 68 67 66 64 65 65 65 65 64 65 66 68 70 72 74 75 76 76 77 77 78 79 80 81 81 81 81 79 78 77 76 76 77 77 77 77 77 77 76 75 74
54 53 54 56 55 58 59 62 64 65 67 69 69 68 67 65 65 63 60 58 57 57 57 58 60 62 63 64 65 66 66 67 67 66 66 66 66 67 67 68 69 69 70 71 71 72 72 72 71 71 71 70 69 69
52 53 55 56 58 60 60 62 63 65 65 65 64 62 58 56 55 54 55 54 54 53 53 53 53 53 54 54 54 54 55 55 57 57 58 59 60 61 62 63 64 64 64 65 65 66 65 65 65 65 64 65 65 63
50 51 52 53 53 50 49 52 55 57 58 58 57 56 55 54 53 51 51 51 51 50 50 49 49 49 49 49 49 49 50 50 50 50 51 52 53 55 55 56 57 58 58 58 58 58 58 59 60 61 61 60 60 59
47 47 46 45 44 45 49 50 50 51 50 49 50 50 49 48 47 46 46 45 44 43 43 43 44 45 45 46 46 46 46 46 47 48 49 49 50 51 51 52 53 54 55 55 55 55 56 56 56 56 56 56 57 56
41 40 40 41 43 43 43 42 41 41 41 42 42 42 41 40 39 39 40 40 40 40 40 40 41 42 42 43 43 44 44 45 45 45 46 47 47 48 49 49 49 50 50 50 51 51 51 52 52 52 51 50 50 49
38 39 39 39 38 36 35 35 36 35 33 33 33 34 34 34 34 34 35 35 35 36 36 36 37 38 38 39 39 40 41 41 42 42 42 43 43 44 45 46 46 47 48 48 49 49 49 48 47 47 47 46 46 45
35 36 35 34 32 32 32 32 32 31 29 28 29 30 30 30 31 31 31 31 32 34 34 34 35 34 34 35 35 36 37 37 38 39 41 41 42 42 43 43 44 44 44 44 44 44 44 44 44 43 43 42 42 42

GFSWCAN_250_spd_045.txt.gz
Wind_Speed
16 13 11 10 15 18 23 28 32 35 39 41 42 45 48 55 54 51 53 59 67 74 79 86 93 90 87 84 82 81 85 82 78 73 68 63 63 60 57 49 47 44 40 41 40 40 38 47 44 46 42 43 37 35
10 7 6 9 13 18 25 30 33 36 38 40 42 44 46 47 47 49 54 58 69 77 82 88 91 90 88 85 86 85 80 81 76 76 69 64 58 56 51 45 42 41 43 44 47 43 43 45 48 46 46 43 39 38
6 1 8 10 14 19 26 30 32 33 35 36 38 40 40 41 44 47 52 57 66 78 80 86 93 94 91 87 85 82 81 76 71 68 67 65 59 53 46 44 47 46 46 48 48 47 47 46 46 50 44 41 41 38
3 4 12 15 17 21 24 26 28 29 30 31 33 34 37 41 41 46 52 58 68 78 80 85 92 97 94 87 82 82 82 76 72 68 64 59 54 54 54 53 49 50 51 52 51 47 48 49 51 46 42 42 42 42
4 7 14 19 20 22 24 26 27 29 31 32 34 35 39 41 43 47 51 58 66 74 79 83 89 95 94 89 85 84 82 78 73 67 60 58 57 55 54 54 52 52 53 54 51 54 48 50 52 48 42 46 47 45
7 10 12 20 22 23 23 25 26 28 30 32 34 36 37 38 41 45 50 57 65 73 78 79 85 94 92 88 84 83 83 82 76 71 65 59 56 56 56 51 50 50 51 52 51 52 53 50 47 43 46 48 52 52
10 13 14 18 22 25 25 26 27 28 30 31 33 34 35 37 41 46 53 59 64 69 71 72 79 90 92 88 85 83 80 76 74 71 65 61 61 60 55 51 52 53 52 53 51 53 55 56 53 50 47 49 54 53
11 13 17 18 20 22 27 28 29 30 31 32 33 34 34 37 42 46 48 53 59 65 69 72 72 84 90 88 86 83 77 75 72 67 64 60 62 61 58 55 56 58 58 55 53 54 56 55 54 51 52 52 56 52
16 16 17 17 20 22 24 26 28 30 32 34 36 38 40 42 45 47 49 53 56 62 68 68 74 83 88 87 83 78 75 70 67 64 62 62 62 61 58 58 59 60 58 58 59 59 58 55 55 57 59 54 55 55
18 17 18 19 19 21 23 25 27 29 30 29 30 31 35 38 42 48 50 53 56 62 67 73 74 81 83 85 80 77 73 70 65 62 64 61 60 59 58 57 59 60 59 59 60 59 58 56 59 62 64 62 61 63
23 21 20 20 19 19 20 22 25 27 27 29 30 31 32 35 40 40 45 48 53 59 62 64 65 69 77 79 76 75 72 73 69 66 64 60 59 58 55 56 59 61 61 61 60 57 55 59 60 60 62 65 66 67
30 29 27 25 23 21 21 21 23 26 28 29 27 25 24 25 29 33 41 46 49 50 55 62 61 64 68 75 77 76 79 82 77 73 70 65 61 59 58 61 62 60 60 62 63 56 60 60 60 61 65 67 68 73
31 31 30 31 32 30 27 23 25 32 34 35 36 37 37 34 30 27 30 44 54 56 55 54 55 58 64 72 75 76 76 79 66 64 68 64 65 64 63 61 61 60 62 65 67 63 63 67 69 71 73 74 77 79
38 30 28 31 30 30 29 29 26 30 34 34 37 39 43 47 48 50 49 49 51 49 46 47 50 55 62 66 70 74 72 66 64 64 65 59 59 66 66 64 67 63 65 68 65 59 65 64 64 71 73 77 82 84
35 26 27 27 32 31 31 31 29 35 40 41 39 39 39 37 37 36 35 36 35 37 41 46 49 53 56 58 62 65 66 65 64 65 66 65 64 65 68 69 67 60 62 64 64 67 71 73 77 81 85 87 88 92
24 32 25 27 28 36 31 29 34 37 41 40 40 40 40 39 39 40 43 43 40 37 37 39 41 43 47 51 55 58 60 61 61 62 68 70 70 66 61 63 64 66 67 65 69 72 75 82 87 91 93 96 99 101
25 19 25 27 28 25 27 35 29 35 38 36 38 39 38 38 39 38 39 41 42 42 42 43 43 45 45 46 48 49 50 53 62 63 67 66 67 69 71 70 71 70 70 72 76 79 83 89 92 95 98 102 104 105
16 20 17 17 17 18 23 24 24 25 30 29 30 25 32 34 36 36 35 33 39 42 42 44 47 47 47 50 54 55 59 62 63 67 68 69 69 70 72 75 77 76 79 80 85 88 88 93 96 89 94 99 99 99
3 6 10 10 18 8 10 19 9 13 13 6 20 22 32 34 34 34 34 32 38 36 42 45 42 50 52 54 55 61 65 66 68 72 75 74 75 79 79 80 79 79 82 85 82 84 89 89 91 93 98 101 100 100
8 10 1 5 15 2 3 6 5 9 12 4 9 13 10 8 18 13 27 38 44 27 32 40 41 46 51 54 53 50 55 66 76 73 69 71 77 81 83 81 83 86 92 83 84 87 93 97 97 96 96 95 96 97
16 14 18 12 18 12 8 16 21 11 18 18 13 17 25 30 25 25 25 28 30 33 34 34 38 37 37 44 47 61 58 57 63 61 62 73 81 83 86 87 87 90 93 93 99 101 101 99 96 96 96 96 96 97
14 17 22 23 26 32 24 22 24 25 25 33 32 34 33 31 39 44 43 44 44 47 48 51 52 52 53 55 56 58 61 65 68 69 74 77 78 82 91 92 95 95 96 95 97 95 93 93 93 93 94 95 96 96
20 19 20 20 22 28 31 35 37 38 39 39 41 45 44 47 49 50 53 56 58 59 60 61 61 66 70 70 70 69 72 73 74 77 79 79 80 81 81 82 84 85 86 87 88 88 89 90 91 92 92 92 91 92
31 32 33 34 34 34 36 36 38 39 41 42 44 46 48 50 51 54 56 58 61 64 67 68 68 69 70 71 73 73 72 72 73 74 74 76 77 78 80 81 83 84 84 85 85 86 87 87 88 88 88 89 88 87
38 38 39 39 39 41 42 44 45 47 50 52 54 56 59 61 63 65 67 69 71 72 71 70 70 70 70 70 72 74 74 75 76 76 76 76 77 77 77 78 79 80 81 82 84 85 84 83 82 82 82 81 82 82
46 46 47 48 49 49 48 49 50 52 55 57 59 61 63 65 67 67 66 66 65 65 65 66 66 67 68 69 71 72 73 74 75 75 75 76 77 77 78 78 77 77 78 77 77 76 76 76 76 76 75 75 75 76
49 50 51 52 53 54 55 55 56 59 62 64 66 67 67 67 66 66 65 59 55 53 52 52 52 54 55 56 57 59 60 61 62 63 64 65 66 66 66 67 67 67 67 67 67 68 68 69 70 70 70 69 70 71
51 52 54 55 57 58 59 60 63 65 66 67 68 67 66 66 63 59 57 56 55 52 51 49 47 46 46 47 48 49 50 51 53 54 55 56 57 57 58 58 59 60 60 61 61 62 62 63 63 64 64 64 63 63
56 57 59 60 61 63 64 66 67 68 69 67 64 62 60 59 60 59 56 53 51 50 49 47 45 44 44 44 44 44 45 45 45 46 47 48 49 49 50 51 52 52 53 53 54 54 55 56 57 58 59 59 59 59
58 59 59 59 61 62 62 63 62 58 54 53 52 52 52 52 50 48 48 46 45 44 44 44 44 43 43 43 43 42 43 43 44 44 45 45 46 46 47 48 48 48 49 49 50 51 53 54 54 55 55 55 55 55
52 50 49 49 50 50 50 48 46 45 45 44 44 45 44 43 42 41 41 41 40 41 41 41 42 42 42 41 41 41 41 42 42 42 43 43 44 44 45 45 46 47 48 48 48 48 48 49 49 50 50 50 50 50
41 41 41 42 42 41 41 41 40 38 38 39 38 36 36 37 37 38 38 38 38 38 37 37 38 39 39 39 39 39 39 39 39 39 39 40 41 42 43 43 44 44 44 45 45 46 46 46 45 45 45 45 45 45
36 37 38 37 37 37 36 36 35 34 33 32 32 34 34 35 35 35 35 35 35 35 35 35 35 36 35 35 35 36 36 36 37 38 39 40 40 41 41 41 42 42 42 42 42 41 41 42 42 42 42 42 41 41

GFSWCAN_250_spd_048.txt.gz
Wind_Speed
28 24 20 18 14 14 16 20 23 27 32 35 39 43 46 50 52 55 57 56 56 55 57 64 75 83 93 99 101 94 96 92 83 81 77 72 66 64 63 59 55 55 53 48 47 41 37 47 44 40 40 38 38 40
21 17 15 10 8 9 13 17 22 26 31 35 39 43 46 48 51 53 51 49 51 56 60 66 75 82 90 97 101 96 85 88 79 76 75 74 65 66 64 60 59 55 50 48 46 43 46 44 44 42 41 39 41 44
15 11 8 4 5 9 15 20 25 29 33 38 41 43 46 48 49 48 49 51 53 58 62 66 77 82 92 96 95 95 93 86 78 76 78 76 68 69 64 58 56 54 53 50 49 44 47 47 45 44 42 40 43 47
9 6 1 5 9 13 19 24 28 32 35 37 38 39 40 43 45 47 49 47 53 58 63 69 76 80 89 94 91 92 90 85 79 77 78 73 65 67 65 63 59 55 52 49 48 47 50 50 47 45 42 41 48 48
6 1 5 12 15 19 22 26 28 30 32 34 36 36 37 40 42 43 44 49 53 55 59 64 74 78 85 91 94 93 90 85 79 74 72 72 68 65 65 63 57 57 53 49 47 53 54 51 49 48 45 47 47 49
6 4 9 15 20 24 28 30 31 33 33 34 36 38 40 40 41 42 46 50 52 55 58 66 74 81 88 94 95 92 87 81 76 70 69 71 67 65 64 59 58 55 51 53 52 55 55 53 54 52 50 50 49 49
12 9 12 17 21 25 29 31 33 34 35 35 37 37 37 38 41 43 47 48 51 53 59 69 77 80 80 88 90 88 83 76 71 71 67 67 67 63 57 50 55 54 54 54 55 58 59 59 58 57 53 53 53 54
18 16 15 19 22 25 27 29 31 32 34 34 34 33 34 36 37 40 44 46 49 53 61 66 70 73 80 86 88 87 81 76 72 69 68 65 63 62 55 54 58 58 59 58 61 63 64 60 59 58 60 62 59 57
21 20 19 19 22 24 27 29 31 32 33 33 33 33 34 33 35 38 42 44 45 49 55 60 64 68 79 86 89 86 81 75 71 65 66 67 62 55 55 62 63 64 64 64 65 64 64 61 62 61 65 64 65 62
24 23 22 21 21 21 23 26 29 29 29 31 31 30 29 30 34 36 38 39 41 46 52 58 68 74 81 86 88 85 79 73 71 68 68 64 62 63 61 62 66 67 67 67 66 64 64 65 65 64 67 65 63 63
28 28 27 26 24 23 23 23 22 22 23 24 25 25 26 27 30 33 34 36 38 44 51 57 61 69 81 86 85 84 80 73 69 65 64 64 65 64 65 66 67 69 68 67 69 69 69 68 66 67 64 62 66 67
31 31 31 28 27 25 24 24 24 25 25 24 24 24 25 25 26 29 34 38 43 49 53 57 62 70 74 82 82 82 79 72 69 68 69 66 67 68 69 69 69 70 69 71 73 72 69 67 67 66 68 70 70 75
33 33 36 33 30 27 25 26 28 30 31 30 27 25 23 24 23 23 26 33 40 48 55 60 63 61 64 71 79 79 77 74 72 72 71 68 68 69 68 69 69 69 70 70 71 71 69 69 69 67 69 73 77 78
40 39 39 36 34 29 24 24 24 27 32 35 37 37 33 30 26 22 23 27 33 42 50 52 53 56 61 69 75 80 78 76 77 73 72 72 70 69 69 69 68 69 70 72 73 73 72 72 73 74 77 79 82 80
41 39 40 37 32 26 27 28 28 28 28 30 31 35 36 35 33 32 30 31 32 38 46 46 46 50 57 65 72 76 78 78 78 77 76 75 74 71 71 71 71 72 73 75 76 78 77 77 81 81 81 81 81 82
39 40 37 35 30 26 31 33 33 32 31 29 31 32 33 34 34 33 33 35 37 40 43 44 45 48 53 59 66 74 77 78 79 78 79 79 78 75 74 73 77 76 75 79 81 80 80 84 85 85 85 84 83 82
34 38 37 36 34 34 31 33 32 33 36 32 34 34 33 33 34 34 35 37 38 38 39 41 42 44 47 52 59 63 67 70 74 78 80 79 76 74 72 71 70 73 76 80 84 87 89 89 88 88 85 87 86 83
24 25 28 25 31 30 27 31 30 25 23 24 27 29 30 32 33 31 30 30 30 30 32 35 37 39 43 48 53 58 61 62 67 70 71 71 71 73 75 77 78 78 81 81 84 85 88 90 92 92 89 89 91 92
20 19 22 24 27 26 24 27 25 20 19 20 15 16 18 19 24 25 29 32 32 33 32 33 36 41 44 46 49 52 54 56 59 62 64 68 71 74 76 76 78 81 83 85 88 91 90 92 92 92 94 94 95 93
12 12 12 12 14 16 12 16 17 14 17 10 7 9 7 4 4 18 13 23 26 23 32 36 39 46 49 51 54 55 57 60 63 66 68 68 70 75 76 79 80 82 85 86 87 86 88 91 92 91 91 94 97 102
6 5 2 6 10 10 8 3 5 8 6 1 3 2 2 4 5 10 17 15 17 21 20 28 32 32 35 43 45 46 51 53 52 62 68 64 68 74 73 75 78 80 80 83 86 86 85 86 91 94 97 100 103 104
4 5 8 12 12 15 8 5 9 16 13 17 13 14 22 20 20 22 25 24 30 35 37 37 40 43 43 46 49 50 51 53 57 60 59 63 66 67 72 74 78 81 83 84 87 89 92 96 99 99 100 100 101 101
8 8 8 12 17 20 21 22 22 21 22 24 26 28 29 32 36 38 38 39 44 43 45 50 51 54 58 60 60 62 65 66 68 70 72 74 76 78 81 83 83 84 85 89 92 93 95 95 95 96 97 97 97 98
15 15 16 17 18 19 20 21 23 25 29 31 33 38 40 41 44 48 50 50 51 54 57 60 61 62 62 63 65 67 67 67 68 68 69 69 71 73 74 76 77 79 81 83 84 86 86 87 89 89 90 89 88 87
28 28 29 29 29 30 32 33 35 37 39 41 43 45 47 50 52 54 56 58 61 63 65 66 66 66 66 66 67 69 69 69 68 67 68 68 68 68 69 70 72 73 73 74 74 74 74 74 73 73 74 74 75 74
34 36 37 38 39 41 43 44 46 47 48 50 51 52 53 54 56 59 62 64 63 60 58 59 62 64 63 62 60 59 59 61 62 64 64 65 65 65 65 65 64 65 65 66 67 67 67 67 68 68 69 70 71 70
42 44 46 47 47 48 49 50 51 52 52 53 54 56 57 60 61 61 55 52 54 56 56 53 50 49 49 50 51 52 53 55 56 58 59 60 61 61 62 62 63 63 63 63 63 64 64 64 64 65 65 66 66 66
48 49 50 50 51 52 52 52 52 53 53 54 56 58 60 62 58 54 54 54 51 49 46 45 45 44 43 43 43 44 45 46 48 49 51 52 54 55 55 56 57 58 58 59 59 59 60 60 60 60 59 60 60 60
52 53 52 52 52 53 53 53 53 55 57 58 59 60 57 54 53 51 49 48 46 45 44 42 41 40 40 39 39 39 39 39 39 40 41 42 43 44 45 46 46 48 49 49 50 50 51 51 52 52 53 53 54 54
54 53 53 53 54 55 56 57 59 61 59 57 55 51 48 47 47 46 45 44 43 41 40 39 39 38 37 37 37 37 37 38 38 39 39 39 40 41 42 42 43 44 44 45 46 47 48 49 49 49 49 50 50 49
55 55 54 54 55 55 55 54 53 51 50 48 45 45 44 43 42 40 39 38 37 37 37 37 36 36 36 37 37 38 38 37 38 37 38 38 39 39 40 41 42 43 43 44 44 44 45 45 45 46 46 45 45 46
55 56 54 53 50 48 47 45 44 43 42 41 40 39 38 36 36 36 36 36 35 35 35 35 36 36 36 35 35 35 35 35 36 36 37 37 38 39 39 39 39 39 39 40 40 41 41 41 41 42 42 42 42 42
47 46 45 44 42 41 40 39 38 39 36 34 33 34 34 34 34 34 34 34 34 34 34 34 34 33 33 33 33 34 34 35 35 36 36 36 37 37 37 37 37 38 38 38 38 37 37 38 38 39 39 38 38 38

GFSWCAN_250_spd_054.txt.gz
Wind_Speed
43 42 41 39 38 39 37 35 36 36 37 37 39 41 42 45 46 50 54 54 52 53 56 54 57 61 60 68 67 64 73 67 68 72 74 83 90 90 87 86 89 92 86 77 73 71 62 62 65 63 57 61 56 54
35 34 33 33 31 28 28 28 28 27 29 31 34 37 38 40 43 44 44 45 50 54 51 55 56 59 65 66 67 69 57 61 63 67 74 79 88 85 80 77 81 81 74 69 72 69 65 65 68 66 65 60 58 57
30 29 27 24 20 19 19 19 19 21 23 25 28 32 35 38 39 39 40 43 47 50 55 56 58 59 64 64 60 55 50 53 57 58 67 75 82 81 77 75 76 75 74 69 70 67 63 64 64 67 67 61 61 60
25 22 17 13 12 11 12 12 14 17 19 22 25 27 31 34 37 39 41 43 46 51 55 57 58 60 54 55 52 50 51 53 56 70 73 71 72 73 73 74 75 73 69 66 66 68 67 64 60 73 68 63 61 60
17 11 8 7 4 3 5 7 11 14 18 23 26 29 34 37 39 41 43 46 48 49 52 51 50 48 51 50 50 50 50 55 57 51 56 59 66 73 73 73 67 67 65 63 56 65 71 68 67 67 64 62 64 63
7 4 3 2 2 2 6 9 12 15 18 22 27 30 31 32 33 34 36 39 40 41 44 44 46 48 46 47 47 45 50 53 56 71 70 64 72 71 68 64 66 63 61 61 58 65 66 60 66 67 64 65 67 63
1 3 4 5 6 7 9 13 15 18 19 20 23 26 28 30 33 35 36 38 41 43 44 45 46 46 45 44 43 44 48 53 60 54 54 65 71 71 69 67 67 68 65 62 60 62 62 65 66 67 67 67 66 68
4 6 9 10 12 14 16 18 20 21 22 22 24 27 29 31 33 33 35 36 36 35 36 38 38 39 39 42 44 44 48 53 55 56 61 66 71 69 68 71 74 70 62 59 56 56 61 65 67 69 68 66 67 68
6 8 11 13 15 16 18 21 24 26 27 27 27 29 29 29 31 32 33 34 35 35 36 37 37 37 38 40 40 42 47 52 61 66 59 68 73 71 70 71 68 66 65 62 59 60 63 64 65 68 70 69 69 69
10 12 15 18 19 20 21 23 25 26 27 27 26 28 29 29 29 29 29 29 29 30 31 33 31 31 33 37 40 44 45 53 58 52 55 65 66 67 67 68 65 64 62 59 61 64 66 67 69 71 72 70 70 72
16 16 18 20 22 23 24 25 25 25 26 26 27 27 26 26 25 23 24 25 25 27 26 27 30 32 35 37 40 44 44 48 49 51 56 61 63 64 64 62 62 62 61 62 67 67 69 68 69 69 70 71 72 73
19 22 24 24 25 26 26 25 24 23 21 21 21 21 21 21 21 20 20 22 24 26 26 29 31 31 32 34 37 42 45 46 50 52 55 57 59 63 64 64 64 63 63 65 69 71 70 69 70 71 72 73 74 76
22 23 23 24 26 24 24 24 23 22 20 19 19 18 16 16 18 20 21 20 20 22 25 27 28 30 33 36 39 40 43 45 48 51 53 56 60 63 64 66 65 64 65 67 72 74 75 75 76 76 78 80 80 82
27 26 27 25 25 25 24 24 23 22 20 19 19 19 18 19 18 19 22 22 21 19 22 24 24 26 29 30 39 41 38 38 43 46 50 57 62 64 65 66 66 66 65 69 73 77 79 80 80 81 81 83 84 85
30 28 27 26 25 24 23 24 23 23 22 21 21 20 19 19 20 20 21 21 21 21 22 23 27 29 29 30 32 33 26 29 43 51 54 59 61 64 66 66 69 69 68 69 71 72 75 78 80 82 85 86 87 87
33 31 29 27 25 24 23 24 24 24 23 21 22 21 20 19 19 19 22 20 18 21 23 21 21 25 28 32 33 35 37 38 42 48 55 60 64 66 67 68 69 70 71 72 74 77 79 81 83 84 85 87 89 91
36 35 31 29 27 27 26 25 22 22 25 24 23 23 22 22 21 20 20 20 21 20 19 21 25 26 27 28 30 31 32 38 44 50 55 61 64 65 67 69 72 74 76 77 78 79 81 83 85 88 89 91 93 94
33 34 32 31 28 25 25 24 23 25 28 28 28 26 25 23 21 20 21 21 21 21 21 20 21 22 24 27 28 29 33 41 48 53 57 61 63 66 69 72 74 77 78 80 81 83 83 84 85 87 89 90 91 93
34 36 34 35 36 31 29 29 30 30 29 27 26 27 27 24 21 20 20 19 18 17 17 19 22 24 25 26 28 31 35 41 47 53 58 62 66 69 71 74 77 80 82 84 86 87 88 90 92 93 94 96 97 98
32 34 32 29 28 31 31 28 28 28 27 27 27 22 18 18 16 15 16 16 16 14 14 15 16 19 21 25 29 33 37 41 47 53 59 64 68 71 75 77 80 83 85 87 89 90 92 93 94 96 96 96 97 100
21 22 22 23 21 19 21 22 23 21 21 18 16 16 15 12 9 6 4 4 5 6 10 14 18 22 25 29 33 36 40 44 48 53 59 64 69 74 78 80 83 85 87 89 91 91 92 92 92 92 93 94 94 94
13 16 17 17 14 11 11 12 12 10 9 10 8 6 5 5 5 5 7 8 12 13 14 17 20 23 27 30 34 38 42 47 52 56 59 63 66 70 73 76 80 82 84 85 84 84 86 87 85 84 85 87 89 91
12 11 10 7 5 5 5 2 4 3 2 3 5 8 9 11 13 15 16 17 19 22 26 29 32 35 37 41 44 47 50 53 56 59 61 65 69 72 73 74 75 76 78 79 80 81 82 83 86 88 89 90 92 93
11 10 9 7 5 4 4 5 6 6 8 9 11 14 16 18 20 22 25 28 30 33 36 39 42 45 49 53 56 59 62 66 68 70 71 73 74 74 74 75 76 78 80 82 84 84 84 85 85 87 88 89 90 90
8 7 5 5 6 8 10 13 15 17 19 21 23 25 28 30 32 34 36 39 42 45 48 51 55 58 61 64 67 70 68 63 60 59 61 63 65 67 70 73 75 76 77 78 79 80 81 81 81 81 81 81 81 80
11 13 13 14 16 18 21 22 23 25 27 28 30 31 32 33 35 39 42 46 49 52 54 56 60 62 64 63 59 58 58 58 59 60 61 62 64 64 65 66 67 66 66 67 68 70 70 70 70 70 70 70 69 69
18 20 21 23 25 28 29 30 32 33 35 36 38 40 41 44 46 49 51 54 56 57 58 61 61 60 59 57 54 53 53 53 53 54 55 55 56 57 58 58 59 59 60 60 61 62 62 62 62 62 63 62 63 63
24 26 28 30 33 35 36 38 39 41 42 42 43 46 48 49 49 51 53 55 56 58 57 54 52 50 48 47 46 46 46 46 46 46 47 48 48 49 50 51 52 53 54 55 56 57 57 58 58 59 60 60 60 60
33 34 35 36 38 40 42 44 45 46 48 48 50 51 51 48 49 51 53 54 53 51 49 47 45 43 42 41 41 40 41 41 41 42 42 43 43 45 45 46 47 48 49 50 51 51 52 52 53 53 54 54 55 56
38 40 41 43 44 46 48 50 51 52 52 51 51 48 47 48 49 50 49 48 45 44 43 41 39 39 38 38 38 38 38 39 39 40 41 41 42 42 42 42 43 44 44 45 46 47 48 48 49 50 50 50 50 50
44 46 47 49 51 52 54 54 52 50 49 49 47 47 47 47 47 45 44 42 42 40 39 38 38 37 37 37 37 37 37 36 36 36 36 37 38 38 39 40 41 42 42 43 43 44 44 44 45 45 45 45 44 44
51 52 53 54 55 54 51 51 50 47 46 46 45 44 44 44 42 40 40 39 38 38 37 37 36 36 35 35 34 34 33 33 34 35 35 36 37 37 37 38 38 38 38 39 39 40 40 40 41 41 41 41 40 39
54 53 52 50 49 49 47 46 44 44 42 41 41 41 40 38 39 38 37 36 36 35 34 34 34 34 33 33 33 33 33 33 34 34 34 34 34 34 34 34 34 35 36 37 38 38 38 39 38 38 37 36 36 36

GFSWCAN_250_spd_057.txt.gz
Wind_Speed
40 40 41 42 44 46 48 51 52 53 55 57 57 59 61 63 65 65 65 68 66 63 55 54 55 59 63 64 63 66 79 77 73 63 59 60 66 72 74 80 82 92 100 101 92 92 82 82 81 80 64 62 64 62
37 39 39 39 40 41 42 43 44 45 46 47 48 49 51 54 57 58 60 62 62 60 57 53 53 58 57 58 64 67 68 66 56 53 52 58 62 74 71 75 81 87 91 98 83 82 88 86 82 81 73 68 69 67
33 31 31 32 32 31 31 31 31 32 33 35 37 38 40 43 45 46 52 55 52 53 53 53 53 54 56 57 56 58 56 48 47 49 55 60 63 69 71 68 74 80 87 82 72 80 83 87 86 83 78 75 73 70
26 26 25 23 21 21 22 22 21 22 24 27 29 31 33 35 37 42 44 42 44 49 49 52 49 49 51 50 49 46 44 40 48 55 54 57 58 66 69 73 75 74 77 78 71 73 74 74 78 77 75 71 71 70
20 18 16 14 11 10 10 12 13 15 17 19 22 26 28 30 35 38 37 41 45 43 45 48 43 44 43 42 44 42 43 48 53 52 52 53 53 64 68 69 68 68 70 70 68 72 71 69 64 67 66 66 71 72
13 10 7 6 6 3 1 4 8 11 13 16 19 22 25 27 29 30 31 31 30 34 36 37 37 37 38 40 43 44 47 51 51 49 50 48 51 58 63 63 65 69 73 70 66 68 63 61 59 61 62 65 70 73
8 7 7 7 5 5 6 8 11 12 12 12 15 17 20 23 25 27 29 29 29 28 28 32 34 32 32 34 38 42 46 46 43 47 49 48 51 55 59 61 58 57 59 62 64 60 58 60 58 59 61 62 65 68
9 9 8 7 7 10 12 14 16 17 18 18 19 20 22 24 25 24 24 27 29 32 35 36 38 41 41 41 42 45 46 43 44 45 45 41 53 60 58 60 62 64 63 62 60 58 57 60 60 56 60 63 66 68
10 9 9 9 11 14 16 19 22 23 23 22 21 21 22 22 25 27 27 27 28 29 31 33 35 37 38 38 37 39 41 39 43 42 45 50 47 53 54 59 63 64 62 59 57 56 54 54 58 60 60 61 65 68
10 12 14 15 16 18 19 22 24 25 26 28 28 26 25 25 25 25 27 29 29 29 29 29 30 31 31 31 34 38 37 38 36 41 47 49 41 44 54 59 61 63 61 58 56 55 55 56 54 59 64 66 68 70
13 15 16 19 21 22 22 23 24 24 25 27 26 25 25 24 26 27 27 27 26 27 27 29 30 31 32 32 32 30 30 31 34 40 42 45 55 50 55 56 62 62 60 58 58 58 61 65 64 64 67 67 69 71
16 17 18 20 22 25 27 27 27 27 26 24 24 25 25 25 24 24 24 25 25 25 25 26 26 27 27 26 25 25 26 29 33 38 42 44 40 42 49 57 62 62 62 63 65 66 67 65 65 65 67 69 71 72
17 17 19 21 23 25 26 27 28 28 28 27 26 24 24 22 22 22 23 23 23 23 23 23 27 27 28 28 29 31 29 29 34 37 33 36 36 41 48 57 63 64 65 66 66 65 64 65 67 68 70 73 75 76
19 19 20 22 24 26 28 29 28 27 26 25 22 20 19 18 19 20 21 21 21 21 22 23 23 24 23 26 29 30 30 31 32 32 34 39 42 46 52 57 63 65 66 66 66 65 65 66 67 69 73 77 79 79
18 19 22 23 24 24 24 25 25 24 24 23 21 20 19 19 18 19 19 21 21 21 18 18 19 19 19 19 19 21 22 24 27 32 35 37 40 46 52 59 63 65 67 67 67 66 67 68 70 72 75 79 81 83
23 23 22 22 22 22 24 25 26 26 25 25 23 20 19 18 17 17 19 20 19 20 19 18 17 18 16 16 14 14 16 22 26 30 35 38 40 44 50 58 64 68 69 68 69 70 71 72 73 75 77 80 83 85
29 28 26 26 25 23 24 25 27 26 26 27 27 26 23 19 18 21 22 19 23 24 20 18 18 16 16 14 13 15 12 15 17 22 32 40 44 47 53 61 67 69 71 72 72 73 74 76 77 79 82 83 85 87
36 34 34 33 28 26 21 24 28 29 30 30 29 28 28 24 18 16 22 23 22 24 23 20 18 16 13 12 12 14 14 16 19 23 29 34 37 45 53 59 64 69 71 73 74 76 79 80 82 84 87 88 89 90
38 35 32 29 29 28 27 25 26 30 30 31 31 30 30 28 27 26 23 22 18 13 15 15 12 10 8 9 12 15 17 21 26 30 35 40 44 46 51 58 64 68 71 74 77 79 81 82 83 84 86 86 89 90
41 39 37 33 32 35 37 37 34 33 32 30 27 26 24 22 21 20 19 17 16 14 12 9 8 9 11 13 16 19 22 25 28 32 37 40 44 48 51 55 60 64 67 70 73 76 78 80 81 83 85 86 87 89
32 33 33 30 29 28 28 27 28 28 28 27 26 27 25 23 21 19 16 12 12 12 8 5 7 11 14 17 21 24 28 30 33 37 40 43 47 51 54 58 61 64 67 70 72 75 77 79 81 83 85 87 88 89
24 23 24 25 24 21 21 21 20 20 20 18 18 18 16 16 15 15 15 15 15 16 18 19 21 22 24 27 29 31 33 36 37 40 43 47 50 54 57 60 64 67 69 70 71 72 74 75 77 78 78 80 82 84
16 15 14 16 14 12 11 13 12 12 12 11 11 11 10 10 10 11 11 12 14 16 19 22 25 29 32 36 39 42 46 49 52 55 57 59 60 62 63 64 65 66 68 70 71 73 75 77 79 81 82 84 86 87
10 10 8 7 7 7 8 10 10 10 10 10 10 11 13 14 17 19 21 23 26 29 32 35 38 42 45 50 53 56 58 61 64 65 65 66 66 66 66 65 66 67 69 71 71 73 74 76 78 79 79 80 80 80
8 8 7 6 4 2 4 7 10 13 15 16 17 19 21 22 24 25 27 30 33 35 39 43 46 52 56 58 61 64 65 65 65 64 64 64 64 64 64 64 65 66 67 69 70 70 71 71 71 72 72 72 72 73
9 9 7 5 5 8 11 14 16 19 20 22 24 25 26 28 30 33 34 39 42 45 48 52 56 59 61 62 62 61 60 58 57 56 56 56 56 56 58 58 57 58 59 60 61 61 60 60 61 62 62 62 62 63
14 13 13 15 17 19 20 21 24 26 29 31 32 32 32 35 37 40 43 44 47 49 52 55 58 59 59 58 56 54 53 52 51 51 51 50 50 50 50 51 52 52 52 53 54 55 56 57 57 58 58 59 59 59
19 21 23 23 22 23 26 28 30 32 34 36 37 38 41 43 45 47 48 51 53 55 57 58 57 55 53 51 49 48 46 45 45 44 44 44 45 44 45 46 47 48 48 49 50 50 51 52 53 53 54 54 55 56
25 27 27 27 28 29 30 33 35 38 40 40 42 45 47 48 48 49 52 54 55 57 56 54 50 48 47 45 42 41 40 40 40 41 40 40 41 43 43 43 43 44 44 45 46 47 48 49 50 51 52 53 53 53
28 29 29 31 32 34 36 38 40 42 45 48 48 49 49 48 51 52 53 54 55 53 50 47 45 44 41 39 39 39 38 39 38 39 39 39 39 39 40 40 41 42 43 44 45 46 46 47 47 48 48 49 49 50
33 34 36 37 39 41 43 45 47 49 50 50 50 47 47 49 50 51 52 51 49 47 45 43 41 40 40 38 38 38 38 38 37 37 37 37 38 38 39 40 40 41 41 42 42 43 43 44 44 45 46 46 46 45
38 40 41 42 43 45 46 49 50 48 48 48 47 47 47 47 49 48 48 46 44 42 40 39 39 39 39 39 39 38 37 37 37 37 37 37 38 39 39 38 39 39 39 39 40 40 41 41 40 40 41 41 41 41
43 43 44 45 46 48 48 48 47 47 46 46 46 45 44 45 45 43 43 42 40 39 38 37 37 38 38 38 38 37 37 37 36 37 37 37 37 37 37 37 37 37 37 37 37 37 38 39 39 39 39 38 37 37

GFSWCAN_250_spd_063.txt.gz
Wind_Speed
37 36 34 34 33 33 34 35 36 37 38 40 41 43 45 47 49 50 47 48 46 47 51 53 56 57 59 58 60 62 64 58 57 57 58 61 62 63 64 65 69 72 75 76 78 77 71 73 80 81 85 87 89 84
30 32 33 34 34 34 36 37 38 39 40 41 41 42 43 45 47 46 44 44 45 48 50 53 54 55 57 60 63 63 60 61 58 54 54 58 60 61 59 60 65 69 71 74 77 74 75 76 75 74 76 78 81 83
26 28 30 31 32 32 34 36 39 41 43 45 46 47 48 49 49 46 46 47 46 43 46 45 48 52 52 58 59 56 57 57 57 57 57 58 60 60 55 55 64 64 68 69 74 67 74 80 77 74 72 68 65 71
21 22 23 25 26 28 30 32 34 37 39 42 45 48 49 50 49 48 47 50 48 43 41 48 46 45 52 54 56 54 55 57 58 55 55 56 56 58 55 52 57 60 65 63 63 68 73 78 75 74 76 70 67 64
18 18 19 19 20 22 23 25 27 30 33 36 39 41 42 42 42 43 46 50 46 46 46 48 45 47 48 51 56 57 53 57 56 55 51 52 49 49 50 51 54 58 57 58 61 67 72 77 78 77 79 71 72 76
14 14 14 14 15 16 17 18 18 20 23 26 28 31 32 33 34 34 35 37 39 41 44 48 50 49 49 54 56 53 54 58 57 54 45 41 49 45 45 48 55 59 57 53 61 65 73 76 80 78 77 73 72 73
9 8 7 7 7 7 9 11 12 13 15 19 22 24 26 29 31 32 36 41 39 42 45 47 47 48 43 44 46 49 51 52 51 51 49 49 47 45 51 52 53 56 53 52 59 66 73 75 80 81 80 73 74 70
3 4 4 4 2 1 3 6 8 10 12 16 19 21 23 25 26 29 29 31 32 29 33 32 33 35 35 32 35 38 42 45 46 49 49 47 48 48 48 49 54 56 55 54 58 62 70 75 82 86 82 78 77 72
7 8 7 7 7 5 4 6 9 13 16 17 20 21 21 21 22 24 26 27 27 28 26 24 28 28 30 32 33 34 36 39 43 45 47 47 48 51 50 51 56 57 55 55 57 62 70 74 88 87 81 80 74 70
11 10 9 9 9 10 10 9 12 14 16 19 21 21 23 24 25 27 29 30 30 27 26 28 29 32 31 31 31 33 36 38 38 39 41 41 44 45 50 52 53 53 52 53 54 57 64 72 77 79 80 76 70 69
12 13 13 13 12 13 15 16 17 20 21 23 22 21 20 21 23 25 25 26 27 28 30 31 31 29 28 28 31 34 36 37 38 39 40 41 42 41 41 44 47 49 49 48 46 48 56 62 70 69 71 68 68 63
14 15 15 17 18 18 17 19 21 22 22 24 26 25 23 22 23 23 24 24 26 26 25 25 25 26 28 29 29 30 30 32 35 34 34 34 36 37 39 41 44 44 42 42 47 51 52 55 58 63 67 67 66 62
16 16 16 16 18 18 20 23 24 26 25 24 24 25 24 24 23 23 23 21 21 22 23 23 24 24 25 26 26 27 28 29 27 29 30 31 29 30 32 34 36 38 40 41 46 48 51 53 54 58 61 64 67 65
17 18 18 20 21 22 22 23 24 24 25 24 24 26 27 27 26 26 25 25 24 24 24 23 23 22 20 19 19 19 19 19 20 22 23 23 25 28 32 35 36 40 40 45 44 47 48 46 52 54 58 60 61 64
19 18 19 20 21 22 24 25 25 25 25 24 24 24 24 25 26 27 27 27 26 25 24 24 23 22 21 20 20 20 19 19 20 22 23 25 25 27 27 25 28 33 39 48 53 51 48 45 44 48 54 58 60 63
21 21 21 22 22 22 23 24 24 24 24 24 25 26 25 24 23 23 23 25 26 25 24 24 23 21 18 16 16 15 14 17 19 22 24 25 26 27 29 30 32 37 40 42 45 44 44 45 46 49 52 56 59 63
25 25 26 28 28 27 26 27 27 27 25 23 23 23 25 24 22 22 24 24 23 20 17 16 15 13 11 8 8 8 11 13 16 17 18 21 25 28 30 32 33 36 42 44 44 45 45 46 49 52 56 60 63 67
32 30 30 31 29 27 27 28 29 30 28 26 25 24 23 24 23 22 22 20 19 18 16 13 11 10 6 5 4 5 4 5 8 12 15 14 17 21 25 28 32 35 39 43 45 46 47 49 51 54 57 60 63 67
34 32 32 34 35 33 32 34 33 33 31 31 29 29 28 28 26 23 21 22 24 24 23 19 17 16 14 11 8 5 6 5 6 8 10 12 14 17 21 25 29 34 38 41 44 46 49 51 53 56 58 61 64 67
38 35 34 35 36 36 39 35 38 39 34 29 30 33 31 28 29 32 32 30 28 23 18 14 12 10 8 6 4 1 3 5 7 11 14 17 21 24 27 29 32 35 39 43 46 50 53 56 58 60 62 64 66 67
36 34 33 34 35 34 34 30 33 34 32 30 25 27 29 27 26 26 23 20 18 14 11 9 8 9 8 9 11 13 15 18 20 22 25 29 33 36 40 42 44 46 48 50 52 54 57 59 61 64 65 67 68 69
34 32 31 30 30 29 29 24 25 28 29 25 23 24 23 21 19 18 17 16 15 17 17 17 17 18 19 22 24 26 28 30 33 36 38 40 42 45 48 51 53 55 57 59 60 62 63 64 65 66 66 66 67 68
30 28 26 26 22 23 22 21 20 16 18 19 21 18 17 15 14 14 13 13 14 14 17 19 21 26 30 33 35 38 41 44 46 47 48 48 49 49 49 50 50 51 53 55 57 59 61 63 64 66 68 70 71 73
20 19 21 21 17 16 16 14 15 16 14 13 12 11 11 12 12 13 14 15 16 19 21 25 30 33 37 41 44 47 50 52 54 54 54 55 54 51 50 49 48 49 50 50 50 51 52 54 55 56 57 58 58 59
18 17 16 15 13 11 8 7 6 7 8 10 11 13 14 14 15 16 18 19 19 23 28 32 35 39 43 47 51 54 55 55 54 50 48 47 46 46 45 44 43 43 44 45 45 45 45 46 47 48 49 50 51 52
18 15 12 9 6 3 1 3 6 8 12 16 18 19 18 19 21 21 22 25 28 32 35 39 43 45 50 53 56 55 53 49 47 44 41 40 39 39 39 39 39 38 38 39 40 40 41 42 44 45 46 47 48 49
13 11 8 6 6 7 9 11 13 16 19 21 24 27 27 28 29 30 31 33 37 39 44 48 51 53 54 53 51 48 46 44 43 41 39 37 36 36 37 37 38 38 38 39 39 40 40 40 41 42 43 44 45 46
11 10 10 9 10 11 15 17 18 20 23 26 28 30 32 33 35 37 39 40 43 47 50 53 55 53 51 48 45 42 41 39 38 37 37 36 35 35 35 35 36 36 36 36 37 38 38 39 40 41 42 43 44 44
14 13 13 15 16 19 21 22 24 26 28 29 31 34 36 38 40 41 43 47 50 53 54 53 52 50 47 45 41 38 37 36 35 34 34 35 34 34 34 33 34 34 35 36 36 37 38 39 39 39 39 40 40 41
20 20 20 22 23 24 26 28 29 31 33 35 37 38 40 40 43 46 49 51 53 54 53 50 48 45 43 40 39 37 36 35 35 35 34 33 32 33 33 34 34 34 34 35 35 35 34 34 35 35 35 36 37 38
27 27 28 28 29 30 33 34 34 35 36 38 40 41 43 45 47 50 51 53 53 51 49 47 44 43 42 39 37 36 36 35 34 33 33 33 34 34 33 33 33 33 33 32 31 31 32 32 33 33 34 34 34 35
32 33 33 33 34 36 36 35 36 38 40 41 43 45 47 48 51 51 52 51 49 47 45 43 40 39 39 39 38 36 36 35 35 34 34 34 34 34 34 33 33 31 31 31 31 31 32 32 32 32 32 33 33 34
35 35 36 38 38 36 37 39 40 42 43 45 46 48 49 50 51 50 47 45 43 42 41 40 39 38 37 37 36 36 35 35 35 35 34 34 35 34 33 32 31 31 31 31 31 31 30 30 31 31 31 32 32 32

GFSWCAN_250_spd_066.txt.gz
Wind_Speed
34 35 35 34 34 34 34 34 34 34 34 35 36 36 35 36 36 35 37 37 42 45 48 50 54 57 59 62 65 69 64 61 61 60 63 66 67 69 67 68 72 73 74 76 77 77 75 80 84 87 91 88 84 87
32 31 30 33 35 37 38 37 37 36 35 34 34 35 36 35 35 35 36 39 42 44 45 48 52 55 57 61 62 60 61 59 56 55 55 61 61 62 62 62 66 67 71 73 75 74 75 76 78 78 79 81 82 80
30 30 32 34 36 36 36 37 37 38 38 39 38 38 36 35 36 34 35 38 40 41 44 47 48 51 54 58 58 56 58 57 54 56 56 56 57 57 59 61 62 63 67 68 69 66 68 71 77 80 75 73 74 74
30 28 29 29 30 31 33 35 36 39 41 42 42 41 40 40 38 35 33 38 40 41 44 44 47 50 55 53 53 53 57 54 51 50 50 47 50 53 55 56 55 59 61 60 59 61 63 68 72 73 74 73 72 72
24 22 23 24 24 26 28 30 32 34 38 41 43 45 45 45 44 42 38 38 42 47 47 47 48 49 50 50 52 53 51 51 49 47 44 44 46 51 55 55 53 61 59 57 51 58 61 64 65 66 70 70 74 73
17 18 18 17 16 17 18 20 23 26 30 34 37 39 42 44 46 44 40 38 38 39 39 46 47 48 49 50 52 51 50 51 48 42 36 40 46 52 53 54 57 60 62 60 50 52 54 59 62 62 64 70 74 72
15 14 14 12 12 13 13 14 16 19 22 26 29 33 37 38 38 37 39 47 48 46 45 47 49 49 49 51 49 48 48 47 49 44 44 42 49 52 53 54 53 59 59 54 49 48 50 57 61 59 62 66 72 72
9 9 8 6 5 4 5 7 10 14 17 21 24 27 30 31 33 34 42 45 35 39 44 44 46 50 48 50 50 50 50 48 50 50 45 47 51 51 45 45 52 62 54 48 46 51 51 55 57 57 59 66 74 75
5 6 7 5 2 3 4 5 7 11 15 18 21 23 26 29 32 33 34 34 36 37 39 43 45 45 45 47 47 48 49 50 50 47 48 51 50 48 44 46 49 49 47 47 45 50 51 53 56 56 60 65 68 70
9 9 10 9 8 10 9 7 8 12 14 16 18 19 21 22 23 26 28 31 32 33 29 23 27 34 35 41 44 45 46 45 44 46 50 50 46 41 41 42 43 48 46 49 50 50 50 50 54 57 62 63 64 67
12 11 11 12 11 12 13 12 10 11 15 19 21 23 23 23 23 23 23 24 23 22 26 31 35 37 40 39 38 36 39 41 43 44 44 41 38 37 36 38 41 42 41 41 47 50 49 48 51 55 57 60 63 67
15 16 15 15 16 16 15 14 14 14 16 17 21 21 21 22 23 25 25 27 29 30 30 29 27 26 27 27 28 30 32 35 37 34 30 33 35 34 35 35 36 33 38 42 44 42 42 44 46 49 51 53 60 65
17 16 17 18 18 17 17 18 18 18 17 19 21 21 20 20 20 20 21 21 22 23 23 23 23 23 23 24 25 25 25 25 26 27 28 28 30 31 32 34 35 36 39 39 40 40 41 43 46 50 51 53 57 61
19 18 18 19 20 21 22 21 21 21 20 19 23 26 27 26 25 25 24 23 22 21 20 19 19 18 18 16 15 15 15 15 16 17 20 24 26 27 27 29 32 34 35 37 38 41 43 46 50 52 54 55 56 58
20 20 20 20 20 20 21 22 25 25 25 24 25 25 25 25 25 26 27 26 25 24 24 23 22 20 18 16 15 14 14 15 16 17 17 17 18 20 22 25 27 31 34 35 39 42 45 48 52 52 51 50 52 53
20 20 21 21 22 22 23 23 23 24 25 26 25 25 26 26 25 25 25 26 25 23 22 21 21 19 17 15 12 11 10 9 10 10 12 13 15 18 21 24 28 31 34 38 41 43 47 51 51 50 50 51 51 51
23 24 23 23 23 24 26 27 25 24 24 25 26 26 24 24 23 23 22 22 20 20 20 19 17 15 12 9 7 5 5 6 8 9 11 13 15 17 19 22 25 28 30 33 35 39 42 45 46 46 48 51 52 52
29 28 27 27 26 26 28 29 30 29 27 27 28 28 28 27 26 25 24 22 22 21 19 18 16 15 12 11 8 8 5 6 7 9 12 15 18 19 20 23 25 27 30 34 36 38 39 41 41 43 46 48 50 51
30 30 31 33 34 32 30 30 30 30 29 29 31 30 29 28 28 25 26 27 27 26 23 19 17 13 12 10 8 5 3 0 3 8 12 15 17 20 22 24 26 29 32 35 37 38 40 41 44 46 48 51 53 54
35 36 37 38 40 39 35 35 32 31 28 30 30 32 31 27 26 31 32 32 29 25 21 17 13 11 9 6 6 4 5 8 10 13 16 19 22 25 28 31 33 36 38 39 42 44 46 48 50 52 54 56 58 59
35 35 36 39 40 34 33 34 33 29 30 36 33 28 28 30 29 29 26 23 20 16 14 11 8 8 9 10 11 13 16 19 22 24 27 30 33 36 38 40 42 44 46 48 51 52 53 54 54 55 57 57 58 59
35 34 35 33 28 28 28 25 28 29 26 25 24 23 23 22 20 18 15 14 11 9 9 9 10 12 16 18 20 23 26 29 32 35 36 38 40 42 44 46 47 48 50 52 53 55 56 58 59 60 62 63 63 63
29 29 29 26 23 24 23 22 20 22 23 23 22 21 20 18 16 16 15 13 12 12 13 14 17 21 24 27 30 34 37 39 42 43 45 46 46 45 45 45 46 48 50 51 52 54 55 56 57 59 60 62 63 64
24 25 27 21 17 18 16 17 19 19 20 20 19 19 17 17 17 18 20 19 18 18 20 23 25 29 33 36 41 45 48 49 51 52 48 45 43 43 42 43 44 45 45 46 47 48 49 50 50 51 52 52 54 55
22 19 19 17 15 13 11 11 11 13 16 16 15 16 17 17 18 18 19 20 22 26 31 34 37 39 42 46 50 54 56 56 53 49 45 43 41 40 39 40 40 40 41 42 42 44 44 44 45 45 46 47 48 49
19 15 12 9 8 8 9 11 10 11 11 13 16 18 20 21 23 27 30 32 34 36 38 40 44 47 51 53 57 58 56 51 46 43 41 40 39 37 37 37 37 37 37 37 38 39 40 40 41 42 43 44 45 46
16 13 9 4 1 1 4 7 9 11 13 16 18 20 21 25 29 32 33 36 39 42 44 47 51 55 58 58 57 54 50 46 41 38 38 37 37 36 36 36 35 35 36 36 37 38 39 40 41 41 42 42 43 44
14 11 9 7 6 6 8 10 13 15 17 19 22 25 28 30 34 36 38 41 44 47 51 54 56 57 55 53 49 45 42 39 38 37 35 35 35 35 35 36 36 36 36 36 37 37 38 39 39 39 40 41 42 42
11 10 10 10 12 14 16 17 20 22 24 26 29 32 34 36 39 41 43 47 51 54 56 58 58 54 50 45 43 41 39 38 37 35 34 34 35 35 35 35 35 35 36 36 35 36 36 37 38 38 38 38 39 40
15 15 16 17 18 20 23 24 26 29 31 33 36 38 39 42 44 47 50 53 55 57 57 55 53 48 45 42 40 39 38 37 36 35 34 34 34 34 34 35 35 34 34 34 35 35 35 35 35 35 35 36 36 36
20 21 23 24 25 27 30 32 34 35 36 39 40 42 44 46 49 52 54 55 56 55 53 50 47 45 43 41 40 38 36 36 36 36 36 35 35 35 35 34 34 34 34 34 33 33 33 33 33 33 33 33 33 33
24 26 27 28 30 32 34 37 38 40 41 43 44 45 47 50 52 53 54 54 52 50 47 46 44 44 42 40 38 37 36 35 35 35 35 35 35 35 34 34 33 33 32 32 32 32 31 31 31 31 31 31 31 32
29 30 31 33 36 37 38 39 40 42 44 44 45 48 49 50 52 53 51 49 47 45 44 43 42 41 40 39 38 37 37 37 37 36 36 35 35 34 34 33 32 31 31 31 30 30 30 30 30 29 30 31 32 32

GFSWCAN_250_spd_069.txt.gz
Wind_Speed
27 28 29 29 30 30 31 32 32 32 32 31 29 26 27 26 27 27 29 33 39 43 45 47 49 52 56 62 63 62 62 59 57 58 58 59 61 62 63 66 67 69 69 70 72 73 76 81 85 90 92 96 95 94
27 29 29 29 30 30 32 34 35 35 34 32 30 28 26 27 26 28 31 34 36 38 41 44 47 50 52 55 56 56 58 56 54 55 57 60 61 61 62 62 63 64 65 67 69 71 73 76 78 79 83 85 89 89
27 27 29 29 30 31 33 34 34 33 33 33 33 31 28 28 29 30 31 33 36 38 40 39 43 48 51 53 53 55 56 55 54 54 57 57 56 60 59 61 63 65 67 66 67 69 73 73 74 73 78 77 80 83
27 30 30 27 28 30 32 33 32 32 33 33 34 32 31 30 30 34 32 36 38 38 39 43 44 44 46 46 47 52 56 53 51 52 53 55 53 56 57 60 61 61 60 62 63 66 70 74 71 72 76 77 76 79
27 27 26 25 25 24 25 27 28 29 30 32 34 33 31 30 32 36 36 37 40 39 39 41 43 45 46 47 49 51 49 48 46 47 48 51 53 54 58 56 55 56 58 58 60 63 67 71 69 68 70 71 69 73
22 20 19 17 18 19 20 22 23 25 27 29 32 34 34 34 31 35 37 36 38 38 39 43 44 44 44 43 44 43 42 44 45 43 45 49 52 54 51 50 51 52 53 54 55 58 60 61 65 64 60 62 64 64
14 13 12 13 15 14 15 16 18 20 23 26 30 32 34 34 34 33 36 40 39 35 36 37 38 41 41 39 41 42 44 43 42 41 42 43 45 45 44 46 51 52 52 53 51 54 57 56 51 49 49 51 54 56
11 10 9 10 9 10 11 12 14 17 20 22 25 29 32 33 35 34 34 37 39 38 38 38 40 39 40 40 40 40 40 39 39 36 35 40 43 45 44 45 50 52 51 50 55 60 57 49 45 48 50 50 55 54
7 3 1 1 2 5 7 9 11 13 17 19 22 24 26 28 30 28 28 27 30 34 38 40 39 38 36 37 35 36 36 38 37 36 37 40 41 44 44 47 48 50 53 57 60 56 49 49 45 47 49 51 52 50
7 8 7 7 5 7 9 10 12 13 15 17 19 21 23 24 23 25 23 24 27 29 33 36 41 42 41 42 41 41 42 44 43 44 44 42 39 40 43 46 50 55 55 58 58 49 47 49 50 48 50 50 51 53
13 12 11 10 10 12 14 13 10 12 15 18 19 20 20 21 22 25 25 26 26 29 31 32 33 34 35 40 42 44 46 47 50 52 52 49 47 50 49 49 51 50 49 48 40 34 42 45 46 48 50 48 47 47
15 15 15 15 15 16 18 17 15 13 13 17 22 23 23 22 21 21 21 21 20 16 20 21 24 27 32 34 32 37 39 40 40 43 42 41 45 43 41 41 40 39 39 37 34 37 40 41 41 39 40 43 45 45
19 18 18 17 17 18 19 19 18 16 15 14 15 17 19 22 26 28 29 30 28 25 23 21 21 22 23 22 23 24 26 26 27 29 31 31 28 28 28 30 31 32 32 29 31 34 34 33 37 40 43 44 46 46
21 20 21 22 22 21 22 22 21 20 21 22 23 23 22 22 22 23 23 23 23 22 21 20 18 17 17 17 17 16 15 13 12 13 13 15 17 17 19 20 21 24 26 29 28 27 29 33 37 40 42 44 46 47
19 20 22 23 25 24 25 27 24 22 21 23 24 24 24 24 24 24 24 23 22 20 19 17 16 15 15 14 14 14 14 13 12 13 13 12 11 11 15 20 23 21 21 22 25 28 32 36 38 40 43 45 47 48
19 19 20 23 24 27 27 29 30 27 25 25 26 26 25 24 24 25 24 25 24 23 23 22 21 21 19 17 16 16 15 14 13 13 12 13 15 16 17 18 20 22 24 25 27 30 33 37 39 42 44 46 49 52
22 21 21 22 25 26 28 30 29 30 31 31 31 30 29 27 27 26 25 25 26 24 24 23 22 18 18 17 14 11 10 9 8 9 10 12 13 14 16 18 21 24 27 31 34 36 37 39 42 44 46 48 50 52
25 25 25 25 25 27 28 29 31 31 30 30 31 31 31 30 29 27 25 24 24 23 20 20 18 17 14 11 8 8 5 2 0 3 5 9 12 15 18 21 24 27 30 33 36 38 41 43 45 46 46 47 48 50
26 27 28 27 27 28 30 29 28 29 29 30 29 29 29 27 25 26 26 27 27 29 26 24 21 19 17 14 10 7 5 3 2 5 8 11 14 17 21 23 26 29 31 33 35 38 40 41 42 44 45 46 47 48
33 34 32 32 32 31 29 27 28 29 31 32 31 30 30 31 34 35 35 33 28 25 21 17 14 13 10 9 8 6 6 8 11 14 17 20 23 26 29 32 35 37 38 40 41 42 43 44 45 46 48 49 50 51
40 40 36 36 38 36 33 31 33 35 34 32 29 31 31 31 32 30 26 23 20 17 14 11 9 7 7 8 10 13 16 18 22 25 29 32 34 36 38 39 41 43 45 47 47 48 49 49 50 51 53 54 55 56
41 40 38 32 31 37 34 34 35 30 29 27 28 27 27 26 23 19 16 14 11 9 7 6 6 10 14 18 21 24 27 30 32 35 36 36 38 40 40 39 40 40 42 44 46 48 49 51 52 54 55 56 57 57
34 34 31 27 29 28 24 23 25 27 26 24 22 21 19 18 17 16 15 13 12 13 14 15 17 19 23 26 30 34 37 39 41 42 42 43 40 40 39 39 40 42 44 46 48 49 50 51 52 52 53 53 53 53
27 30 24 20 22 24 25 24 23 22 21 20 18 16 14 15 14 15 15 14 14 17 20 23 26 29 32 36 40 43 46 46 47 46 45 42 39 38 38 39 40 41 42 43 43 44 44 45 46 46 47 48 48 49
18 18 21 19 20 20 19 18 17 15 14 15 14 15 16 15 18 19 21 23 27 29 32 35 39 43 46 49 51 53 52 51 50 46 42 40 38 37 37 37 37 37 38 38 39 39 40 41 42 43 44 45 46 47
15 13 16 17 17 16 14 13 13 13 13 14 15 16 18 20 23 26 30 33 36 37 40 42 46 49 53 54 56 55 53 48 43 41 40 38 36 36 36 35 35 35 36 36 37 37 38 39 40 41 42 43 43 44
12 9 7 6 6 5 5 6 8 10 11 13 16 19 21 25 28 31 35 37 40 42 45 49 52 55 57 56 54 50 45 43 40 38 37 36 35 35 34 34 35 35 36 36 37 37 37 38 39 40 41 41 42 42
8 8 5 2 2 3 5 7 11 13 16 18 20 23 26 29 32 36 40 43 46 48 52 55 57 57 57 53 50 46 43 39 37 36 35 35 34 34 34 34 34 35 35 35 36 37 38 38 38 38 39 39 40 41
10 9 9 9 9 10 12 13 15 18 20 22 25 28 31 35 38 42 46 48 50 53 56 58 58 54 51 49 46 43 40 39 37 35 34 34 34 33 34 34 34 35 36 37 37 37 37 38 38 38 38 38 38 38
13 13 14 14 15 16 18 19 21 23 25 27 29 33 37 41 43 46 49 51 54 56 57 56 52 49 46 44 42 41 39 38 37 36 34 33 34 34 34 35 35 35 35 35 36 36 36 36 35 35 35 36 36 37
14 14 16 18 19 21 24 26 27 29 31 34 36 39 42 44 48 50 52 54 54 54 53 49 48 45 44 41 40 39 38 37 36 35 34 34 34 35 35 35 35 34 34 34 34 33 33 33 33 34 34 35 35 35
17 19 20 21 23 26 27 29 32 34 36 39 41 43 47 49 50 51 52 53 52 50 46 45 44 43 42 40 39 37 36 35 35 36 37 37 36 36 35 34 34 33 33 32 31 31 31 32 32 32 32 32 32 32
20 22 23 26 27 29 31 33 35 38 40 42 45 47 48 49 49 50 51 49 46 43 43 43 43 42 41 40 38 38 38 37 37 37 37 36 35 35 34 33 32 31 31 30 30 30 31 31 32 32 32 33 33 33

GFSWCAN_250_spd_072.txt.gz
Wind_Speed
26 25 25 25 26 27 27 28 28 28 28 28 28 27 28 28 28 28 30 31 35 37 36 41 43 46 49 54 56 58 61 62 59 57 61 67 67 70 73 76 77 76 75 75 78 80 83 86 90 96 97 97 97 97
26 25 25 25 26 27 27 28 28 28 29 29 28 26 27 27 28 29 29 28 29 31 36 38 39 43 46 51 53 57 59 59 56 57 59 62 67 68 69 69 69 69 72 75 74 77 79 82 85 87 89 92 93 94
24 25 27 28 29 28 29 29 29 29 29 28 28 27 27 27 28 29 28 28 29 30 33 34 38 41 42 46 51 52 54 54 54 56 57 56 59 62 64 66 68 68 70 70 71 72 75 75 76 79 83 86 88 88
25 28 28 28 25 24 25 26 28 28 28 28 28 27 28 29 29 30 30 30 30 32 34 35 34 36 40 45 47 47 46 47 47 51 54 54 56 57 60 62 61 63 63 66 65 68 69 71 70 73 75 78 81 83
27 27 25 25 25 25 25 26 27 28 28 30 29 30 29 31 31 32 31 32 30 32 35 35 36 37 40 43 45 46 46 48 46 47 48 53 54 57 59 60 61 62 62 62 64 65 67 68 67 71 72 74 76 78
25 23 21 21 23 23 23 23 24 25 25 27 29 32 30 31 35 33 29 28 28 32 33 35 37 37 39 40 41 42 45 45 44 44 48 49 54 55 57 59 61 61 60 60 60 63 64 66 69 69 71 72 73 75
20 18 18 19 18 17 18 19 20 22 24 26 29 30 30 32 39 35 32 35 34 34 35 35 35 36 36 36 37 38 40 41 42 41 44 49 52 53 54 55 55 58 58 58 59 61 61 64 67 68 67 68 68 70
13 11 14 12 11 12 12 13 16 19 21 23 27 29 30 33 37 41 40 36 33 33 33 34 35 36 38 38 37 37 38 38 38 41 45 48 52 51 48 50 54 56 58 59 61 61 62 64 64 67 66 66 66 65
10 9 10 10 8 6 8 10 13 16 19 21 22 26 28 31 35 42 42 38 35 30 29 31 33 33 35 34 33 34 35 36 39 42 44 46 48 46 48 53 54 57 58 58 58 57 58 59 60 62 60 58 54 54
2 1 2 3 4 5 6 9 13 17 20 22 22 23 25 26 30 34 40 41 34 29 30 27 25 28 28 28 29 29 31 32 34 36 38 38 41 43 46 50 53 54 55 55 53 51 53 55 55 57 51 47 47 50
5 6 6 6 7 10 12 13 13 15 18 19 21 22 22 24 24 26 30 31 34 33 33 32 30 28 28 27 26 27 27 29 30 32 34 35 36 41 46 50 53 55 55 56 56 56 56 56 55 56 50 48 53 49
10 11 11 11 12 14 17 15 13 14 15 17 20 22 24 24 26 28 30 30 30 30 30 32 32 32 31 31 31 30 31 31 31 34 35 33 37 36 39 42 45 47 51 54 56 58 57 55 53 53 52 50 47 47
14 14 15 16 16 17 19 19 19 16 15 16 20 23 24 25 27 29 31 32 31 29 29 30 30 30 31 32 32 33 33 33 33 34 35 34 34 34 35 35 35 36 39 41 42 44 45 47 47 47 48 47 45 44
19 18 18 18 18 19 21 20 19 20 20 18 17 20 21 24 23 25 26 27 28 27 26 26 25 25 24 23 23 22 21 23 25 25 25 25 26 25 25 26 28 29 30 30 32 33 35 37 38 40 41 42 42 43
22 22 22 20 20 21 23 21 21 22 22 22 22 23 23 23 23 22 21 22 22 21 22 21 20 17 15 15 15 15 15 16 18 20 21 21 20 20 22 23 24 23 22 21 22 25 28 31 34 37 39 41 40 41
24 24 25 27 25 24 27 27 26 25 25 26 26 25 24 24 24 24 23 23 21 20 20 19 18 17 15 13 13 13 14 14 15 13 14 14 17 18 18 18 19 19 22 25 27 28 29 29 31 34 37 39 41 44
26 26 27 29 30 29 29 30 30 29 28 28 28 28 28 27 27 25 25 24 22 21 20 19 19 18 16 15 14 12 12 11 12 13 14 15 15 16 18 20 22 24 25 27 28 30 32 34 36 37 39 42 45 47
26 28 29 29 31 34 34 34 35 35 35 35 35 33 32 31 30 29 27 26 25 24 23 23 21 20 17 15 15 12 12 13 12 12 13 14 16 18 20 23 25 27 29 31 33 35 37 39 40 43 44 46 48 50
27 28 29 29 30 32 32 34 35 34 34 33 33 32 32 32 31 31 31 29 28 27 25 22 19 17 14 10 7 5 5 6 8 10 13 15 18 20 23 25 27 29 31 32 34 36 37 39 41 42 44 45 46 47
30 29 29 29 30 30 33 33 33 33 33 33 32 32 31 30 30 32 31 29 27 24 20 17 13 10 6 3 3 5 7 10 13 16 19 21 24 27 29 30 32 33 35 37 40 42 44 45 46 47 47 48 49 50
33 32 32 32 31 33 36 37 35 33 33 33 33 32 34 35 32 28 23 19 17 15 11 8 6 4 6 9 12 15 18 21 24 27 30 32 34 36 37 37 38 39 40 42 44 46 47 48 49 50 51 52 52 53
38 36 36 37 40 39 36 33 31 34 32 32 30 28 28 26 23 19 16 14 10 8 6 5 6 10 13 17 20 23 26 29 32 34 36 37 36 36 36 38 40 42 44 45 47 49 50 50 51 51 51 51 51 52
37 36 37 38 37 31 30 30 29 30 30 25 23 21 20 17 15 11 10 8 6 4 7 11 15 19 22 25 28 30 32 33 38 38 38 37 37 37 37 39 40 42 43 44 45 46 46 46 46 46 47 47 47 47
32 30 26 27 31 29 24 22 20 21 20 17 15 14 12 10 9 9 9 7 10 17 21 24 26 30 34 37 38 40 41 42 42 40 38 36 35 35 36 36 37 37 38 38 39 39 40 41 41 42 42 43 43 44
32 27 24 23 24 22 20 17 15 14 14 13 12 10 11 11 13 16 19 23 26 28 31 35 40 43 45 47 48 49 46 44 40 37 36 36 36 35 34 34 34 34 35 36 36 37 37 37 38 39 40 41 42 42
27 25 23 18 18 16 14 13 13 13 12 11 11 12 13 17 20 24 26 29 33 37 40 43 46 49 50 51 51 47 44 41 38 36 34 35 34 34 34 34 34 33 33 33 34 35 36 36 37 38 38 39 39 40
19 16 13 12 10 10 10 10 9 9 9 10 13 15 19 22 25 27 30 34 37 40 43 47 50 52 53 51 48 46 44 40 37 35 34 35 35 33 34 33 33 32 33 33 33 34 34 35 35 36 37 37 38 39
11 9 6 4 3 3 4 5 7 9 11 13 16 20 22 24 27 30 34 38 41 44 48 51 52 52 52 49 47 44 41 37 35 34 33 34 34 32 32 32 33 33 33 33 34 34 35 35 35 35 36 37 37 38
6 5 6 6 7 8 9 10 12 15 18 20 22 25 27 30 34 37 40 43 47 49 52 53 53 51 47 46 44 42 39 36 35 33 32 32 32 32 31 32 32 33 34 34 34 35 35 35 35 36 36 35 35 35
10 10 11 12 13 14 15 17 18 19 21 24 26 29 32 35 38 41 45 48 51 53 53 52 50 46 45 44 42 40 38 36 34 32 32 32 33 33 34 34 34 34 34 34 34 34 34 34 34 33 33 33 33 33
12 14 15 16 17 18 18 19 21 23 26 29 31 33 36 39 42 45 49 51 51 51 51 49 45 44 43 42 41 38 35 35 35 35 34 34 34 35 35 35 35 34 34 34 33 33 32 32 32 32 32 33 33 33
15 16 16 17 19 20 21 22 25 28 30 32 34 36 40 43 45 47 48 50 50 49 46 43 43 42 41 39 38 36 34 34 34 35 36 37 37 36 35 34 33 33 32 31 31 31 31 32 32 33 33 34 34 34
21 21 21 21 23 24 26 27 29 31 32 33 35 38 41 43 45 47 48 48 46 43 41 41 40 40 39 37 35 35 35 35 35 36 36 36 36 36 35 34 33 32 31 31 31 32 32 33 33 33 33 33 33 33

GFSWCAN_250_spd_075.txt.gz
Wind_Speed
28 25 24 23 22 22 23 23 24 25 26 27 28 29 30 31 33 33 34 35 37 36 30 36 38 39 40 40 42 46 49 55 58 57 60 64 69 72 74 77 81 84 84 83 86 83 83 89 86 85 87 92 92 91
24 23 24 24 24 23 23 24 24 25 26 26 27 29 30 30 31 32 31 33 34 30 31 34 34 34 35 37 39 41 45 51 53 55 59 62 67 70 73 76 79 80 83 89 89 87 87 88 88 89 89 87 89 92
25 25 25 25 26 25 25 26 27 27 28 29 30 31 31 31 31 32 30 31 29 25 31 31 32 31 34 37 37 40 43 46 52 56 59 61 61 66 71 74 76 81 84 85 85 87 88 92 89 87 88 90 92 95
26 26 26 26 27 27 27 27 28 28 29 30 31 32 33 32 31 30 29 28 26 27 28 23 26 30 31 32 34 36 38 43 49 52 54 57 59 61 67 71 71 75 80 81 83 83 86 89 87 87 89 88 88 88
25 25 25 26 26 27 27 28 29 29 29 30 31 31 31 32 32 31 26 24 24 24 23 25 25 27 31 32 33 34 37 41 45 47 52 55 57 59 60 65 68 73 74 75 77 77 82 83 81 80 82 81 82 84
24 25 24 22 24 25 24 26 27 28 30 32 34 34 33 33 33 30 21 23 27 26 26 24 24 25 28 29 30 33 37 40 39 43 48 53 56 56 58 59 63 67 69 74 72 74 74 73 71 77 77 77 77 78
23 20 18 21 21 20 20 22 22 24 26 29 32 34 35 35 34 32 29 29 28 27 27 24 23 24 25 27 31 31 31 33 35 37 41 46 50 52 54 58 59 60 61 62 65 68 66 68 67 71 72 74 74 75
17 14 17 17 14 13 15 18 20 22 23 26 30 33 36 37 39 38 35 27 27 26 26 26 25 25 25 27 27 29 31 33 35 37 40 46 48 48 51 54 57 60 61 62 64 65 65 67 69 71 71 72 72 74
13 13 13 11 10 10 13 16 20 22 24 25 27 30 34 37 42 42 35 28 27 25 26 27 27 26 27 27 28 29 29 30 31 36 41 43 45 46 51 58 61 62 62 64 66 65 66 67 68 70 71 73 73 73
7 10 10 8 7 9 12 15 20 23 24 24 25 27 31 38 43 43 38 30 24 23 23 24 23 25 26 27 28 29 30 31 34 36 38 39 40 44 49 55 58 60 62 64 65 65 67 66 67 68 69 71 72 73
5 4 4 4 5 7 10 12 15 19 21 23 23 25 32 37 41 40 34 28 21 23 23 21 22 21 22 23 24 26 28 30 33 35 36 38 41 47 51 54 57 58 59 61 63 63 64 65 65 67 67 68 69 69
5 5 6 7 9 11 13 14 15 17 21 24 25 26 30 33 36 37 35 32 28 23 23 22 20 19 19 19 20 21 22 24 27 32 32 33 42 45 45 49 52 54 55 56 56 58 59 59 59 60 61 61 58 59
11 10 10 10 11 15 17 16 17 18 20 23 25 29 32 33 32 32 33 34 32 30 27 24 23 21 20 21 22 24 27 29 31 33 35 37 40 40 42 45 47 50 53 55 55 57 57 56 55 54 56 58 59 60
16 16 15 14 16 20 21 21 21 20 21 23 24 27 31 37 40 41 40 37 34 30 28 26 24 23 23 23 26 27 25 24 26 28 29 30 33 36 37 40 44 48 50 54 56 58 60 61 60 60 59 58 58 58
17 19 20 20 22 22 22 23 24 24 22 21 21 24 26 27 29 33 37 38 37 37 34 32 31 30 30 29 27 24 25 27 26 27 26 26 26 28 29 29 31 33 36 38 40 42 45 46 46 45 45 46 46 47
20 21 23 22 24 25 26 26 25 25 25 24 23 24 24 25 26 27 27 28 28 29 29 27 26 24 24 22 21 20 19 19 19 20 20 22 23 25 26 29 29 31 33 34 35 38 39 39 38 39 40 41 42 43
24 25 26 27 27 28 29 29 28 28 28 28 28 27 27 27 26 26 26 25 25 23 23 21 20 19 17 16 14 12 11 10 10 13 16 17 18 20 21 23 24 26 28 29 30 31 32 33 35 37 39 41 42 43
28 29 30 31 31 31 30 32 32 32 32 31 31 30 29 29 29 28 26 25 24 23 20 18 15 12 9 7 6 7 8 10 13 16 18 21 23 25 26 28 30 31 32 33 34 35 37 38 39 39 40 41 42 43
30 32 33 33 35 38 39 38 38 37 37 37 36 36 35 34 33 32 30 28 26 23 21 20 17 15 12 10 8 8 10 12 14 18 19 21 23 25 26 28 30 31 33 35 36 37 38 39 41 42 44 45 47 48
31 33 34 35 35 36 37 37 36 35 36 36 35 34 33 32 31 30 28 27 25 22 18 15 11 8 5 3 4 7 9 13 15 18 21 24 27 30 32 35 37 39 41 43 44 46 47 48 49 50 51 52 53 54
33 35 36 37 36 34 34 36 36 35 34 33 33 33 29 27 27 25 24 20 16 13 10 8 4 2 5 9 12 16 19 21 24 27 29 32 35 37 39 41 44 45 47 48 49 50 50 51 52 53 53 53 53 53
35 36 38 37 36 35 33 32 32 33 32 30 31 30 27 24 23 20 17 14 10 7 3 2 5 8 11 14 18 20 23 26 29 31 34 35 37 40 42 44 46 48 49 51 51 52 53 53 53 52 51 50 49 49
41 41 40 38 36 33 30 28 30 30 30 27 25 23 20 16 13 10 7 4 2 1 5 9 13 17 21 24 25 28 30 33 34 35 36 38 41 43 44 45 46 47 48 48 48 48 48 47 47 46 46 46 45 46
38 39 37 33 29 29 28 26 25 23 20 19 18 16 13 9 7 5 5 4 10 13 17 22 24 26 29 31 35 36 36 38 36 37 38 38 37 38 39 40 41 41 40 40 39 40 40 40 41 42 42 41 42 42
33 30 25 25 23 23 23 20 20 17 16 14 12 9 6 4 6 8 11 15 18 23 27 29 32 36 39 42 41 42 41 40 38 37 36 35 35 35 36 36 37 37 38 37 37 37 37 37 38 38 39 40 40 41
28 22 21 18 20 19 18 17 14 12 9 7 6 5 7 10 13 16 19 22 26 31 34 37 41 43 46 46 46 44 41 40 38 35 34 34 34 34 35 36 36 36 36 35 35 35 35 35 36 37 37 38 39 40
24 20 17 17 16 13 11 8 6 5 5 5 8 11 14 17 20 22 26 29 32 35 39 43 45 48 50 48 46 43 41 38 36 35 35 35 35 35 34 34 34 34 34 34 34 34 34 35 35 36 37 37 38 38
19 14 11 9 7 5 2 1 4 6 8 11 14 16 19 22 25 28 31 34 37 41 45 48 50 50 48 48 46 43 40 38 37 36 35 35 34 33 32 32 33 32 32 33 34 35 35 35 35 35 35 35 35 36
13 10 8 5 4 4 5 8 10 12 15 17 19 22 23 27 29 32 35 39 43 47 50 51 51 50 50 48 45 43 40 38 37 35 34 33 33 32 32 31 32 33 33 33 33 33 33 34 34 33 33 33 33 33
10 9 9 8 9 11 13 14 15 18 19 21 23 25 28 30 33 36 40 44 48 50 51 51 51 50 48 46 45 42 40 39 36 34 33 32 32 33 33 34 33 32 32 32 33 32 32 31 31 30 30 30 30 31
10 10 10 11 14 16 17 18 20 21 23 25 28 29 31 34 37 41 45 47 49 50 51 51 49 47 45 45 43 41 40 38 36 35 34 34 34 33 33 32 32 33 33 33 32 31 30 30 30 30 31 31 32 33
9 12 13 15 17 18 20 20 22 25 28 29 31 32 35 38 40 43 46 48 50 50 48 47 45 44 44 43 41 39 38 37 35 35 35 35 35 35 34 33 33 33 33 32 32 31 30 30 30 31 31 31 31 31
13 15 16 18 20 21 23 25 28 30 31 32 33 35 37 39 44 46 47 48 47 46 43 42 42 42 41 40 38 37 37 36 36 36 36 36 35 35 34 34 34 33 32 31 30 29 29 29 29 29 29 30 30 30

GFSWCAN_250_spd_078.txt.gz
Wind_Speed
40 36 34 30 26 24 22 21 22 20 19 19 21 22 24 26 28 30 31 34 34 31 33 35 38 39 38 38 38 39 41 40 42 46 50 55 57 60 63 71 74 78 78 77 73 69 75 78 82 81 88 87 86 86
37 34 31 27 24 22 21 20 20 20 20 21 22 22 24 25 27 27 30 28 29 25 31 32 34 34 35 35 36 37 39 38 40 45 48 54 57 59 61 65 71 74 77 79 77 75 79 83 83 82 83 92 90 88
34 31 29 26 25 24 23 22 22 22 22 22 23 24 24 26 27 28 26 26 23 24 30 29 27 29 32 33 34 35 35 37 40 41 47 53 56 56 61 62 69 72 74 77 82 80 78 83 86 86 84 84 83 88
31 29 28 27 27 27 26 25 24 24 24 25 26 26 27 27 28 28 25 22 22 22 24 23 27 27 27 30 32 32 36 37 37 41 44 49 52 53 58 60 63 69 72 74 78 87 89 83 83 85 87 86 85 85
29 29 28 28 28 25 23 24 26 28 28 28 27 29 29 29 29 28 23 19 22 23 23 26 25 25 25 26 28 30 32 33 35 37 40 46 49 50 53 56 63 64 70 72 77 82 83 85 89 86 89 90 92 93
29 28 28 23 24 27 29 31 33 33 33 33 33 32 31 30 30 28 24 22 24 22 23 21 22 22 22 24 26 28 29 30 33 37 40 45 48 49 51 56 58 57 64 70 74 83 83 79 87 88 88 87 87 88
26 24 23 23 26 28 28 27 27 27 29 31 33 34 33 32 29 30 31 26 21 21 22 20 20 20 19 20 22 26 27 29 31 33 38 42 46 47 50 51 54 56 59 64 72 75 75 77 82 84 86 87 86 86
22 21 20 21 20 21 21 22 23 25 28 28 31 34 34 35 34 35 31 20 21 20 19 18 20 20 18 18 20 24 25 28 32 36 39 41 43 47 49 52 54 56 57 59 63 67 72 75 77 81 81 82 82 83
17 17 18 15 14 15 17 19 22 24 25 26 28 30 34 37 39 40 27 24 22 20 20 20 20 18 16 17 19 22 24 26 30 34 37 38 41 45 50 53 56 59 59 62 62 62 66 68 71 75 76 78 78 79
12 11 9 11 10 12 14 17 19 20 22 25 26 28 30 36 40 39 28 24 23 19 19 18 18 18 18 19 19 21 21 23 26 29 31 33 36 41 45 50 53 56 59 61 62 64 67 68 69 72 73 74 76 77
9 9 9 7 7 7 10 13 17 21 22 24 26 28 31 35 38 32 27 24 23 19 17 18 19 18 17 18 19 20 22 25 26 27 29 31 36 40 45 48 51 53 55 57 59 61 64 66 68 70 72 74 75 75
7 6 4 5 5 8 11 13 15 19 21 22 24 26 29 30 31 27 24 25 24 20 18 17 17 17 17 18 19 19 22 23 25 27 29 32 38 42 43 43 44 47 50 53 55 58 61 65 67 69 71 72 72 72
6 5 6 7 9 10 11 14 16 16 17 19 20 23 26 26 25 24 24 27 28 25 23 20 18 18 17 16 16 17 20 23 24 26 28 33 37 37 39 42 45 48 50 52 54 56 59 61 63 65 66 67 67 66
9 9 10 10 12 15 15 16 17 19 19 22 23 25 27 29 30 33 35 34 29 24 22 21 19 18 16 16 18 20 21 21 24 26 26 28 31 36 37 40 42 45 47 49 52 54 55 56 56 56 57 58 58 58
13 13 13 14 14 16 18 19 19 20 22 21 21 22 25 27 28 26 26 26 26 24 21 18 16 16 17 17 18 17 18 20 21 24 25 27 29 32 35 38 41 44 46 48 50 52 53 55 57 58 60 60 60 60
18 18 17 17 18 20 20 21 21 21 22 22 21 22 22 25 26 27 27 27 26 23 20 18 16 15 14 16 15 16 17 18 20 21 21 22 23 23 23 24 26 28 30 33 35 37 39 41 42 44 46 49 51 52
22 23 21 21 22 23 23 25 25 25 25 23 23 22 21 20 21 22 21 23 23 21 19 18 17 15 15 18 19 18 18 16 16 16 16 17 18 19 20 21 24 26 28 29 30 31 33 35 36 38 40 41 43 44
25 27 26 27 27 27 28 29 28 27 27 26 25 25 23 23 24 23 23 21 21 19 17 16 16 15 14 12 11 9 9 8 10 13 15 18 21 23 24 26 28 30 32 33 35 37 39 40 41 42 44 45 46 47
28 30 30 30 31 32 32 32 31 31 31 31 29 28 28 28 27 26 25 24 22 20 18 17 14 11 7 3 2 5 8 11 13 15 18 20 23 26 29 31 34 36 38 40 42 44 46 47 49 50 51 51 52 52
35 34 34 34 35 36 37 37 36 35 35 34 34 34 32 31 31 30 28 26 23 20 17 13 9 5 2 3 5 8 12 15 19 23 26 29 32 35 37 39 42 45 47 49 50 51 52 53 54 55 55 55 56 57
39 38 37 36 37 37 38 39 40 41 39 37 36 34 33 31 30 28 25 21 18 14 11 7 3 2 5 9 13 17 21 24 27 30 33 37 40 43 45 47 49 51 53 54 54 54 53 53 52 51 51 51 51 52
39 40 40 39 39 39 39 38 38 37 35 33 31 30 29 27 25 22 20 16 13 10 6 1 4 8 12 15 19 23 27 30 33 36 40 43 46 48 51 52 53 54 55 56 56 56 54 52 51 49 48 47 47 47
41 40 39 38 37 35 34 32 32 31 31 29 28 26 23 20 18 15 13 8 3 1 5 8 12 16 20 23 27 31 33 35 37 39 42 44 47 49 50 51 51 52 52 51 49 48 47 46 45 44 44 44 43 43
40 39 36 33 31 31 30 29 28 27 25 24 22 19 16 14 10 6 3 2 5 9 12 17 20 23 27 32 35 37 39 41 41 42 42 42 43 42 42 43 44 44 44 44 43 43 42 42 42 42 42 42 43 43
36 32 30 29 28 28 26 26 24 22 19 15 12 10 7 4 4 5 7 10 15 18 21 24 27 32 36 39 41 42 44 44 42 39 39 38 38 38 39 40 40 40 40 40 40 39 39 39 39 39 39 40 41 41
28 25 25 24 22 23 21 21 18 15 10 8 6 6 6 8 10 12 15 18 21 26 30 33 38 42 45 47 48 48 46 44 41 38 37 36 36 36 37 37 37 36 37 37 37 38 38 38 38 39 39 40 40 41
25 22 20 18 17 16 14 13 11 7 5 5 7 10 12 15 17 19 23 26 30 33 37 41 45 49 50 50 50 49 47 43 41 39 37 37 37 36 35 35 36 36 36 36 37 38 38 39 39 39 39 39 39 39
22 18 16 13 10 8 7 5 4 4 7 10 13 14 17 18 21 24 27 31 34 38 44 47 50 52 52 52 51 49 46 43 41 39 38 38 37 36 35 35 35 36 37 37 37 37 37 37 36 36 36 36 36 36
16 12 9 6 3 1 2 5 8 11 13 16 17 19 20 23 26 28 31 35 39 44 47 50 52 52 53 52 50 47 45 44 41 40 40 39 37 36 36 35 35 36 35 35 35 35 35 34 34 34 33 33 32 33
11 9 6 5 4 5 7 10 14 16 18 20 21 22 24 26 29 32 36 41 44 47 50 52 53 53 53 52 49 47 46 43 42 41 40 39 38 36 35 36 36 35 34 33 32 32 33 32 32 32 32 32 32 33
9 8 6 6 7 9 12 15 17 20 22 23 26 28 30 31 33 37 41 44 47 50 52 53 52 51 50 49 48 47 45 42 41 40 40 38 37 37 36 35 34 33 33 33 32 32 31 30 30 31 31 31 31 31
9 8 7 7 9 12 16 19 21 23 25 28 31 33 35 36 39 40 44 47 50 52 51 52 51 49 47 47 46 44 43 41 40 39 38 37 37 36 35 34 33 32 32 32 32 31 31 31 31 30 30 30 30 30
10 10 10 11 13 16 18 20 23 26 30 33 36 38 39 40 41 44 48 50 51 50 50 49 47 46 46 45 44 42 40 40 39 38 37 36 36 35 35 34 32 32 32 31 31 30 30 30 30 30 30 30 30 30

GFSWCAN_250_spd_081.txt.gz
Wind_Speed
52 50 43 40 36 30 29 26 23 21 19 17 17 18 18 19 20 21 25 27 26 27 31 33 37 39 39 41 44 44 42 46 50 50 47 45 49 52 54 55 60 63 65 65 71 75 80 87 81 82 79 78 75 72
49 44 40 37 32 29 27 24 22 20 19 17 18 17 18 19 18 20 21 21 23 26 31 32 33 34 35 37 40 40 43 46 42 40 42 45 48 50 54 57 61 61 64 67 67 78 85 82 85 87 83 82 77 76
45 40 36 34 30 28 27 25 24 22 21 19 17 17 18 19 19 18 19 20 22 27 26 27 29 31 32 34 35 37 37 41 36 35 40 44 45 48 52 55 60 59 61 68 69 71 76 85 87 84 84 87 87 86
41 37 34 30 29 28 28 27 25 23 22 20 19 19 18 17 17 17 17 18 22 24 22 25 26 27 29 31 32 31 33 30 31 35 40 42 41 44 49 53 58 58 63 68 71 71 74 78 78 82 86 89 91 90
37 33 31 30 28 28 27 26 25 24 24 23 22 21 20 19 18 16 17 18 22 21 21 22 23 26 26 28 27 27 28 30 33 36 37 38 39 42 49 52 55 57 61 63 69 67 74 78 81 84 82 78 76 83
33 30 29 27 26 26 27 27 26 26 27 27 27 27 25 23 21 21 20 22 23 19 17 18 20 20 21 21 22 25 22 25 31 33 35 36 37 40 44 44 48 53 59 60 67 72 77 87 86 87 74 70 74 76
29 28 26 25 24 24 27 30 33 34 34 34 34 33 31 28 26 26 22 14 20 19 15 16 16 17 16 17 20 23 25 28 31 31 34 35 36 37 39 41 48 53 56 60 62 63 70 74 80 79 80 79 78 78
26 25 23 22 26 30 30 29 29 29 30 30 31 31 31 29 30 29 23 18 23 18 13 13 15 14 13 17 21 22 23 25 28 30 33 35 36 38 39 43 46 49 53 56 58 58 63 71 75 77 76 79 81 81
22 20 23 24 25 23 23 24 24 25 27 28 28 29 28 31 36 33 22 24 22 16 13 13 13 12 14 17 17 19 22 25 27 31 32 33 34 38 42 44 46 49 52 54 57 60 62 64 68 72 73 76 78 79
17 20 20 16 16 17 19 20 21 22 23 26 27 28 31 35 33 31 21 26 21 17 14 15 15 14 17 20 20 20 22 24 26 27 30 32 35 37 39 43 44 46 50 52 55 57 59 62 63 66 68 71 75 77
16 16 13 11 12 14 15 17 18 19 20 22 27 29 31 32 32 27 22 27 24 18 16 17 17 17 18 18 19 20 20 22 24 26 27 30 33 35 38 39 41 42 45 47 50 53 55 58 62 65 66 67 69 71
13 9 7 8 10 11 13 15 16 18 20 22 24 26 27 25 22 18 27 28 23 19 18 19 20 19 18 19 18 19 20 19 19 21 24 28 31 33 34 34 35 36 39 42 45 49 53 57 59 62 65 66 67 69
7 7 9 10 10 11 12 13 14 15 16 18 19 20 21 21 19 20 28 29 28 23 17 16 19 19 19 18 16 16 16 18 17 21 25 25 23 27 29 32 35 38 41 43 46 49 51 53 56 59 62 65 67 68
8 10 11 10 10 12 13 14 16 17 18 19 20 21 23 25 27 34 40 37 27 21 18 16 15 13 14 16 16 15 16 18 21 22 22 25 29 31 33 35 38 40 42 44 45 47 48 50 53 55 58 60 62 64
11 12 13 11 11 12 15 18 20 22 22 21 20 20 23 26 31 34 33 29 26 22 20 18 16 16 15 13 13 13 14 15 17 20 22 24 26 29 31 33 35 37 39 41 43 45 46 47 49 50 52 53 55 56
15 15 14 13 13 15 16 17 18 19 20 18 17 18 22 26 29 32 32 32 28 22 20 18 16 13 13 12 12 13 13 13 14 15 16 17 18 19 21 23 24 25 27 28 30 33 35 38 40 43 45 46 48 49
18 17 16 16 17 18 19 20 20 20 19 18 18 19 19 23 27 30 31 31 29 25 20 16 14 11 8 7 6 7 8 9 9 9 10 11 12 13 16 19 22 24 26 28 31 33 35 38 40 42 44 45 47 49
21 21 22 22 22 23 23 23 22 22 22 21 21 23 24 22 22 24 25 25 24 20 16 12 8 5 3 4 5 4 4 5 7 10 12 14 17 19 22 25 28 30 33 35 37 39 41 43 44 45 46 48 49 51
26 25 25 26 26 26 27 27 26 26 25 25 26 27 27 29 28 25 24 23 20 15 10 6 5 6 5 3 2 4 7 10 13 16 19 21 25 28 31 34 37 39 41 43 44 46 47 48 49 49 51 52 53 53
30 29 30 30 30 31 31 30 30 30 29 29 28 28 28 28 26 25 24 23 21 19 17 14 10 7 3 1 4 8 12 17 21 24 28 32 35 38 41 43 46 48 49 51 51 52 53 53 52 52 50 50 51 48
33 33 33 34 35 36 36 36 37 37 35 35 34 35 35 34 34 33 32 29 24 19 14 10 6 1 4 9 14 18 22 25 28 32 36 40 43 46 49 51 53 54 55 56 56 55 54 54 52 48 48 48 47 46
38 40 41 42 43 44 45 44 44 43 42 41 40 38 36 34 31 28 24 20 16 12 7 4 5 8 11 16 20 24 29 32 36 39 42 45 47 49 50 51 52 52 52 53 53 50 48 47 46 45 43 42 41 42
44 44 44 44 44 43 42 40 39 38 37 35 33 31 28 26 23 20 16 12 6 4 4 6 11 15 19 22 27 31 36 38 39 41 42 43 44 45 46 45 45 47 48 47 47 45 44 43 42 42 41 41 41 41
43 42 41 40 38 39 38 38 36 33 30 28 26 24 21 17 13 10 7 3 1 6 10 14 18 22 27 31 36 40 43 44 43 43 42 40 38 38 39 40 40 42 43 42 42 41 40 40 39 39 39 39 39 40
41 39 38 35 34 32 31 30 28 26 23 21 18 14 11 8 6 5 6 9 12 15 17 21 25 31 36 40 43 46 48 48 44 43 38 37 37 37 37 37 37 40 39 38 37 37 38 37 38 38 38 39 39 39
35 33 32 30 29 28 26 24 21 19 17 14 11 9 8 8 8 10 13 15 18 22 27 32 36 40 44 47 50 50 50 48 47 43 40 38 36 35 35 38 36 33 36 37 37 37 38 39 39 40 40 40 40 40
30 28 27 24 22 21 19 16 14 13 12 9 9 9 11 13 14 16 20 22 26 29 32 37 42 45 48 51 53 52 51 49 47 43 41 39 37 35 34 35 35 35 35 36 37 38 39 39 39 39 39 39 39 39
25 23 21 19 17 14 12 10 9 9 8 9 11 12 13 14 17 21 23 26 29 33 38 42 46 49 51 53 53 52 50 47 45 44 41 40 39 35 36 35 35 35 36 36 37 38 38 38 37 38 38 38 37 37
20 17 14 12 10 7 5 6 7 9 10 12 14 16 17 20 22 24 27 30 35 40 44 46 49 52 53 52 52 51 48 47 46 45 44 41 37 36 36 35 36 36 36 37 36 35 36 36 36 36 35 34 34 34
13 11 7 5 3 3 4 7 9 12 14 17 18 20 22 24 27 30 32 36 40 44 47 50 52 53 53 52 51 50 48 47 45 44 42 40 39 38 37 37 37 36 35 35 35 34 34 34 33 33 33 32 32 33
5 3 0 1 1 3 6 9 13 15 17 19 21 23 26 29 32 35 38 41 45 47 50 52 52 53 51 50 50 49 48 45 44 42 40 39 38 38 37 37 36 35 35 34 34 33 33 32 32 32 31 31 31 32
5 4 4 3 3 5 8 11 15 18 20 23 25 28 31 33 36 38 42 46 48 49 51 51 51 50 48 48 49 48 46 44 42 41 39 39 38 38 38 38 37 36 35 34 34 33 33 32 32 31 31 31 31 31
8 7 6 6 7 9 13 17 20 22 25 28 30 33 36 38 40 43 46 48 50 51 52 50 49 48 48 48 46 45 43 41 40 39 39 38 38 38 38 38 37 36 35 34 33 33 33 33 33 33 31 31 31 32

GFSWCAN_250_spd_084.txt.gz
Wind_Speed
62 59 57 52 47 43 39 36 34 31 27 24 20 18 16 15 16 17 20 22 23 28 32 34 37 39 40 42 43 45 45 44 45 47 46 39 39 37 40 48 50 49 48 53 56 56 66 76 71 69 71 71 68 74
57 55 53 48 43 38 36 33 31 29 25 23 19 17 16 15 15 16 19 23 26 28 29 32 34 34 35 37 39 42 43 44 45 45 44 40 43 41 48 50 49 49 51 55 58 58 65 78 80 70 68 71 70 70
54 51 48 44 39 34 33 31 30 27 25 23 20 15 16 16 15 18 21 23 25 27 30 31 32 33 35 37 39 42 42 42 45 39 39 41 43 46 49 49 50 52 55 56 57 58 61 72 83 80 72 72 74 75
50 47 43 40 34 32 31 30 29 26 26 24 21 18 16 16 17 18 20 23 24 26 28 29 30 32 33 35 36 36 38 39 35 33 37 41 39 42 45 47 49 52 52 49 55 61 62 63 74 85 86 80 77 80
45 43 39 34 30 30 30 29 27 26 25 25 23 21 18 18 19 20 22 23 24 25 24 25 27 26 27 28 28 29 31 28 30 32 36 38 37 40 43 44 45 51 52 54 57 62 67 68 70 84 89 90 87 86
40 38 33 29 28 28 29 28 27 27 28 28 27 25 21 19 21 23 21 21 20 21 21 21 21 20 22 23 23 25 24 30 35 32 34 36 38 39 39 42 46 48 52 55 56 63 64 68 74 78 86 94 92 98
35 31 27 26 26 27 28 28 28 29 29 29 29 28 25 23 23 18 18 21 21 20 17 18 20 19 20 20 21 24 27 27 31 32 33 34 36 38 39 38 38 38 43 48 53 56 58 62 65 70 74 79 86 90
28 25 25 25 25 27 29 30 31 31 31 31 30 29 28 26 24 21 19 23 26 21 17 17 17 18 18 19 20 25 26 25 29 30 30 30 33 36 35 35 35 40 41 43 47 50 57 60 62 65 70 72 73 73
23 23 22 23 25 27 29 30 28 28 30 31 31 29 25 27 30 23 20 22 24 20 17 15 17 18 17 16 16 18 19 22 25 25 26 29 31 34 37 36 37 41 43 45 48 50 55 59 60 62 65 70 73 75
20 19 21 23 22 25 26 25 26 27 27 27 27 26 25 29 28 22 23 23 24 21 17 15 16 16 13 12 14 16 17 18 19 22 24 28 31 33 34 35 37 40 43 46 48 48 50 55 59 61 63 65 67 70
17 19 19 17 19 20 20 21 22 23 23 23 24 28 33 29 29 23 25 31 28 22 17 15 14 12 11 9 10 13 13 15 17 20 23 26 29 29 30 32 33 35 37 40 44 46 47 52 55 58 61 63 66 67
18 16 13 15 17 17 16 17 18 21 22 24 28 27 25 25 24 27 35 32 26 22 17 16 16 14 11 12 14 14 15 17 19 20 24 26 25 24 21 23 25 28 31 35 38 42 45 49 53 56 59 62 64 66
14 12 15 14 13 13 14 14 15 16 17 16 16 18 19 22 26 34 38 34 30 21 18 16 15 13 13 12 12 14 16 16 16 19 19 16 19 24 26 28 29 30 33 36 39 42 46 49 51 54 57 59 61 63
14 15 12 12 13 13 15 17 19 20 21 22 22 23 25 28 34 45 43 33 26 20 18 17 16 14 14 13 13 13 15 17 17 14 16 20 21 24 26 28 30 32 34 36 38 40 43 45 48 50 54 56 59 60
15 14 14 15 15 16 17 19 20 21 21 22 23 26 31 34 37 39 33 29 27 21 19 17 19 18 17 16 14 14 12 13 15 17 19 22 24 26 27 29 30 32 34 36 39 41 43 45 47 49 51 53 55 57
17 18 17 16 14 14 15 17 20 22 22 22 24 27 30 36 39 38 35 31 27 23 20 17 17 15 14 15 15 15 15 16 17 19 21 22 24 26 28 30 32 33 35 37 39 41 43 46 48 50 51 53 54 56
21 19 18 18 18 18 19 20 21 22 22 23 26 31 34 37 40 39 35 31 27 23 20 19 18 15 14 13 13 11 13 12 11 11 11 13 15 17 19 22 25 28 31 34 37 39 42 43 45 47 48 50 51 52
23 22 22 21 23 23 25 25 25 26 25 26 28 29 32 34 38 38 35 30 25 24 21 17 13 10 8 7 6 5 3 2 4 5 9 13 16 20 23 25 28 31 33 35 38 40 41 43 45 46 47 48 49 50
24 25 25 25 26 27 28 28 29 30 32 33 33 31 33 36 36 35 33 29 25 22 16 11 9 9 8 6 3 3 6 9 12 16 20 23 25 28 31 34 37 39 41 43 43 44 45 46 47 48 48 48 47 48
28 28 29 29 30 29 30 30 32 33 34 35 37 40 40 42 42 40 36 30 22 17 16 14 11 8 7 7 8 10 12 16 20 24 27 31 35 38 41 43 45 47 48 48 48 49 48 48 47 45 45 45 44 44
31 32 33 34 34 34 34 35 36 36 36 38 37 35 35 34 33 31 29 27 23 18 15 13 10 6 5 8 12 15 19 24 28 32 34 38 41 43 45 46 47 48 48 48 47 47 46 44 42 41 42 43 43 43
36 37 38 38 38 38 39 39 39 38 38 38 37 36 36 35 33 30 27 24 20 15 10 7 6 7 10 13 18 23 28 31 35 38 40 41 40 40 41 43 44 45 46 46 45 43 43 42 41 40 38 37 39 41
41 41 42 42 43 43 44 43 41 41 41 39 38 37 35 33 29 26 21 17 13 10 5 4 7 11 16 22 27 31 35 38 41 44 43 42 41 39 38 38 40 42 42 41 41 41 41 41 40 38 38 38 37 38
44 46 46 47 45 45 44 43 42 40 38 36 33 30 27 24 20 17 14 10 6 5 7 9 14 19 24 28 33 37 41 45 46 44 43 40 36 34 34 35 37 39 39 38 37 38 37 37 37 37 36 36 37 38
46 46 46 44 41 40 39 38 36 33 31 27 24 21 19 16 13 11 9 8 8 9 13 17 21 27 34 38 42 45 47 47 48 47 44 42 39 37 35 34 35 36 35 35 35 36 35 34 34 34 36 37 37 37
42 41 40 37 36 35 33 31 28 25 22 20 18 16 14 11 10 10 11 11 14 18 22 26 31 35 37 41 46 50 50 49 48 46 43 42 41 40 38 35 31 31 34 34 33 34 35 35 36 36 36 36 36 36
35 35 34 32 30 28 27 24 20 18 17 16 14 12 12 13 15 15 17 19 22 24 28 32 35 37 41 45 48 50 50 49 47 44 43 41 40 39 38 35 33 33 33 34 34 35 35 36 36 36 35 36 36 36
31 29 27 25 24 21 18 16 14 13 13 14 15 14 15 15 15 17 19 21 24 28 31 35 37 41 46 49 50 50 49 48 46 45 42 41 40 38 36 34 34 33 33 35 36 36 36 35 35 35 35 35 34 34
25 23 21 18 16 14 13 12 11 11 13 12 12 11 11 12 14 17 21 25 28 33 37 40 42 45 48 49 48 48 47 47 48 45 43 41 37 34 33 34 33 33 35 36 35 35 36 35 34 35 34 34 33 32
18 14 12 11 10 10 9 10 9 9 9 10 11 13 15 17 21 23 27 30 34 38 41 43 46 48 50 48 47 47 47 47 45 45 44 42 39 36 35 34 34 35 35 35 35 35 35 34 34 34 33 33 32 32
10 7 6 6 6 5 6 7 7 8 10 12 15 18 20 23 26 29 31 35 39 42 45 47 49 49 49 47 47 47 48 46 44 42 40 39 38 36 36 35 35 35 36 35 35 34 34 34 34 34 33 32 31 32
5 4 3 3 2 2 3 6 9 12 15 19 21 24 26 28 31 34 37 40 44 46 48 50 49 51 48 47 47 47 45 43 42 40 39 38 37 36 36 36 37 37 37 36 36 35 35 35 35 35 34 32 31 31
4 4 3 3 3 4 6 9 13 17 20 23 25 28 30 33 36 39 42 45 47 48 50 48 49 48 46 46 47 46 44 43 41 39 38 37 36 36 36 37 37 37 37 36 36 36 35 35 35 35 35 34 33 33

GFSWCAN_250_spd_087.txt.gz
Wind_Speed
74 72 69 65 59 56 53 48 42 40 41 36 30 26 24 22 20 18 17 18 21 24 29 30 33 35 36 38 40 41 40 41 43 43 43 43 40 40 41 41 40 40 40 44 42 42 51 62 61 58 58 64 65 77
67 65 62 56 53 50 46 42 38 38 37 32 27 23 21 20 19 17 17 19 23 24 25 30 33 35 36 39 40 39 39 42 42 42 42 41 41 41 43 44 43 42 45 46 46 49 55 61 60 63 61 65 72 73
60 57 54 51 50 46 41 38 34 36 33 29 25 21 20 18 19 20 18 19 21 24 27 30 33 33 32 33 35 39 41 41 41 41 39 39 39 38 40 41 42 46 49 47 53 53 54 55 58 63 68 66 71 79
52 50 47 47 45 41 37 33 32 33 31 27 24 21 20 18 20 19 19 21 23 26 26 29 29 30 32 34 35 37 38 39 39 37 38 39 37 40 41 42 45 49 50 51 49 52 55 55 58 60 68 71 69 73
44 44 44 43 40 37 34 31 32 31 29 27 24 22 21 20 20 21 21 22 23 23 25 27 26 26 28 31 33 35 36 36 36 37 35 41 43 42 43 45 49 51 50 49 48 50 53 59 60 62 65 76 79 77
40 40 40 38 35 33 30 30 31 30 29 26 26 25 23 23 21 20 18 20 21 21 23 24 23 25 26 28 30 31 32 33 33 35 39 40 41 42 45 48 51 50 48 50 46 49 54 59 63 64 67 71 79 83
36 36 34 33 31 29 29 30 31 30 28 28 27 26 26 25 22 19 21 23 23 20 20 21 20 21 23 23 24 27 29 31 33 35 35 37 39 41 43 44 44 43 46 45 46 48 51 55 59 63 68 69 72 77
32 31 29 28 27 28 28 30 31 29 28 28 28 28 27 25 23 24 23 23 22 20 19 19 20 20 20 20 22 23 26 30 31 30 30 33 36 37 39 36 35 37 38 38 40 42 47 50 51 55 60 65 69 71
28 26 26 26 27 28 29 30 30 29 28 29 28 26 25 27 27 25 22 23 23 21 18 20 18 17 18 19 21 21 23 26 24 27 30 32 34 36 35 32 34 35 36 37 37 39 40 43 46 51 57 61 62 65
24 25 25 26 28 28 29 29 29 28 27 26 22 21 28 31 24 25 25 25 24 21 22 18 16 16 16 17 17 19 21 20 22 26 27 29 33 34 33 34 36 37 38 39 40 42 44 45 49 52 56 61 64 66
25 26 26 26 25 25 25 26 25 25 23 19 19 24 31 27 22 23 28 26 24 24 23 21 15 14 15 15 17 16 16 19 21 20 23 25 27 27 28 30 31 33 33 34 35 37 39 41 45 50 53 56 60 63
25 24 24 22 20 22 22 22 22 23 24 23 29 33 31 27 24 26 29 29 25 28 25 18 14 15 15 16 12 12 13 14 14 16 18 17 15 16 17 21 22 24 27 30 33 35 38 40 42 45 49 53 56 59
24 22 18 18 18 18 18 18 19 20 22 24 24 22 21 20 30 34 36 36 35 30 21 16 14 12 13 12 8 7 9 12 13 11 8 11 16 20 21 22 23 25 28 30 32 34 37 40 43 45 47 49 52 56
20 17 17 17 17 17 18 20 22 22 22 20 19 20 25 35 40 44 43 37 29 23 19 16 14 13 11 9 8 7 7 8 7 8 11 12 13 15 17 20 22 24 27 29 31 34 37 40 43 46 48 50 52 55
18 18 18 18 18 17 18 20 23 26 29 29 30 32 34 36 36 35 32 31 28 22 18 18 18 15 12 10 9 7 7 9 10 11 13 15 17 20 21 23 24 27 30 32 34 36 38 40 43 47 50 52 55 57
21 21 20 17 17 17 20 22 24 26 27 28 29 29 30 30 33 36 34 31 27 22 19 19 16 14 12 10 8 8 9 11 12 13 15 18 21 23 26 29 32 34 36 38 40 42 44 45 47 48 50 52 54 55
23 21 20 20 19 20 23 26 27 29 29 29 29 31 34 38 40 35 33 30 24 21 19 18 17 14 9 4 4 8 12 16 17 19 21 23 24 26 28 30 32 33 33 35 38 40 43 44 46 48 50 51 52 53
23 22 23 25 24 25 26 26 26 27 28 31 34 37 39 40 39 36 30 27 23 21 20 17 13 9 8 12 16 15 14 12 10 11 12 13 15 19 22 26 29 33 36 38 40 42 44 46 47 49 51 52 53 54
26 27 28 28 28 29 30 30 30 30 30 32 34 38 39 38 37 32 31 28 24 19 16 13 9 7 9 9 7 5 2 4 8 13 16 20 24 28 31 35 38 41 43 44 45 46 47 47 48 49 50 51 51 51
28 29 29 29 28 28 28 28 30 31 31 31 33 36 39 40 38 34 29 24 20 16 11 8 10 12 10 5 3 5 8 13 17 22 26 29 32 36 39 41 43 45 46 46 46 46 46 46 44 43 43 44 44 44
30 30 30 29 29 29 30 31 33 35 36 36 34 36 38 37 35 31 26 21 15 13 17 15 11 8 3 3 8 13 17 23 27 30 32 35 37 40 41 42 43 45 45 45 46 46 45 44 43 42 42 42 42 41
32 33 33 32 31 30 32 32 34 35 38 42 42 41 39 35 30 25 20 21 22 18 14 10 5 3 6 11 17 21 24 28 32 36 39 40 40 41 40 39 40 41 41 42 42 42 42 42 40 40 40 41 42 41
34 35 35 36 36 36 37 38 39 39 38 37 37 36 32 30 29 29 25 20 16 11 7 3 4 8 13 17 21 25 30 33 38 42 44 43 43 41 40 40 39 38 38 40 41 42 41 39 38 38 38 38 38 38
38 40 42 43 43 42 42 43 43 43 43 42 41 39 36 32 28 23 18 14 10 6 5 7 11 15 19 23 28 33 39 43 46 48 49 48 46 43 41 40 40 39 38 38 38 38 37 38 38 38 37 37 36 37
48 48 48 48 48 48 47 46 45 43 40 37 34 31 28 23 20 16 12 9 7 9 12 14 17 21 26 29 33 38 43 46 48 50 49 46 44 42 40 39 38 38 37 35 35 36 36 35 35 36 36 36 36 36
48 48 47 45 44 43 41 39 36 34 31 29 27 24 21 18 15 13 11 11 12 13 16 20 25 28 31 33 37 42 45 47 48 49 48 47 45 43 40 37 35 34 34 34 34 34 35 35 35 36 36 36 35 34
43 43 42 41 38 35 33 30 29 28 26 24 22 20 17 15 14 13 13 11 12 15 19 23 27 31 34 38 42 44 47 47 48 48 47 46 44 43 40 37 36 35 34 33 33 33 33 35 35 34 34 35 34 34
39 37 35 33 31 28 25 24 23 23 21 20 17 15 15 14 10 8 8 12 15 19 23 28 31 35 38 42 43 47 47 48 48 47 47 45 44 42 39 37 36 35 34 34 34 34 35 35 35 35 34 33 33 34
32 29 27 26 24 22 23 20 16 16 16 15 13 11 9 7 8 9 13 16 19 24 29 34 37 40 44 44 47 48 48 48 48 48 47 45 43 41 39 37 36 35 35 35 35 36 36 36 35 34 34 33 32 32
23 20 19 18 18 17 16 15 15 13 12 10 10 9 10 10 12 16 20 23 27 31 34 38 42 44 46 48 48 48 48 48 48 47 45 44 41 38 36 36 35 34 35 36 36 37 37 36 35 34 34 33 32 31
15 14 14 12 12 12 13 12 10 9 9 9 10 12 14 17 20 24 27 29 32 35 39 43 45 46 49 48 48 47 47 47 47 46 44 43 42 39 37 36 36 36 36 36 36 37 36 36 35 35 34 34 33 31
11 10 9 9 8 7 7 6 5 5 8 10 13 17 20 23 26 29 31 33 37 41 44 46 47 49 49 49 47 46 48 47 45 43 42 41 40 39 38 37 37 37 38 38 38 37 36 35 35 35 35 35 34 33
6 5 5 5 3 3 1 1 4 8 11 15 17 20 23 27 31 34 35 38 42 44 46 48 47 48 48 46 45 47 48 45 44 42 42 41 40 39 39 39 39 39 39 39 39 38 37 36 36 36 36 35 34 33

GFSWCAN_250_spd_090.txt.gz
Wind_Speed
85 80 80 78 75 72 69 67 63 60 54 48 43 40 35 32 30 25 22 19 22 19 19 20 22 26 30 32 34 34 35 35 38 39 38 38 41 42 43 42 43 44 45 45 44 44 47 49 44 43 45 53 59 66
79 75 75 74 71 69 65 63 58 53 47 42 38 36 32 29 27 22 21 20 19 16 17 21 24 27 29 33 35 37 37 37 38 37 36 38 40 42 44 44 43 43 43 45 45 47 51 48 44 43 46 56 65 70
74 73 71 68 66 62 60 56 52 47 42 37 35 32 29 28 24 20 19 18 17 16 18 20 25 31 32 33 36 37 37 38 37 37 37 36 37 39 41 42 43 43 44 46 45 48 51 50 47 46 48 57 68 71
67 65 63 60 58 56 54 50 47 44 37 34 32 29 27 26 22 19 19 16 15 15 18 19 21 24 26 27 28 31 35 37 36 37 36 37 38 38 39 43 43 43 47 48 49 49 49 47 47 47 49 57 66 75
58 57 54 52 51 50 48 46 44 39 35 31 30 28 26 25 22 18 17 16 15 15 16 17 19 22 23 27 30 32 34 36 35 37 39 41 41 40 42 45 45 45 50 52 50 50 49 50 52 51 52 57 63 72
49 47 46 45 45 44 42 42 38 35 32 31 29 28 25 25 22 18 18 17 14 15 17 18 19 19 22 25 27 29 31 32 32 36 39 41 41 42 44 46 46 48 52 53 48 48 48 48 53 55 56 55 60 66
42 41 40 41 40 39 39 36 35 33 32 31 29 28 25 25 22 19 19 18 16 17 17 17 18 21 22 24 25 26 27 29 31 34 35 37 41 43 44 47 46 51 54 49 47 45 46 45 48 54 57 59 59 62
37 36 36 36 35 34 33 33 33 32 33 31 29 27 26 26 25 23 22 19 18 18 17 17 18 19 19 20 22 23 25 29 30 31 34 36 38 38 43 45 48 49 47 45 44 44 45 45 43 47 51 58 61 62
32 31 31 31 30 30 31 32 32 33 32 29 28 26 27 28 27 25 22 21 20 17 16 18 17 16 15 17 19 22 24 26 26 28 28 32 33 38 40 41 41 40 39 38 41 41 41 42 43 44 45 51 55 58
29 28 27 28 29 29 31 32 32 32 30 26 25 28 29 27 25 26 24 23 21 17 16 18 16 14 14 16 17 19 21 22 21 22 26 29 30 32 34 34 32 32 32 37 39 41 42 43 43 44 46 49 54 59
26 26 26 27 29 30 31 31 31 29 24 25 28 30 28 25 26 31 27 23 20 17 18 19 12 11 11 12 13 14 16 19 20 23 25 25 25 27 30 30 31 34 37 39 39 39 40 40 40 42 44 47 52 57
25 26 27 28 29 30 30 29 27 26 28 28 29 32 27 25 25 33 31 28 23 24 23 16 11 10 8 9 10 11 14 15 17 17 17 17 19 18 20 23 25 28 30 31 32 34 36 37 38 40 43 46 49 53
27 27 27 28 27 26 26 27 28 27 26 28 29 28 24 25 27 35 36 36 31 24 20 13 10 8 8 9 12 11 11 11 12 14 17 18 19 19 18 19 21 23 26 28 29 32 34 36 36 36 38 41 44 48
27 26 25 24 26 27 27 27 25 25 24 28 29 23 25 29 32 38 42 34 28 24 18 13 11 8 8 12 12 10 8 6 6 6 6 8 10 12 13 14 16 19 22 24 26 29 31 34 37 39 41 42 43 45
24 24 25 25 22 22 23 23 23 24 25 26 28 28 34 42 45 44 36 30 30 27 17 13 12 11 12 11 9 7 4 3 3 3 4 5 7 9 11 14 17 19 21 23 26 29 32 35 38 41 44 47 49 50
25 25 22 20 20 20 21 22 24 26 30 35 36 37 42 39 32 32 33 33 29 21 18 17 16 15 11 8 5 3 3 4 7 9 11 14 17 19 22 23 25 27 30 32 34 37 38 41 43 45 47 50 52 53
23 21 21 21 21 21 21 22 23 25 26 27 26 28 28 28 31 32 32 27 24 21 18 17 16 15 10 8 6 6 9 11 13 14 13 13 14 17 20 24 28 30 33 35 39 42 44 46 48 49 51 52 54 55
22 22 23 23 21 20 21 24 26 25 24 24 26 30 32 32 31 30 28 27 21 18 16 15 14 12 9 7 6 6 4 5 6 9 13 16 18 21 25 28 31 35 39 42 45 47 49 51 53 55 55 56 56 57
24 25 26 25 25 25 25 25 26 27 30 32 33 34 33 31 32 32 31 25 21 20 17 16 12 9 5 5 5 5 7 8 10 12 17 20 24 26 30 34 38 41 44 46 48 50 51 52 52 52 51 51 51 52
27 27 27 27 28 29 28 28 27 27 28 30 32 33 36 37 35 31 27 23 21 19 16 13 12 11 10 8 4 2 7 12 16 20 24 28 31 34 37 39 41 43 45 46 48 48 49 49 48 47 46 46 46 44
27 28 28 28 28 29 29 29 30 29 29 33 36 37 37 33 29 26 23 23 20 18 18 17 13 10 6 1 4 8 13 19 25 28 32 34 37 39 40 41 41 41 42 44 45 46 46 46 45 44 44 43 43 43
29 29 29 29 30 30 30 32 33 33 35 37 36 35 34 30 27 25 24 21 20 20 17 13 9 2 2 7 12 16 21 24 29 33 38 42 45 46 46 44 42 41 41 41 41 42 43 42 42 43 43 41 40 39
30 31 30 29 30 32 36 36 36 37 39 37 36 33 30 28 26 23 23 23 20 16 11 7 3 5 10 14 16 19 24 29 35 40 44 47 49 50 48 46 45 43 42 42 41 41 41 41 40 39 38 38 38 38
33 34 34 33 34 37 40 40 40 41 38 36 33 31 29 26 25 25 22 18 14 10 7 5 6 9 14 17 20 25 31 36 41 45 49 50 52 52 51 49 46 43 42 41 40 40 40 39 37 37 36 37 37 37
37 38 38 38 38 39 41 41 40 38 35 33 31 30 29 27 25 21 16 14 10 7 5 6 10 15 18 23 27 32 36 40 45 49 51 52 53 52 50 48 45 44 42 39 39 39 38 37 37 37 36 36 36 37
41 42 42 41 42 43 42 41 39 37 35 33 32 30 26 22 19 16 13 10 7 6 8 11 15 21 25 28 31 35 39 43 47 50 52 53 52 51 50 47 45 43 41 39 38 37 37 37 37 37 37 37 36 36
45 45 44 45 45 44 43 41 38 36 33 30 27 25 22 19 15 11 10 9 9 9 11 15 19 23 27 31 35 39 44 46 49 51 53 53 52 51 49 47 45 43 40 39 37 36 36 37 37 37 37 37 36 35
43 43 41 40 39 37 35 34 32 30 27 24 22 19 15 13 11 9 8 6 8 11 15 19 23 27 31 34 38 43 46 49 50 51 52 52 52 51 49 47 45 43 41 39 38 38 38 38 38 38 38 37 36 35
38 37 35 34 33 31 30 27 25 22 20 18 16 14 12 10 7 5 7 10 12 15 19 23 28 32 35 38 43 46 49 50 51 53 53 53 50 49 48 46 45 43 42 41 40 39 39 38 38 38 38 37 36 35
30 28 27 26 25 25 24 23 22 19 16 14 11 9 7 5 5 7 10 14 17 22 26 31 34 37 40 43 47 49 51 51 52 53 53 50 47 46 45 44 42 41 40 40 40 40 39 39 38 37 36 35 35 35
23 22 21 21 21 20 19 18 16 13 11 9 7 5 6 7 10 14 18 21 24 28 32 36 39 42 44 47 50 51 52 52 54 53 50 47 46 44 44 42 41 40 40 40 40 40 39 39 38 37 37 37 36 35
19 18 18 17 16 15 13 12 9 7 5 4 5 7 10 14 18 21 24 26 30 33 36 40 44 47 47 49 51 52 52 53 52 50 47 45 44 43 41 40 40 40 40 39 40 39 39 39 39 38 38 37 36 35
14 13 13 11 11 10 8 5 3 0 3 6 9 13 17 20 23 27 29 31 35 38 41 44 47 48 49 51 52 52 53 52 50 46 44 43 43 42 41 41 41 40 40 40 41 41 41 40 39 38 37 36 35 34

GFSWCAN_250_spd_093.txt.gz
Wind_Speed
83 84 84 83 83 84 84 81 78 72 66 63 60 56 53 50 45 39 29 30 23 17 15 16 17 18 21 25 25 27 29 29 32 35 37 36 36 37 39 41 42 43 40 38 41 46 48 45 45 46 47 47 46 43
86 86 88 87 85 83 78 74 69 66 62 61 57 53 49 45 41 35 26 26 21 16 15 16 17 20 24 27 28 30 31 31 32 34 35 34 34 34 35 40 43 43 42 42 43 44 49 47 47 44 42 41 43 42
82 81 81 77 76 73 70 69 65 62 59 56 53 48 45 41 37 30 24 22 18 15 14 16 19 20 24 26 27 28 30 31 32 32 35 36 35 35 36 39 42 43 43 45 45 47 47 45 44 42 42 40 41 47
72 73 72 69 69 69 67 64 62 58 55 51 47 43 40 37 32 26 23 19 15 14 13 13 16 18 20 24 25 28 31 32 33 35 36 36 35 35 37 40 43 45 45 46 47 47 46 45 43 42 42 41 42 46
67 67 66 66 64 62 61 59 55 52 50 46 42 40 36 34 29 23 21 17 14 12 12 13 15 18 21 23 25 27 29 32 35 36 38 38 38 38 39 41 42 45 47 48 50 50 48 47 46 44 44 44 44 44
58 58 57 56 55 54 52 50 48 47 44 40 40 36 34 32 26 21 20 16 15 14 14 14 15 18 21 22 24 26 28 30 32 34 37 38 40 41 42 43 44 45 45 49 51 50 50 49 48 48 47 45 43 45
50 49 49 49 47 45 43 42 43 41 39 38 36 34 33 30 25 21 20 17 17 15 14 13 14 16 19 21 23 24 26 28 30 33 37 38 39 41 43 46 45 45 46 48 50 47 46 47 47 48 48 50 48 50
42 42 43 42 40 38 38 39 38 37 37 35 34 33 31 29 24 22 22 18 17 16 15 15 16 16 17 18 19 21 24 26 27 30 33 36 38 39 42 43 43 43 44 45 47 45 42 43 43 45 46 48 51 54
36 35 35 36 36 36 36 37 36 35 33 33 33 32 30 27 24 22 22 19 18 17 16 16 15 15 15 16 17 19 21 23 24 26 29 33 36 38 37 39 40 42 43 44 44 44 42 43 44 44 45 46 51 55
33 33 33 34 34 34 35 35 33 33 33 33 32 32 30 26 23 23 24 22 21 18 16 15 13 12 12 12 15 17 18 18 18 21 25 28 28 30 31 33 35 38 39 40 39 38 41 42 44 44 44 44 45 49
30 31 31 31 32 32 32 31 32 33 31 32 33 31 28 25 23 25 25 23 20 18 18 14 10 9 7 9 10 13 16 16 18 20 21 22 23 25 26 28 29 31 31 33 36 37 39 41 39 39 41 42 44 47
29 29 30 30 29 30 31 31 30 30 33 33 32 27 22 20 23 27 27 27 24 18 15 11 9 7 4 5 7 9 11 12 13 14 15 18 21 22 23 24 26 27 29 31 32 32 33 35 36 37 39 41 43 46
28 28 28 29 29 29 29 29 31 31 30 28 25 21 19 22 27 32 33 29 17 15 12 9 7 4 5 4 3 2 5 8 9 12 13 15 17 19 21 23 24 25 26 28 30 30 31 32 34 36 38 40 43 45
27 28 28 27 27 27 28 28 28 27 26 23 22 23 24 30 34 37 30 19 20 18 13 10 8 6 4 3 2 5 4 4 5 6 9 9 10 10 12 13 15 16 18 21 23 25 28 31 33 35 38 41 43 45
27 27 27 26 26 26 25 25 24 23 22 23 25 27 32 38 38 35 24 22 23 20 13 11 10 8 6 4 4 8 7 8 8 7 8 6 7 8 10 12 14 17 19 22 26 30 33 36 39 41 43 45 47 48
26 25 24 23 23 24 23 23 24 23 24 29 34 37 40 38 37 30 26 28 27 20 13 14 12 10 6 7 9 10 11 9 6 4 4 2 3 6 9 12 14 18 21 25 29 32 36 38 41 44 46 48 50 51
21 21 22 22 21 21 22 23 24 25 27 31 34 34 38 33 29 27 31 31 27 19 16 14 11 9 10 11 12 8 6 4 4 5 8 10 11 14 17 20 23 26 30 33 37 40 43 45 47 48 49 50 51 51
22 23 23 23 23 22 22 21 21 22 22 23 25 30 30 22 20 26 31 25 22 21 17 14 13 14 13 10 6 7 6 6 6 8 11 12 15 19 23 27 31 34 38 41 45 48 51 53 54 54 54 54 54 54
23 23 22 23 25 25 24 23 24 23 24 25 27 29 30 29 28 24 24 27 24 20 19 18 17 14 10 9 7 6 3 3 6 9 14 18 21 25 29 32 36 40 43 46 47 49 50 52 52 52 52 52 51 50
22 22 23 24 24 23 24 27 30 29 29 30 30 30 30 31 30 31 31 27 25 23 22 20 16 13 11 8 5 2 3 8 12 16 19 23 28 31 34 37 39 41 43 41 42 44 46 47 48 48 49 48 47 46
23 23 25 25 26 27 27 27 27 27 29 29 31 36 37 38 36 32 30 29 28 25 20 18 16 12 9 5 1 5 10 14 18 21 25 30 35 38 41 43 45 46 45 41 41 41 42 43 43 44 44 43 43 43
26 26 26 27 26 27 26 27 28 28 32 34 35 38 38 37 33 31 29 27 23 22 20 16 14 9 4 3 7 10 14 19 23 27 31 36 41 45 48 50 50 50 45 43 41 40 40 40 40 40 40 40 39 39
28 29 30 30 30 30 31 31 33 35 38 38 37 37 34 32 30 29 25 23 23 20 17 12 8 4 5 8 10 14 18 22 27 32 37 42 46 48 50 51 52 50 47 45 42 41 39 38 37 37 36 36 36 36
29 30 31 32 32 33 34 36 38 39 38 37 34 32 31 28 26 26 26 22 19 15 11 7 4 5 8 10 13 17 22 27 33 38 42 46 48 49 51 53 53 53 50 46 42 41 39 38 36 35 34 34 34 35
32 31 31 34 36 35 36 37 37 36 35 33 31 29 27 28 28 24 21 18 14 10 8 6 6 7 10 14 19 24 28 33 37 41 45 49 51 52 54 55 55 52 49 45 42 40 39 37 36 35 35 35 35 36
34 33 34 37 38 39 38 38 35 32 28 27 28 29 28 25 22 19 16 13 10 7 4 4 8 13 17 21 25 28 32 37 41 46 49 52 53 53 54 56 55 50 46 43 42 40 39 38 37 36 36 37 37 37
35 34 37 39 41 39 37 34 32 31 32 32 29 27 24 20 17 15 13 9 6 3 5 9 13 17 21 24 28 33 37 40 45 49 52 54 54 54 55 56 53 48 45 43 41 39 38 37 37 37 37 37 37 37
39 39 40 39 38 35 34 33 33 32 29 27 24 21 17 15 13 10 7 4 3 6 9 13 16 20 24 29 33 37 40 44 49 52 54 54 55 56 57 54 51 47 45 42 40 40 39 39 39 39 38 38 38 38
40 40 40 39 38 35 33 30 26 23 21 19 17 15 14 11 8 6 5 5 7 10 13 17 21 25 30 34 39 41 44 48 52 55 56 55 57 58 55 52 49 48 45 43 42 41 41 41 40 39 39 38 38 38
38 37 35 33 31 29 26 24 22 20 18 16 14 11 8 6 4 3 6 9 12 15 19 24 28 32 36 40 43 45 48 52 54 56 56 56 57 55 51 49 48 46 43 43 43 42 41 40 40 40 40 39 38 38
30 30 29 28 26 25 23 21 18 16 14 12 9 7 4 2 4 7 11 14 18 22 26 30 34 37 40 44 47 49 53 53 54 55 55 55 55 51 49 48 46 44 43 42 42 42 41 41 42 42 41 40 38 36
26 25 24 24 23 21 20 17 14 11 8 5 2 0 3 7 10 14 18 22 26 30 34 36 39 41 43 46 49 51 52 53 54 54 54 54 51 49 47 46 43 42 41 41 41 41 41 42 42 41 39 38 36 34
22 21 21 20 19 18 16 13 10 7 4 2 5 9 13 16 19 22 26 29 33 35 37 40 42 44 46 48 49 51 51 53 53 54 53 51 48 46 45 43 42 41 41 41 40 41 42 42 41 40 39 37 35 33

GFSWCAN_250_spd_096.txt.gz
Wind_Speed
85 85 83 82 82 80 76 73 70 68 66 64 64 67 65 61 55 54 52 45 36 29 27 25 23 22 19 19 18 24 29 34 35 36 38 40 41 41 39 40 44 46 48 51 53 52 51 47 46 46 47 46 48 50
86 85 82 81 80 77 74 70 67 66 67 68 69 69 65 57 53 51 47 42 31 29 24 24 21 21 19 20 19 23 30 36 38 38 41 42 42 40 39 40 40 43 45 48 50 50 46 44 43 45 47 47 47 46
80 79 77 76 75 73 72 70 70 72 74 73 72 69 61 55 50 47 43 36 29 26 22 21 20 20 18 17 20 25 30 34 36 37 39 40 41 41 39 38 39 40 43 46 48 49 45 41 41 41 42 45 46 49
79 79 79 78 80 78 78 77 77 76 75 71 67 61 56 50 46 43 39 30 27 23 20 19 18 18 17 19 21 24 28 33 36 37 38 40 41 42 40 39 39 41 42 44 46 47 44 43 43 43 44 46 47 45
76 75 74 75 75 73 73 69 68 67 65 62 60 56 50 45 42 38 35 26 23 20 19 19 18 19 19 20 21 24 27 31 34 37 38 39 40 40 40 39 39 41 41 44 45 47 46 46 46 45 46 45 44 42
71 70 69 69 69 67 65 63 62 61 62 60 56 51 45 41 40 34 29 24 21 20 18 17 17 17 19 21 22 23 26 29 34 36 38 38 40 41 42 41 41 41 41 44 47 48 49 47 47 46 45 46 45 44
63 62 61 63 62 60 59 58 58 57 55 52 49 44 40 39 34 30 27 23 21 19 18 16 16 17 20 20 21 23 25 27 29 32 36 38 40 42 43 43 42 42 42 43 44 45 46 47 48 48 48 48 46 46
52 53 54 55 55 54 53 52 50 48 47 44 42 38 35 34 28 29 27 22 21 18 17 18 18 19 18 18 20 23 25 25 28 30 33 37 37 39 39 40 41 42 43 43 43 44 45 46 47 48 49 49 50 49
46 46 47 46 45 45 45 44 43 41 41 39 35 32 31 29 28 28 26 22 22 19 18 19 19 19 18 19 21 23 23 23 25 27 30 33 33 34 36 38 39 40 39 40 42 44 45 46 46 47 48 49 49 51
37 39 39 39 40 40 40 38 38 38 36 32 30 29 29 29 28 27 25 22 22 19 19 18 17 17 18 20 21 21 22 21 23 26 27 27 28 31 32 33 33 35 37 38 40 42 43 44 46 47 47 49 50 49
34 33 34 34 34 34 34 34 33 31 29 28 28 29 29 27 27 27 26 24 23 20 18 18 16 18 19 18 17 18 18 18 18 18 19 21 22 26 28 31 33 34 35 36 37 38 40 42 44 46 48 49 50 50
33 32 32 32 31 31 31 29 28 28 29 29 31 29 27 27 28 27 25 25 23 20 20 17 17 17 16 15 14 15 15 13 13 15 16 18 19 20 22 25 27 30 31 32 33 35 37 37 39 40 41 42 44 45
31 31 31 30 30 29 28 28 30 30 30 29 27 25 27 29 31 31 28 23 22 20 18 18 17 15 11 9 9 10 7 9 9 10 12 14 15 17 20 21 24 26 28 30 32 34 36 38 40 42 44 45 47 48
29 29 28 28 28 28 29 29 29 29 27 25 26 28 32 34 33 28 19 23 24 20 20 18 15 10 7 7 7 6 7 7 8 10 11 13 13 15 17 19 20 22 24 26 29 31 34 36 38 41 44 45 47 50
28 27 27 27 28 28 28 28 27 27 28 29 32 35 37 31 26 22 22 26 24 21 19 16 13 10 8 8 8 7 9 10 10 10 10 11 12 12 13 13 15 17 20 23 26 29 32 35 38 40 43 45 47 49
25 25 26 27 27 27 26 27 29 30 31 33 35 37 34 29 25 25 28 29 24 21 17 15 12 12 11 11 11 11 10 10 10 8 8 8 10 11 11 11 13 16 20 24 27 31 34 38 41 44 46 48 50 52
25 25 25 25 27 28 29 29 30 30 32 35 37 33 29 25 23 27 30 28 23 22 17 15 14 13 13 13 13 12 12 9 8 7 3 2 5 7 10 14 18 22 26 30 33 36 40 43 44 47 48 49 49 50
25 26 26 26 26 27 28 29 30 34 35 34 30 32 29 23 26 28 31 29 26 22 19 17 18 17 17 14 11 11 10 7 4 0 2 6 10 14 17 21 26 30 33 36 38 42 45 48 49 52 52 53 52 51
26 25 25 26 26 26 26 28 30 32 32 31 27 22 24 23 25 26 29 27 26 22 21 21 21 20 15 13 10 8 5 1 2 6 10 14 17 20 23 27 32 36 38 40 42 44 45 45 46 48 50 51 52 51
25 24 24 24 26 28 29 29 30 29 29 31 31 30 29 24 22 28 30 28 26 26 25 23 21 16 13 12 8 4 3 4 8 12 15 19 22 26 29 32 36 40 43 43 43 43 41 42 43 45 46 47 48 48
26 25 24 24 25 27 31 32 32 32 32 31 31 31 30 29 29 31 30 30 29 26 25 20 17 16 12 8 6 4 5 8 12 15 18 22 27 32 36 39 41 43 46 47 46 44 42 40 39 40 41 42 42 42
27 28 29 28 27 25 27 30 31 31 32 32 32 34 35 34 34 35 32 30 27 24 20 19 17 13 9 5 3 4 7 11 15 20 24 28 32 36 40 44 47 48 47 48 48 46 42 38 37 37 37 38 38 38
29 28 28 29 29 28 29 30 31 32 34 34 35 36 37 37 35 32 31 27 24 23 22 18 13 9 4 1 4 7 11 15 20 24 28 32 38 43 46 48 49 48 48 49 48 44 40 38 37 36 35 34 34 35
31 31 30 30 30 31 30 33 35 37 39 41 41 38 35 33 31 29 28 28 25 22 18 13 8 4 0 4 8 12 16 19 24 29 34 38 43 46 48 50 49 50 51 51 48 43 40 38 37 35 33 33 33 33
31 32 33 34 36 37 39 39 39 40 41 39 36 34 33 31 31 30 27 24 21 17 12 8 4 2 4 9 13 17 21 25 30 35 39 43 47 48 51 52 51 52 53 51 46 43 41 39 36 35 34 34 34 35
34 35 39 39 42 43 41 40 39 37 35 34 33 33 32 31 29 26 22 19 16 13 8 4 1 5 10 14 17 22 27 32 36 40 44 47 49 50 53 54 54 54 51 48 46 44 42 39 38 37 37 37 36 37
37 40 43 45 43 41 39 37 37 36 34 33 33 31 29 27 23 19 16 13 10 6 2 2 6 10 14 19 24 28 32 37 41 45 48 50 52 53 54 55 55 53 50 47 46 44 41 39 39 39 39 39 39 39
40 40 41 40 39 37 35 34 33 33 33 31 29 25 21 18 16 14 11 7 4 1 3 7 11 16 20 24 28 33 37 41 46 49 52 53 55 56 55 54 53 51 48 47 44 42 41 41 41 41 41 40 40 40
41 40 39 38 36 34 32 32 31 29 26 23 21 18 17 15 12 10 6 4 3 6 9 14 18 21 26 30 35 38 42 46 49 52 54 55 56 56 55 53 52 50 48 46 43 42 42 42 41 41 41 41 41 41
38 36 34 33 32 31 30 27 26 23 21 18 16 15 13 10 7 4 2 3 7 10 14 18 23 27 31 35 39 43 46 49 51 53 55 55 56 55 54 51 50 49 47 45 44 43 42 41 41 41 41 40 39 39
36 35 33 32 30 28 25 22 20 17 16 15 13 11 8 5 2 1 5 8 12 16 21 25 29 34 38 41 43 46 50 51 53 54 53 55 55 54 51 49 49 47 45 43 43 42 42 42 41 41 41 40 39 37
32 31 29 28 26 23 21 19 17 16 14 11 9 7 4 2 5 9 11 15 20 24 28 32 36 39 42 44 46 50 52 53 54 53 55 56 53 50 48 49 48 45 43 42 42 41 41 41 41 40 39 39 37 36
28 27 26 24 23 21 19 16 14 12 10 6 3 4 7 10 12 16 19 22 25 29 33 37 41 44 46 47 50 53 54 54 54 55 55 53 51 48 48 47 45 43 42 41 41 40 40 40 40 39 39 38 37 35

GFSWCAN_250_spd_099.txt.gz
Wind_Speed
94 95 92 93 93 91 89 84 79 76 73 73 71 70 69 68 66 60 54 51 50 49 49 43 40 33 27 23 22 24 27 32 36 38 38 38 36 37 37 40 42 45 48 44 47 52 58 59 60 61 58 54 53 50
94 95 94 93 93 85 79 80 78 76 74 74 70 70 68 67 62 56 51 52 52 50 48 41 38 30 25 22 22 25 29 34 38 41 40 40 39 39 41 43 44 44 45 46 47 50 51 55 56 55 52 50 49 48
86 86 87 86 85 82 80 79 78 77 77 74 70 69 67 63 57 53 53 54 53 50 45 39 33 29 23 22 22 25 28 31 38 43 44 42 43 44 44 45 47 46 46 46 45 44 46 48 51 52 51 50 49 49
82 83 83 83 82 82 79 79 78 77 76 74 73 71 64 58 58 56 55 55 52 49 41 35 29 26 22 22 23 24 27 31 37 43 43 44 45 46 46 47 46 43 41 42 43 43 44 46 48 50 49 49 49 48
82 82 82 82 83 83 80 77 76 75 74 69 68 65 64 64 61 58 53 51 51 43 36 31 25 22 21 22 23 24 26 28 32 39 44 45 46 47 46 45 43 42 41 41 42 44 45 47 48 49 49 48 47 48
80 80 81 80 81 81 80 77 77 75 72 69 67 63 60 56 55 51 48 49 45 37 31 26 23 21 21 21 23 24 26 29 31 35 39 43 45 45 44 45 44 42 42 43 43 44 45 46 47 48 50 50 49 50
75 75 75 75 75 75 74 72 71 71 69 65 61 56 53 52 51 46 47 45 37 31 27 23 22 22 22 21 22 24 24 26 31 34 37 39 42 43 44 44 43 43 43 43 43 43 44 45 47 48 50 52 52 52
69 70 69 69 69 70 68 67 66 64 63 59 56 54 51 49 45 42 42 37 29 28 24 22 23 21 20 19 19 22 24 26 28 30 34 36 37 39 41 41 44 45 46 45 44 43 44 44 45 47 48 50 51 52
58 60 61 62 64 64 62 62 62 60 56 51 48 44 42 42 39 37 37 30 26 25 23 22 22 20 19 18 20 21 23 23 24 27 30 32 33 36 37 39 40 41 42 43 44 44 44 43 44 45 46 47 49 50
50 51 51 53 54 52 53 54 53 50 48 46 43 40 38 38 35 34 31 26 25 22 22 22 21 20 19 20 20 20 19 20 23 24 25 25 27 29 31 33 36 38 39 40 42 43 44 45 47 47 48 48 49 51
40 42 45 46 45 46 47 46 44 42 39 36 36 36 36 34 31 30 27 26 25 24 23 22 20 20 20 19 18 19 19 20 19 21 21 22 24 26 28 30 32 34 35 37 39 41 44 46 47 48 50 52 52 53
37 36 37 38 40 40 39 39 38 36 36 36 35 36 32 29 29 29 27 27 25 25 25 22 20 19 18 18 18 18 17 16 17 18 20 20 21 22 24 26 28 30 32 34 36 37 40 42 44 46 48 51 53 54
37 35 35 34 34 35 35 36 36 35 34 33 33 30 30 31 32 30 28 25 24 25 24 21 19 18 18 16 16 15 14 13 14 15 17 18 19 20 21 22 24 26 28 30 32 35 38 40 42 45 47 49 51 53
35 35 33 32 33 34 34 32 33 33 31 30 29 31 32 33 30 23 24 27 28 26 24 23 20 19 16 14 14 12 12 11 12 13 14 15 16 18 19 20 21 23 25 27 30 32 35 37 40 42 44 46 49 51
33 34 33 33 32 31 31 32 31 30 31 31 33 36 37 29 25 27 27 27 28 27 25 22 21 16 13 12 12 11 8 7 6 7 9 9 10 11 13 14 16 19 21 23 26 29 31 34 37 41 43 46 48 50
30 31 31 30 30 30 30 31 30 30 32 33 36 36 27 28 30 29 28 29 30 27 25 23 17 13 13 12 7 4 7 7 7 8 7 7 8 10 11 13 15 18 20 23 26 30 33 36 40 43 45 49 51 52
28 29 28 29 29 29 29 30 31 33 36 37 36 26 28 27 28 28 29 30 30 27 25 23 18 15 13 12 11 10 10 9 7 8 10 10 11 11 12 14 16 20 23 27 30 34 37 40 43 45 48 51 52 54
27 28 28 28 28 29 32 34 36 39 36 34 29 28 28 28 30 31 32 32 30 27 25 22 20 18 16 14 12 12 9 9 10 7 7 8 8 10 14 18 22 25 28 31 34 36 39 42 43 44 47 49 51 54
30 31 33 34 35 34 33 35 36 34 31 28 24 27 30 30 32 33 34 31 30 26 23 22 22 20 18 16 13 12 11 7 6 5 7 11 14 16 19 22 26 30 33 37 39 40 41 42 42 44 45 46 49 51
32 33 33 33 34 35 36 35 31 28 27 26 25 27 27 30 32 34 35 32 30 26 25 23 21 20 17 13 14 10 6 4 7 9 12 15 17 21 25 29 33 36 38 40 41 42 42 44 46 46 45 45 46 47
30 30 31 35 35 33 32 29 29 30 28 27 26 28 30 29 32 34 35 32 29 24 22 21 20 17 14 14 10 6 5 7 9 13 16 19 23 27 31 36 39 42 44 46 46 45 45 46 47 45 43 43 44 44
30 30 31 31 32 33 32 32 31 30 30 31 33 32 30 31 33 32 30 30 26 23 22 20 16 15 14 9 6 4 6 9 13 16 20 24 29 33 38 42 44 46 48 48 48 48 48 49 46 43 41 41 42 42
30 30 27 27 27 27 29 29 28 27 28 29 31 32 31 31 34 31 28 27 24 22 20 17 17 14 9 6 3 5 9 13 15 20 25 30 35 39 43 46 48 49 50 51 50 50 50 48 44 42 40 39 39 39
28 30 31 29 28 28 27 28 28 28 31 33 34 32 30 31 32 30 27 24 25 22 22 20 14 9 5 2 4 8 12 15 21 26 31 35 40 45 47 49 52 52 53 53 53 52 50 47 44 42 40 38 38 39
29 29 30 29 30 30 30 31 32 34 36 37 35 33 32 31 29 28 28 24 23 23 18 14 10 6 2 3 7 12 17 22 27 32 36 40 45 49 52 53 55 55 55 56 55 53 49 46 44 41 39 39 39 38
32 32 33 33 33 33 33 34 35 35 35 35 34 32 31 31 30 27 27 25 21 17 14 10 6 3 2 7 12 17 22 27 32 37 41 45 49 53 56 58 58 58 57 57 55 52 49 46 43 42 41 40 40 39
32 34 35 36 38 38 38 39 39 39 37 35 35 33 30 29 28 25 22 19 16 12 8 5 2 3 8 13 18 23 28 33 37 41 46 49 53 56 58 58 58 57 58 57 53 51 48 45 43 43 42 41 40 38
37 39 40 40 41 41 39 37 36 36 35 34 33 32 30 26 22 19 17 14 10 7 4 0 5 9 15 19 24 28 33 39 42 46 51 53 56 58 59 58 57 57 57 54 51 50 47 45 44 43 43 41 40 39
40 40 40 39 38 38 37 35 34 33 33 32 29 26 23 20 17 15 12 10 6 3 2 6 11 16 21 25 29 34 39 43 46 50 54 57 59 59 58 59 58 56 54 51 50 47 45 44 44 44 43 42 40 40
39 39 37 36 35 35 34 34 33 31 29 27 24 21 19 17 14 11 8 5 2 4 8 13 17 21 26 30 35 39 43 47 51 54 57 59 59 58 58 58 56 53 52 51 48 46 45 44 44 43 42 41 40 40
36 35 35 34 34 34 32 30 28 26 23 21 19 18 15 12 8 5 1 3 7 10 14 18 22 27 31 36 40 44 47 51 53 56 58 57 57 57 56 54 52 52 51 49 47 45 44 44 44 43 42 41 41 40
34 34 34 33 31 29 27 25 23 20 18 16 14 12 9 6 3 2 5 9 12 15 19 24 28 32 37 40 44 47 51 53 55 57 56 56 56 56 53 51 50 50 48 47 46 44 44 44 43 42 41 40 40 40
34 33 31 29 27 25 23 20 18 17 15 13 11 9 7 5 6 9 11 14 17 21 25 29 33 37 41 45 48 51 54 55 56 55 55 55 55 52 50 50 50 48 46 45 44 44 43 43 42 41 40 41 40 39

GFSWCAN_250_spd_102.txt.gz
Wind_Speed
93 92 88 84 87 87 86 86 81 81 79 80 79 81 80 80 81 71 66 62 63 59 57 60 59 48 43 37 30 26 28 28 28 31 35 39 40 41 43 45 47 48 48 53 52 56 59 58 56 56 55 55 55 56
100 93 92 90 86 86 86 88 83 86 87 84 86 83 82 79 74 64 65 65 62 60 61 61 53 46 38 34 28 26 28 29 29 32 39 40 42 42 44 44 43 46 50 50 45 45 51 57 58 58 58 59 60 60
99 97 96 94 95 96 93 90 85 84 85 85 83 84 82 75 69 66 65 63 66 65 64 57 47 42 37 31 26 26 28 29 29 32 38 42 46 46 46 44 45 45 46 47 47 46 47 55 58 61 62 63 64 64
99 99 94 96 94 93 91 89 87 86 87 87 87 84 76 70 69 65 65 65 64 61 55 49 45 40 35 28 25 26 26 26 29 32 37 41 45 47 47 46 46 46 48 48 47 46 44 47 54 60 62 61 60 60
92 91 98 100 96 92 90 89 93 92 87 81 77 73 71 68 66 66 65 60 55 58 52 48 44 38 31 26 25 23 22 24 28 32 36 40 44 46 48 50 50 49 48 48 46 42 40 43 48 53 56 57 57 58
87 89 91 88 86 86 87 88 82 79 79 76 73 69 68 67 64 63 63 59 59 53 51 47 42 33 27 25 22 20 20 23 26 30 33 36 42 43 46 49 49 51 51 50 46 42 42 43 46 48 50 52 54 55
81 81 81 80 80 80 81 81 81 78 75 73 71 70 69 68 66 63 59 57 51 50 49 45 36 29 25 22 19 17 19 22 25 29 32 34 35 39 41 42 44 48 49 48 46 44 43 43 44 45 47 49 51 52
77 78 78 78 78 78 77 76 75 75 74 72 70 68 64 61 59 58 52 50 49 48 46 38 30 25 22 19 17 18 19 22 24 26 29 32 34 36 36 35 38 38 41 42 43 44 44 43 44 45 47 48 50 51
71 72 72 73 74 74 75 74 73 72 70 68 64 64 61 58 54 47 47 46 44 40 37 31 26 23 20 18 18 19 20 21 23 25 26 28 29 30 32 35 35 37 39 41 41 42 43 43 44 45 45 46 48 49
64 66 67 68 68 70 70 69 68 67 65 63 60 57 57 54 47 46 41 40 37 35 30 27 24 22 19 18 17 17 18 19 21 23 24 25 27 28 29 32 35 36 37 38 40 40 40 42 43 45 46 47 48 50
58 59 61 61 63 63 64 63 62 61 59 58 57 55 53 48 43 37 39 36 31 28 27 25 23 20 18 16 16 16 16 17 18 18 20 23 25 25 28 30 31 33 34 36 37 39 41 43 45 47 49 50 51 52
47 48 49 51 53 52 51 51 52 54 54 52 50 48 44 39 33 34 33 30 28 27 26 25 21 18 17 17 16 15 14 14 13 15 17 18 20 21 23 25 27 29 31 34 36 38 41 43 45 47 49 51 53 54
41 40 41 42 42 44 46 46 47 46 44 42 39 38 35 30 32 33 31 27 25 26 25 22 19 17 17 14 15 13 11 10 11 13 15 16 17 19 20 22 23 25 27 29 32 35 37 39 42 44 46 48 51 53
38 36 34 35 37 38 40 41 39 39 37 35 33 31 29 33 34 28 21 25 30 28 24 20 19 17 13 12 11 9 8 10 10 11 13 14 15 16 17 19 20 21 22 24 25 28 30 33 37 40 42 45 48 50
33 34 35 33 32 33 33 33 34 33 33 33 31 33 36 33 25 27 31 30 28 24 22 21 20 15 13 11 9 9 9 8 8 8 9 9 11 12 13 13 13 14 16 18 21 24 27 31 34 37 41 45 48 51
31 32 32 31 29 28 29 31 30 30 31 32 35 34 28 24 28 32 31 29 27 25 24 22 18 15 13 11 9 10 10 7 5 4 3 2 3 4 5 7 10 14 17 20 24 27 31 34 37 40 44 47 50 52
30 31 31 29 29 31 30 28 29 30 33 35 32 27 27 31 33 33 31 29 27 26 24 22 20 17 13 14 10 7 6 5 4 1 1 2 4 7 10 12 14 18 21 25 27 30 32 35 38 41 45 48 49 52
30 31 31 30 29 29 31 32 32 34 34 30 26 28 33 35 34 32 30 29 29 27 25 24 21 19 17 15 11 9 7 5 4 4 5 5 8 10 13 16 19 21 24 28 31 35 37 40 43 46 48 49 50 51
32 33 33 33 33 34 34 34 34 32 28 25 30 34 34 34 32 31 30 30 30 28 27 25 22 20 17 16 13 9 7 7 5 5 5 8 11 14 16 19 23 27 30 34 37 40 43 43 44 45 46 47 50 51
30 31 32 34 35 35 35 34 30 24 25 29 32 34 34 33 32 31 31 31 31 29 28 24 21 18 17 15 11 9 9 7 4 6 8 11 14 17 21 25 29 33 37 39 41 43 43 43 45 46 46 47 48 48
28 29 29 30 31 29 27 25 28 31 33 32 32 30 30 31 31 31 32 32 30 26 23 21 20 18 16 12 11 10 7 6 7 8 11 14 18 23 27 32 36 40 43 42 44 46 46 46 46 48 49 49 47 47
31 30 29 27 27 28 29 30 32 33 35 36 34 33 32 32 32 32 33 31 29 23 21 20 19 18 13 11 11 8 6 5 8 11 14 19 25 30 33 37 42 46 47 47 49 51 50 50 51 51 50 46 46 46
28 27 27 28 28 27 27 27 27 28 31 31 32 31 30 31 30 30 31 27 25 22 20 20 19 15 13 11 8 5 4 7 10 15 20 26 31 35 39 43 46 49 51 53 54 54 54 55 55 53 47 46 45 44
26 28 28 26 26 27 28 28 28 29 29 29 29 29 28 30 29 27 27 27 22 20 21 19 16 15 11 8 6 4 7 11 15 21 26 31 36 39 44 48 51 53 55 56 57 57 57 57 55 50 48 47 45 43
24 23 23 23 21 21 21 23 25 27 31 31 29 26 26 30 30 30 28 24 23 23 20 19 14 11 9 6 4 6 11 16 21 26 32 37 40 45 49 52 56 56 58 59 60 59 59 58 53 51 49 46 43 42
25 26 27 27 27 27 26 26 27 29 31 32 30 28 31 33 31 29 28 27 24 22 18 14 12 9 5 3 7 12 17 21 26 32 37 41 45 49 52 56 58 61 61 61 61 61 59 57 54 52 48 45 43 42
28 28 29 29 29 29 29 30 31 33 34 33 32 33 33 31 30 29 27 26 22 18 15 12 9 5 2 7 11 16 21 26 32 36 41 45 48 52 55 59 61 61 61 60 60 59 57 56 53 50 47 45 43 43
28 30 31 31 31 31 32 33 34 34 34 34 33 33 32 30 29 27 24 21 18 14 11 8 4 2 6 11 16 20 25 31 36 41 46 49 53 56 58 60 60 61 61 60 59 57 56 55 52 49 47 45 44 43
31 32 33 35 36 37 37 37 35 34 33 32 31 31 31 29 25 21 19 15 13 10 7 5 4 7 11 16 21 26 31 36 41 45 49 54 55 57 59 60 60 60 60 59 58 56 56 53 50 48 46 45 44 43
33 35 37 38 38 36 34 33 33 31 32 33 30 28 26 23 20 17 15 12 10 8 5 5 8 12 16 22 26 31 35 40 45 50 53 55 56 59 59 59 60 59 58 58 57 56 53 51 49 46 45 44 44 43
36 36 36 36 36 35 34 34 34 33 30 28 26 23 21 19 17 15 13 10 7 5 7 10 13 17 22 27 32 36 40 45 49 54 56 57 58 59 59 59 58 57 57 56 55 53 51 49 47 46 45 44 44 43
33 34 33 34 35 33 32 31 29 28 26 23 22 20 18 17 15 12 8 7 6 8 11 15 20 24 28 33 37 41 45 50 54 56 57 59 59 59 58 57 57 57 55 53 52 51 49 47 46 45 44 44 44 44
32 34 35 33 31 30 29 28 26 24 22 20 19 17 14 12 9 7 6 8 10 14 17 21 26 30 34 38 42 47 50 54 56 57 58 58 59 58 56 55 56 54 52 51 50 49 47 46 45 45 44 44 44 44

GFSWCAN_250_spd_105.txt.gz
Wind_Speed
89 84 84 80 83 80 77 78 78 75 75 77 75 76 75 75 77 75 74 72 74 75 74 64 61 56 54 49 50 44 38 36 30 27 27 28 35 47 49 50 48 56 57 56 55 55 55 51 49 49 50 52 54 55
87 88 88 84 82 79 79 77 80 75 72 74 72 70 71 71 76 75 71 76 75 74 70 67 59 55 53 51 46 38 35 32 29 26 28 29 31 47 49 50 50 52 57 59 59 58 55 56 56 54 52 53 53 53
90 90 88 88 86 82 79 78 74 75 73 72 73 79 76 78 76 75 76 72 71 73 72 60 57 55 50 45 39 35 31 28 26 24 27 30 33 42 51 53 54 54 54 54 57 58 58 58 58 58 57 56 57 57
91 87 86 86 84 81 77 78 75 75 76 75 75 77 81 75 79 79 77 74 74 74 62 58 55 51 45 42 36 31 26 24 23 23 27 30 31 34 45 50 52 52 52 51 52 53 54 54 56 55 58 61 62 62
91 90 92 90 88 87 85 82 81 79 79 82 84 80 79 79 78 75 73 73 76 68 60 57 51 46 43 38 35 29 23 21 21 23 26 28 30 33 37 44 52 53 53 54 53 52 51 51 50 51 56 62 65 66
92 92 91 89 88 90 87 87 89 86 88 87 83 85 84 75 75 77 78 72 65 62 58 53 50 45 42 38 31 24 20 20 20 22 24 24 27 31 33 37 45 49 55 55 55 55 54 52 50 49 51 55 59 63
86 93 90 90 91 91 91 90 88 88 88 87 82 84 88 82 82 76 69 64 62 58 54 51 49 45 41 34 26 21 19 18 18 20 21 22 25 28 29 30 34 42 48 53 54 52 51 50 49 47 49 50 53 54
83 85 85 86 87 89 90 88 87 85 84 83 81 79 80 77 71 72 66 59 55 55 52 47 46 44 35 28 23 19 17 16 16 17 18 19 21 23 23 24 28 31 34 39 43 47 46 44 43 43 45 48 49 50
75 77 79 80 80 82 86 88 84 84 80 76 77 79 75 68 64 61 53 52 53 51 45 43 42 36 29 24 20 18 16 15 15 17 18 18 18 19 21 25 26 29 30 31 32 33 36 39 43 44 45 47 48 49
70 70 71 71 73 74 76 78 76 75 73 71 71 69 66 62 59 53 50 51 49 47 41 40 36 29 23 20 18 17 16 15 16 16 16 17 18 21 23 24 25 27 28 29 30 32 34 38 40 43 46 48 50 51
65 66 67 68 69 69 70 70 67 66 66 69 71 65 60 57 56 50 48 49 48 44 36 35 30 25 20 19 18 17 15 14 13 15 16 16 17 18 20 22 23 25 27 28 29 31 32 35 37 40 42 45 47 49
60 62 63 64 65 65 65 64 63 65 66 65 64 61 58 53 47 45 49 48 43 33 31 29 24 20 18 18 16 15 13 13 13 16 16 16 17 18 20 22 24 25 26 27 28 29 31 33 36 38 40 43 46 48
57 58 59 59 61 62 62 63 62 61 61 59 57 53 50 48 45 47 47 40 29 26 26 23 20 18 17 16 14 13 11 12 13 13 14 14 15 16 17 18 19 21 22 24 24 25 27 29 31 34 38 41 44 47
49 50 51 54 55 54 55 55 54 56 56 54 52 46 41 42 41 42 35 27 26 27 23 20 18 18 17 14 11 10 10 9 9 10 10 10 10 10 10 11 12 14 16 18 20 23 25 27 30 33 36 39 42 45
42 43 43 42 42 43 44 45 47 47 47 45 41 37 37 37 37 31 24 25 27 23 21 20 19 17 15 11 8 6 6 4 5 4 5 5 5 6 7 8 10 11 12 14 15 18 21 24 28 31 35 39 43 46
37 37 36 35 36 37 38 39 41 39 37 35 35 36 35 32 26 23 25 26 22 23 22 22 19 17 13 9 6 5 4 3 5 5 6 6 6 4 2 1 3 7 11 14 18 21 25 29 32 35 38 43 46 49
36 35 36 36 35 33 32 31 32 32 32 32 32 33 31 25 24 27 27 25 25 24 24 22 20 17 13 11 10 9 9 8 10 8 7 6 4 0 3 6 8 11 15 19 21 23 28 32 35 38 41 45 48 50
31 32 33 33 32 31 29 29 29 30 31 32 32 27 24 28 31 29 27 27 26 26 25 23 20 18 15 15 14 13 11 10 5 6 3 1 1 4 6 10 13 15 18 22 26 29 33 37 38 41 44 48 48 49
29 31 32 32 31 30 31 31 32 32 31 27 24 27 31 33 30 28 29 29 29 28 26 23 20 18 16 16 16 13 11 6 4 3 2 1 5 8 10 14 18 22 25 28 34 37 39 37 40 42 44 45 47 49
26 27 28 28 27 26 27 29 29 26 24 25 30 33 32 31 29 29 30 30 29 27 24 22 20 19 16 18 17 12 7 6 5 3 3 5 8 12 16 20 24 27 31 35 39 42 42 43 46 48 49 50 49 50
25 26 27 28 28 27 25 21 22 26 29 30 32 30 31 31 31 31 30 28 27 24 23 22 20 19 19 18 16 12 8 6 4 5 6 9 12 17 22 26 30 34 38 41 45 47 48 48 47 48 49 51 50 50
29 28 27 25 22 22 23 26 28 30 30 29 30 31 32 32 32 30 28 27 26 23 22 21 21 19 18 17 16 12 7 5 5 6 8 13 18 23 28 30 34 39 43 45 47 49 50 51 52 52 52 52 50 47
21 22 22 22 24 25 27 29 28 30 30 31 32 32 33 31 29 28 27 25 24 23 21 21 21 21 18 16 14 9 6 4 5 8 13 18 23 29 33 36 40 43 48 51 52 54 55 56 56 56 55 52 49 48
21 23 24 24 25 26 29 30 31 31 32 30 30 30 28 28 26 26 25 25 24 23 23 23 22 19 17 14 10 7 4 4 8 12 17 23 28 33 37 41 43 47 51 53 56 57 58 59 59 57 55 54 52 50
26 27 27 29 30 30 30 30 30 29 29 29 27 26 27 25 25 27 29 27 24 24 25 24 22 19 15 13 9 4 3 7 11 16 21 26 32 37 41 46 49 51 54 57 58 60 61 61 59 57 55 55 52 49
21 23 24 25 25 26 27 29 31 28 25 23 24 25 27 27 28 31 30 26 24 27 24 23 20 16 13 8 4 4 7 10 15 20 26 32 38 42 47 52 55 56 58 60 62 61 61 59 58 57 55 52 50 49
25 26 27 27 29 29 30 30 30 31 31 30 28 28 31 33 35 33 30 28 27 25 23 19 16 12 8 5 5 7 11 15 20 26 31 36 42 47 51 54 55 57 58 60 61 61 59 59 58 57 53 51 50 48
24 26 27 28 29 29 30 30 31 32 31 30 30 34 37 34 32 31 31 29 27 23 19 15 12 9 7 6 8 11 16 21 26 31 37 42 47 51 55 56 59 59 60 60 60 59 59 58 56 54 53 51 48 46
26 26 26 26 25 26 27 28 29 28 27 26 29 30 30 29 31 30 29 25 21 18 15 12 10 8 8 9 12 16 21 26 31 36 41 46 51 55 58 59 60 60 61 61 59 59 59 56 54 53 52 50 48 46
24 25 26 27 27 28 29 29 29 29 30 31 31 31 30 30 28 26 23 20 17 15 13 10 8 8 9 13 17 21 26 31 36 41 46 51 55 58 60 60 60 61 60 59 59 59 57 55 54 52 50 49 48 48
26 28 29 30 32 33 34 33 33 32 32 32 32 30 29 26 24 22 19 17 14 11 9 8 9 10 14 18 22 27 31 36 41 45 49 54 57 59 60 60 60 59 59 59 59 57 55 54 53 51 49 48 48 47
27 29 31 31 32 31 30 31 31 32 31 29 28 27 24 22 20 18 15 12 10 8 8 10 12 15 19 24 28 32 37 41 45 49 53 57 59 60 59 59 58 58 58 58 56 54 54 53 51 49 49 49 47 47
29 29 28 29 30 31 32 32 30 29 28 25 24 22 20 18 16 13 10 9 9 10 12 13 16 21 25 29 33 37 41 45 49 53 56 59 60 60 58 57 58 58 57 56 54 54 52 50 48 48 48 47 47 47

GFSWCAN_250_spd_108.txt.gz
Wind_Speed
80 78 75 72 65 65 67 64 60 63 62 61 64 62 64 62 62 61 62 66 68 66 74 68 68 68 71 62 58 50 48 46 41 38 34 28 29 34 39 46 49 48 51 53 54 52 51 48 49 50 51 52 54 53
79 81 78 76 68 68 71 69 64 64 65 65 62 59 59 61 61 64 63 66 68 71 68 67 68 71 63 57 55 48 49 43 40 37 34 28 30 36 39 47 51 53 54 55 55 56 53 53 52 50 49 49 49 54
77 81 80 76 73 72 73 71 68 65 63 58 59 60 60 61 63 66 63 67 69 68 68 70 70 64 57 57 49 50 46 40 38 35 31 27 29 36 38 44 51 54 55 58 58 56 57 58 58 56 54 51 52 53
79 80 82 80 76 74 75 72 71 66 66 64 61 61 62 64 65 68 66 69 69 67 69 70 70 65 60 54 50 47 41 37 34 31 27 26 28 32 37 43 49 52 57 58 59 58 58 57 59 61 60 58 56 56
80 79 79 81 78 75 75 71 70 71 71 66 65 68 67 66 65 68 67 71 70 71 71 70 71 68 56 53 48 45 37 33 28 26 24 24 26 29 34 39 43 49 53 58 59 59 59 56 56 58 60 63 63 62
85 81 80 78 79 79 79 76 73 71 67 67 69 66 68 68 69 69 68 69 72 67 72 71 65 57 55 49 45 40 34 28 24 23 21 22 23 26 29 34 40 46 52 55 56 57 59 60 59 56 55 56 58 61
86 86 83 81 81 80 77 74 73 73 70 70 69 69 73 72 71 69 66 69 71 72 72 65 61 58 52 46 40 37 31 24 20 19 20 21 22 25 26 29 37 41 46 49 52 55 57 59 57 58 61 58 58 59
80 82 84 83 83 81 78 77 75 73 72 70 71 70 69 70 68 70 67 70 74 72 68 58 57 49 47 43 39 34 28 21 18 18 18 20 20 21 23 26 30 34 36 40 43 48 50 48 53 58 59 55 55 57
79 78 81 82 82 82 80 78 75 74 76 76 76 76 76 75 75 72 72 71 73 66 61 57 47 45 43 41 38 31 24 18 17 16 15 15 16 18 20 23 25 27 28 29 30 33 37 40 41 46 49 52 54 51
82 80 77 78 80 79 78 78 75 76 77 75 75 75 75 71 71 70 69 70 67 66 54 44 43 42 42 40 34 28 21 16 16 14 13 14 13 14 15 17 20 23 25 26 28 29 32 33 34 37 40 43 46 50
70 72 76 78 77 75 72 73 73 74 79 77 77 75 70 67 63 61 63 66 63 49 42 41 39 41 39 33 28 23 18 16 15 14 13 12 12 13 14 16 17 18 20 22 24 25 27 29 30 33 36 38 40 43
64 64 66 68 70 70 69 69 72 74 70 68 68 62 59 59 59 57 57 57 47 39 39 42 40 37 32 27 23 20 17 16 17 13 12 13 13 13 14 15 16 16 18 18 19 20 22 25 27 30 33 36 39 43
59 61 62 63 62 62 61 62 63 63 61 59 58 57 54 50 49 53 57 48 40 40 41 39 35 29 25 22 20 17 16 16 14 13 12 12 12 12 13 14 14 15 16 18 19 21 23 25 27 29 32 35 38 41
58 58 57 58 58 57 56 56 56 55 53 49 48 48 48 52 54 56 48 43 41 39 36 31 26 23 21 18 16 15 14 13 12 11 11 11 10 10 11 12 13 14 16 17 18 20 22 24 27 29 32 35 37 40
54 55 55 56 55 54 54 53 54 53 53 52 51 51 51 51 51 47 43 39 35 31 28 25 21 20 18 16 14 13 12 11 10 11 11 11 11 11 10 10 10 11 13 15 15 16 17 19 22 26 30 34 39 43
51 50 50 52 51 51 52 53 52 50 48 49 47 48 48 48 45 40 35 32 29 26 24 22 20 19 17 16 14 13 12 11 10 11 10 9 8 8 7 7 5 4 6 9 12 16 20 25 28 31 34 38 42 45
42 47 47 47 48 48 47 47 46 45 43 45 45 44 43 40 37 33 31 29 27 24 22 21 21 20 18 18 14 15 15 14 13 12 11 11 10 7 3 1 4 6 10 14 16 19 23 28 31 34 37 41 44 47
38 38 38 38 39 40 39 38 38 39 41 41 38 37 38 34 31 29 29 26 24 24 24 24 23 23 20 18 18 18 18 18 13 13 10 6 4 2 2 4 7 10 13 17 20 24 29 33 37 40 42 44 47 50
35 35 36 36 34 33 33 33 34 35 35 34 33 34 33 31 30 31 28 26 27 27 27 24 23 21 20 21 20 22 21 16 13 9 6 4 2 2 5 9 13 17 19 22 27 31 35 38 41 43 45 47 48 51
29 30 31 32 31 31 31 31 30 29 29 31 32 29 26 30 33 29 27 28 27 27 25 25 24 24 22 22 23 23 18 14 10 7 5 4 4 6 9 14 19 21 25 29 33 37 40 43 45 48 49 51 53 53
28 28 28 29 30 30 28 26 25 27 25 25 25 28 33 33 29 28 28 29 27 25 26 26 25 23 22 22 24 21 18 12 9 5 4 4 6 10 14 19 23 27 31 34 38 41 43 47 48 51 55 56 57 57
28 28 28 29 27 25 23 22 22 23 26 29 31 31 28 27 29 30 29 27 24 26 26 26 24 23 23 25 22 20 16 12 7 4 3 6 11 14 19 23 27 32 37 41 44 46 49 51 53 56 56 58 57 55
24 24 24 23 23 24 24 25 25 27 28 29 26 26 27 28 28 28 28 26 28 27 26 24 23 24 25 23 21 19 15 10 7 4 5 9 13 17 22 27 32 37 42 46 49 52 54 56 58 59 59 57 55 54
20 21 23 24 26 26 28 28 29 29 27 26 27 29 29 29 26 25 25 26 27 26 25 24 24 26 24 23 20 16 13 9 6 6 9 12 16 21 26 32 38 43 47 50 53 56 57 59 61 60 59 58 57 55
28 27 27 29 31 31 31 30 29 27 26 26 27 28 28 27 25 24 27 30 29 27 26 25 26 26 23 21 17 14 10 7 5 8 12 17 22 28 33 37 42 47 51 54 58 58 59 61 61 61 60 60 58 54
27 29 31 31 31 32 31 32 32 30 27 26 26 27 27 26 27 30 31 30 29 27 28 29 28 24 22 18 15 12 8 5 6 11 17 22 27 33 38 42 47 51 55 58 60 61 63 63 63 62 60 58 56 54
23 22 22 25 27 28 28 27 26 27 27 26 27 27 28 29 31 33 31 29 29 28 27 26 23 21 18 16 12 8 6 7 11 15 21 26 31 37 42 47 52 56 60 62 63 63 63 63 62 61 59 55 54 53
27 27 27 26 26 27 27 29 29 29 30 30 31 32 33 34 34 31 30 27 26 25 23 22 22 21 16 12 9 6 6 11 15 20 25 31 36 41 46 51 55 59 62 63 63 62 62 62 61 59 57 55 53 51
25 26 26 26 26 27 28 29 28 27 27 27 26 28 27 26 27 28 26 23 23 24 24 23 18 14 12 9 7 9 12 16 21 25 31 36 41 45 50 55 58 62 64 63 61 61 61 60 59 57 55 53 51 50
21 21 21 22 22 22 22 22 24 25 23 21 25 29 30 30 30 27 25 26 25 23 21 18 15 13 9 8 9 13 17 22 27 31 35 41 45 48 53 58 61 63 63 62 61 61 61 59 56 55 53 51 50 49
21 22 23 24 24 25 26 27 28 27 26 28 29 28 27 27 27 28 28 26 22 18 16 14 11 9 9 11 13 17 21 27 31 36 40 44 48 52 57 60 63 63 61 61 62 61 59 56 54 53 52 51 50 49
20 23 24 26 26 28 28 26 25 26 27 27 27 26 27 29 28 26 22 19 18 16 13 11 9 10 13 15 18 22 26 30 35 40 44 47 52 56 60 62 62 60 60 61 61 59 56 54 53 52 52 51 50 49
21 22 23 24 25 26 27 27 27 27 27 28 29 29 29 26 24 22 19 16 14 12 10 11 13 15 17 20 23 27 30 35 39 43 46 51 55 58 60 60 59 58 60 60 58 56 54 53 52 51 50 50 49 49

GFSWCAN_250_spd_111.txt.gz
Wind_Speed
74 76 74 75 68 65 64 60 57 59 58 53 51 50 48 49 51 50 51 51 49 49 50 51 56 60 61 64 63 64 66 59 55 52 47 42 37 32 31 32 34 37 41 45 51 53 54 52 53 52 51 46 45 42
74 77 75 71 68 65 63 57 53 53 52 49 47 47 51 52 54 52 52 52 49 48 53 55 58 60 61 64 63 69 63 58 54 49 44 41 38 33 32 34 37 40 44 50 53 56 56 57 57 56 56 51 47 42
71 75 74 71 66 64 60 55 54 54 52 49 49 52 53 54 53 51 48 48 47 48 54 58 56 58 60 65 64 63 61 55 51 47 43 40 36 32 31 33 37 42 46 51 55 55 57 60 58 58 57 56 57 55
72 71 74 69 67 66 58 56 54 55 57 54 55 51 51 50 47 45 44 46 49 53 56 55 58 60 66 64 63 63 57 52 49 44 41 37 33 28 28 34 36 43 47 52 56 58 59 60 60 59 58 56 55 60
75 71 69 67 66 65 62 59 53 52 58 58 54 52 50 48 46 48 49 50 56 55 57 55 60 63 64 63 60 64 56 52 46 42 37 32 28 25 27 32 35 41 48 52 54 56 58 58 60 62 62 60 59 61
76 74 70 69 65 63 63 61 58 53 55 58 58 56 53 50 49 51 52 54 53 57 58 60 64 64 63 66 65 57 53 48 42 36 31 26 25 25 27 32 35 39 44 46 52 56 58 59 62 60 61 63 63 62
74 74 72 69 65 66 67 62 60 58 56 56 57 57 54 52 55 56 55 54 55 58 58 58 62 65 65 65 59 58 51 47 38 30 25 23 23 24 27 31 34 38 41 44 48 50 55 57 58 57 58 58 58 59
71 68 69 66 62 63 66 66 63 62 59 57 58 58 55 54 55 56 56 57 58 57 58 61 65 64 65 62 60 54 49 41 33 26 21 21 21 22 25 28 32 36 39 40 43 44 48 53 55 53 53 54 54 54
70 69 67 66 63 63 63 63 64 64 64 63 61 59 59 61 59 57 57 58 59 58 61 64 68 65 58 55 53 50 45 39 29 23 20 19 20 21 23 25 28 31 34 38 40 39 41 44 47 49 48 47 51 57
69 69 69 69 68 65 65 66 65 64 65 64 63 61 60 58 58 58 60 62 63 63 62 62 60 53 53 49 47 45 41 33 27 22 19 16 18 20 21 22 26 28 29 30 33 33 34 34 36 39 42 45 47 49
68 69 69 66 65 68 67 67 66 66 64 62 62 62 61 61 59 61 61 63 63 62 64 57 52 47 45 43 43 41 35 28 25 19 17 16 17 17 17 18 20 22 24 25 27 29 30 31 32 34 37 40 43 46
66 68 67 65 64 66 69 71 70 67 65 64 62 61 62 63 62 63 63 62 58 54 54 50 44 43 40 41 41 34 27 25 21 17 17 16 15 15 14 14 16 16 18 20 21 23 25 27 29 32 34 36 39 42
62 65 68 67 67 64 63 63 62 61 62 62 62 61 60 59 59 60 61 55 48 47 46 43 40 40 41 39 34 26 23 21 17 17 16 15 14 14 13 13 15 16 18 20 21 22 23 24 25 27 30 33 35 38
56 59 62 64 65 64 64 60 60 60 60 61 60 61 59 63 65 60 50 47 46 42 40 38 39 40 37 31 25 22 19 17 16 16 16 15 15 15 15 15 16 15 16 15 16 17 19 21 23 26 29 32 35 37
54 54 54 55 56 59 61 62 60 58 57 56 56 55 53 54 52 51 46 40 39 39 38 39 37 34 29 23 20 19 17 15 15 15 14 14 14 14 14 14 13 12 13 14 15 16 18 20 21 24 28 32 35 39
47 46 48 49 51 52 53 53 52 52 52 52 50 50 50 50 47 43 40 39 37 39 37 36 32 27 24 20 18 18 15 15 15 14 13 13 13 12 11 10 10 9 8 9 10 12 15 19 24 29 33 36 39 43
47 50 51 50 49 48 47 46 45 43 44 45 46 46 47 47 44 42 40 40 40 35 35 31 27 24 21 20 19 17 17 16 15 14 14 13 12 11 10 8 5 5 7 11 14 17 20 24 28 32 36 38 41 44
49 49 48 48 48 49 48 47 46 46 46 46 45 47 47 44 45 43 40 37 34 32 29 26 24 23 20 20 19 19 18 17 17 16 14 15 12 9 5 3 4 7 10 13 16 21 25 28 30 34 38 42 45 47
44 47 49 48 47 46 44 43 43 44 45 46 47 47 45 42 40 38 36 34 31 28 26 24 23 21 22 22 21 20 20 20 18 18 16 11 8 5 4 4 6 12 15 17 21 24 28 33 36 39 43 46 48 50
38 37 36 37 38 39 40 40 40 42 42 41 40 39 38 36 35 34 33 31 28 25 24 24 24 25 23 22 22 22 23 22 20 16 12 10 7 4 4 7 11 15 17 22 26 30 35 39 42 46 48 50 51 54
30 33 35 35 34 34 36 36 35 34 33 31 32 32 33 34 33 32 29 27 27 25 26 26 26 25 25 24 23 24 23 21 18 15 12 8 6 5 8 11 15 18 23 28 33 38 42 46 49 52 54 55 56 58
35 35 34 33 34 34 32 31 30 29 28 28 28 28 28 30 30 28 27 26 26 27 27 26 25 25 27 26 23 25 23 20 17 14 11 7 6 8 10 14 19 23 28 33 38 43 48 51 54 56 58 59 59 59
27 28 28 29 28 28 27 28 26 24 23 23 24 27 29 28 26 25 26 26 27 26 26 25 26 27 26 25 25 26 22 20 17 13 10 9 8 10 13 18 24 29 34 39 44 49 53 56 58 61 62 61 60 59
23 23 22 23 24 25 25 25 24 26 27 28 28 25 23 24 24 24 24 25 28 28 28 27 28 26 24 26 25 25 21 19 16 12 10 9 9 12 17 23 28 34 39 45 50 54 57 61 63 64 63 61 60 59
23 24 24 24 25 26 28 29 31 30 28 25 25 24 25 25 25 25 29 30 29 28 27 27 26 25 25 25 25 22 19 17 13 11 10 10 12 17 21 27 33 38 44 49 54 58 62 64 65 63 62 62 62 60
28 30 31 32 32 32 32 30 26 22 21 22 25 26 26 27 29 30 30 30 30 29 29 28 27 25 23 23 22 21 18 14 12 11 11 13 16 20 26 31 38 43 48 53 57 61 64 65 64 63 62 63 62 59
26 26 26 26 25 25 26 26 26 26 25 24 24 27 30 31 31 31 30 29 28 27 26 25 23 23 24 24 23 19 16 14 12 12 14 17 21 26 31 37 42 47 51 56 60 63 65 65 65 65 64 62 59 58
22 20 20 20 21 21 21 22 21 21 23 25 29 30 31 29 26 24 25 26 25 25 24 22 23 22 24 22 18 17 15 12 12 14 18 22 26 31 36 41 46 51 55 59 62 65 66 65 65 64 62 60 58 56
19 21 21 19 20 23 25 26 28 28 28 28 27 26 25 25 27 26 26 25 24 23 23 24 25 23 19 18 19 15 13 12 14 17 21 25 30 35 40 45 50 54 58 61 64 65 65 65 64 62 60 58 57 56
18 21 21 22 22 22 23 24 25 27 25 22 21 24 26 26 25 25 25 23 23 23 25 24 20 18 20 18 15 13 13 15 17 20 24 29 35 39 44 49 53 57 60 62 64 63 63 63 62 61 59 57 55 53
13 14 16 17 19 19 19 20 21 19 18 18 21 26 25 23 24 25 24 23 24 23 21 19 19 21 19 15 13 15 16 18 21 25 29 34 39 43 48 52 56 60 61 63 62 63 62 61 60 59 57 55 53 52
18 18 18 18 20 22 24 24 24 24 23 21 23 24 22 24 25 24 22 21 21 22 23 22 19 16 14 15 17 18 20 23 27 30 35 39 43 47 51 55 59 61 62 62 62 62 62 61 59 57 56 54 53 52
17 17 17 18 19 20 22 23 23 21 20 22 23 23 23 24 23 23 24 24 24 22 19 17 15 15 16 17 20 23 25 28 31 35 39 43 46 51 55 58 61 62 62 62 62 62 61 59 57 56 55 54 52 51

GFSWCAN_250_spd_114.txt.gz
Wind_Speed
69 65 60 61 57 55 64 62 46 45 43 41 37 41 44 40 40 34 35 36 38 37 35 36 38 39 43 46 48 49 51 56 57 60 59 61 57 47 37 39 35 31 33 33 40 40 44 51 53 52 53 48 44 48
68 67 63 67 62 63 61 55 50 46 46 43 43 39 40 42 41 39 38 40 39 35 35 37 38 43 45 49 48 49 51 54 58 59 63 61 54 47 37 36 36 34 35 35 41 41 52 54 55 53 55 57 52 47
67 73 69 70 66 68 66 61 58 52 46 41 45 46 45 41 39 38 38 37 36 35 35 40 44 46 48 49 48 50 54 56 60 63 61 57 52 45 35 35 36 36 37 37 41 46 51 59 58 58 57 56 60 59
75 71 71 70 69 62 65 64 56 57 48 42 45 44 43 42 39 38 37 37 37 39 40 42 45 48 48 48 51 52 54 57 63 60 57 52 47 41 35 34 35 35 36 39 42 48 50 52 58 60 61 61 59 59
71 70 67 71 70 67 68 62 49 48 44 43 38 45 46 41 41 41 40 40 39 37 39 42 44 47 48 49 50 51 56 61 62 61 53 49 43 39 34 32 32 32 34 38 41 45 49 51 53 57 60 62 62 62
72 70 66 72 67 68 68 64 51 45 44 43 41 39 40 39 37 37 34 34 37 39 42 43 46 46 48 48 51 54 59 65 63 57 48 43 40 35 30 28 28 29 32 35 39 42 46 48 53 54 57 59 61 60
72 71 67 69 63 68 66 59 53 49 45 42 40 39 42 41 41 38 36 37 37 40 43 45 46 46 49 51 54 59 60 64 58 53 44 40 36 29 26 25 26 27 29 33 36 40 43 48 48 50 53 53 53 55
72 69 68 65 61 61 58 54 51 48 44 43 41 42 46 45 42 41 41 41 42 43 44 45 47 48 49 52 56 60 64 61 55 48 41 35 31 24 23 24 25 26 28 30 34 37 41 42 42 48 51 53 52 52
68 72 67 64 58 60 60 55 52 51 48 46 46 41 40 45 47 48 46 44 45 46 45 48 49 49 51 56 59 62 61 55 52 45 39 31 26 22 21 22 23 25 27 29 30 35 37 38 38 39 42 45 47 49
67 71 67 63 58 54 54 54 52 47 49 48 47 46 46 46 44 45 45 46 46 47 49 50 50 51 53 55 60 57 51 50 47 43 36 28 22 21 21 20 22 23 24 26 29 32 34 35 35 36 38 39 41 44
66 70 65 62 58 56 56 54 51 47 48 52 49 51 51 50 49 47 48 47 46 49 50 50 52 53 52 57 53 48 49 47 44 39 31 25 19 18 19 19 19 20 22 24 26 29 31 31 32 33 35 38 41 44
62 64 65 62 56 55 55 54 53 50 49 48 50 49 49 50 50 50 48 47 48 50 52 53 53 49 54 48 46 46 45 44 40 32 27 21 18 16 17 17 18 18 19 20 22 24 27 29 31 33 36 38 39 41
60 61 61 61 59 55 51 48 48 47 50 50 49 49 50 50 49 48 48 48 49 51 50 50 54 49 44 44 45 43 42 39 31 26 22 19 17 15 15 16 17 18 19 19 20 21 22 24 25 27 30 33 35 38
57 56 56 55 54 54 52 51 49 51 52 54 55 53 51 52 51 50 51 49 47 47 51 52 45 41 43 42 41 40 36 30 25 21 18 18 16 16 15 15 15 15 15 16 16 17 19 21 22 24 26 28 31 35
53 51 52 53 52 54 52 53 51 48 51 54 53 52 53 53 52 48 47 48 47 49 48 42 40 42 40 40 38 35 29 24 21 19 18 17 16 15 14 14 13 13 13 13 13 14 15 16 19 21 25 28 31 36
52 50 50 51 52 52 52 53 53 51 49 47 46 48 50 49 47 45 45 45 46 45 43 41 40 38 39 38 33 28 23 20 20 18 16 14 14 12 12 11 11 10 9 9 9 10 12 15 19 23 27 31 36 40
50 50 49 49 50 52 52 53 54 53 53 53 52 52 52 48 47 47 46 45 43 41 39 37 38 39 36 32 27 22 20 19 17 15 13 12 11 11 10 10 8 7 6 6 8 11 14 18 22 26 29 31 36 40
46 46 48 47 46 47 48 49 48 49 49 48 47 49 48 47 46 44 41 40 38 37 36 39 38 34 31 27 22 19 18 17 15 13 13 12 12 12 12 10 7 4 4 7 10 13 16 19 24 27 32 36 41 45
45 44 43 42 42 42 42 42 43 44 44 44 43 43 43 42 41 39 37 37 38 39 38 38 32 29 27 23 20 18 17 15 13 14 15 15 15 13 11 7 5 5 7 9 12 16 21 25 30 34 39 44 48 51
41 41 40 40 40 40 40 41 42 44 42 43 43 42 40 40 39 39 39 41 41 38 35 31 28 27 23 20 19 19 16 15 15 18 20 18 15 12 9 8 7 7 9 12 17 22 27 31 36 41 46 50 54 56
39 39 41 43 43 42 41 41 41 42 41 41 42 43 43 43 42 41 40 38 37 32 29 28 27 24 22 22 21 20 17 19 20 21 21 18 14 12 12 9 9 10 13 18 23 27 32 37 42 47 52 56 57 58
41 42 42 42 42 42 42 42 43 43 42 42 41 41 39 38 37 37 36 35 31 27 27 26 23 22 22 23 23 20 21 22 24 23 21 18 15 15 12 10 11 14 18 23 28 33 37 42 47 53 57 60 61 62
32 33 33 33 36 36 37 37 37 35 34 34 34 33 33 34 34 34 33 29 24 26 26 23 24 24 26 25 23 22 23 24 25 24 21 17 17 14 12 13 14 18 23 28 33 38 43 48 53 57 60 63 65 65
28 30 31 31 29 29 29 30 29 30 30 30 30 30 31 31 30 29 26 22 25 26 24 26 25 25 26 25 25 23 22 22 23 23 20 18 16 14 14 15 18 23 28 32 37 42 47 53 57 61 64 67 68 67
23 23 24 24 26 27 28 28 28 28 29 30 31 30 29 27 25 23 23 26 26 24 25 25 24 25 25 23 23 23 22 22 22 21 18 17 15 15 16 19 24 29 33 37 42 47 52 57 61 65 68 70 70 69
24 25 26 27 27 27 27 28 30 30 30 30 29 26 24 24 24 25 27 26 24 25 25 25 26 25 26 25 25 25 24 23 21 20 19 18 16 16 19 24 29 33 37 41 46 51 57 61 65 69 70 70 70 67
25 26 27 27 27 27 27 27 25 23 21 20 20 23 24 25 26 25 24 22 24 24 24 24 25 26 26 25 24 22 21 20 20 21 20 17 18 20 23 28 32 36 40 45 50 56 61 65 68 71 71 70 68 66
16 16 18 16 18 19 20 19 20 20 22 22 22 21 22 23 21 21 22 23 24 24 24 24 23 23 23 22 20 19 19 20 22 20 19 20 21 23 28 32 36 40 44 50 55 60 65 68 71 71 71 69 67 64
12 13 14 14 13 13 13 15 17 17 16 17 18 17 16 19 23 23 23 23 24 23 21 21 21 20 21 20 18 18 21 21 20 19 20 22 24 28 32 36 41 45 50 55 59 63 68 70 72 71 70 68 65 62
16 17 17 17 18 18 18 18 19 20 19 18 20 22 24 24 21 20 20 21 20 19 18 19 20 20 18 18 20 21 19 17 18 20 22 25 29 33 37 41 45 49 54 58 63 67 70 72 71 70 69 66 63 62
12 13 13 15 18 19 20 21 20 17 13 12 15 18 17 14 16 18 19 19 19 18 18 18 16 16 19 20 18 15 16 19 21 23 27 30 34 38 41 45 49 53 57 62 65 68 71 71 70 68 66 63 60 59
14 15 14 14 14 14 14 14 14 15 16 18 19 19 17 16 18 19 20 19 18 18 17 16 18 18 17 16 17 17 19 21 24 27 31 34 38 42 45 49 53 57 61 64 67 69 71 69 67 66 63 60 59 58
14 15 15 16 16 17 18 18 17 18 18 17 16 18 19 19 19 19 19 18 17 17 17 17 16 16 16 16 18 19 22 24 27 31 35 38 42 44 48 52 56 60 64 67 69 70 69 67 65 64 61 59 58 56

GFSWCAN_250_spd_117.txt.gz
Wind_Speed
56 58 54 52 49 45 37 43 37 32 38 32 30 27 28 31 31 37 40 42 37 33 30 28 31 32 31 31 29 31 33 37 42 46 49 52 55 56 58 55 49 45 43 39 33 32 33 42 46 52 46 42 37 38
58 55 53 57 49 46 38 39 37 33 35 27 28 28 30 31 30 37 36 33 32 30 27 32 31 29 27 26 28 32 37 41 44 49 51 53 54 57 58 53 46 43 40 41 34 34 34 39 50 50 50 42 44 46
57 56 58 57 53 45 48 44 39 35 31 27 30 28 36 32 32 35 34 35 33 31 30 30 29 28 27 29 31 36 40 44 48 49 53 54 57 58 54 50 44 41 37 38 35 33 36 40 47 55 56 53 50 50
61 61 63 59 52 50 50 49 49 48 36 35 31 26 35 37 37 38 35 33 31 29 29 29 30 27 28 31 36 40 42 43 48 51 52 56 58 54 49 46 42 40 36 35 35 33 36 42 49 53 56 54 54 55
62 63 62 55 54 48 47 52 52 48 37 38 34 31 36 37 37 35 34 31 31 32 31 29 25 27 32 35 36 38 39 44 48 50 54 57 56 51 45 42 39 37 31 29 30 31 34 41 47 54 56 54 53 55
62 61 61 54 55 49 47 45 51 43 38 36 36 37 37 35 35 36 33 31 30 28 26 28 24 28 32 34 37 36 42 45 49 52 57 58 54 47 41 39 36 32 27 25 26 28 31 37 45 50 54 55 58 58
63 63 66 55 53 47 44 42 44 39 36 32 33 29 27 37 37 37 35 31 30 28 26 26 29 31 34 36 35 39 44 47 51 56 57 55 49 44 38 35 30 26 24 23 24 25 28 32 39 45 48 52 56 57
66 66 67 65 59 49 49 43 41 39 37 34 31 25 26 31 38 36 31 28 26 25 28 29 31 33 35 36 38 42 46 50 54 56 56 53 47 41 36 30 26 23 22 21 22 24 26 28 32 37 41 45 50 53
65 65 64 62 59 56 57 53 43 39 39 35 28 30 30 31 31 33 30 28 29 28 29 34 37 37 37 38 43 46 49 53 57 57 54 50 46 43 34 26 22 21 20 21 21 22 23 26 28 32 35 39 37 39
62 63 67 64 61 58 57 60 55 43 38 37 36 34 33 31 27 27 29 30 30 36 39 39 37 37 39 43 46 48 52 53 57 54 51 48 45 40 32 22 20 20 19 19 21 22 23 25 27 28 31 34 35 38
61 61 59 61 62 59 55 50 50 49 46 42 42 38 34 31 30 30 34 38 40 40 39 37 38 40 42 44 47 49 52 56 53 51 48 46 42 34 27 22 19 18 18 18 19 20 22 23 25 26 29 31 34 37
57 56 60 60 57 61 52 53 48 47 46 43 44 40 38 37 36 35 37 38 38 40 39 39 42 42 43 46 48 51 52 50 48 46 45 42 34 27 22 20 20 18 16 17 18 19 20 22 23 25 28 30 32 33
55 55 56 58 55 57 57 46 44 46 47 43 41 37 36 37 38 37 41 44 45 41 41 42 42 44 46 47 50 50 48 47 46 45 41 33 27 22 19 18 18 17 16 15 15 15 15 16 18 20 21 23 26 28
53 55 56 52 52 52 52 51 47 45 43 41 42 41 33 36 41 41 42 41 40 39 42 44 45 47 46 49 47 46 45 45 46 40 33 26 21 18 16 15 14 14 14 14 15 14 14 14 14 16 18 20 23 25
49 52 55 53 51 48 50 51 47 45 42 41 42 40 39 40 40 41 39 39 40 44 46 45 45 44 45 45 44 43 44 44 39 33 26 20 16 15 14 13 12 12 13 13 13 13 13 13 12 12 14 17 21 25
46 46 49 51 48 46 46 47 47 43 41 39 38 37 37 39 41 42 43 44 46 45 45 44 43 41 42 42 41 41 41 38 32 26 18 14 13 13 12 12 12 12 11 11 10 9 7 6 9 12 16 19 23 28
50 49 47 47 46 45 44 44 44 44 43 39 37 35 36 39 43 44 45 44 42 41 41 42 39 40 41 40 40 38 36 31 26 19 13 11 11 12 12 11 11 11 10 8 5 5 6 8 10 13 18 22 26 31
49 47 44 41 41 42 43 43 42 41 42 40 40 41 42 41 39 38 38 37 38 40 41 40 39 39 39 39 38 34 30 26 19 14 10 11 12 12 12 12 11 10 7 6 6 6 8 10 15 19 24 29 33 37
47 45 43 41 40 40 39 39 39 40 40 41 41 41 42 41 38 38 39 39 40 40 38 38 38 38 39 37 34 30 26 20 15 12 13 13 13 14 15 14 13 11 9 8 8 10 13 17 22 26 30 34 37 42
44 43 41 41 39 38 39 41 41 41 41 42 41 41 41 40 39 39 39 40 41 41 39 37 38 39 36 33 29 26 22 18 14 15 14 14 16 17 17 16 14 13 11 11 12 15 19 23 27 30 35 39 43 48
44 44 43 43 43 42 41 40 39 39 39 40 39 38 39 39 40 40 41 41 41 39 37 36 37 36 32 27 24 22 19 18 17 17 16 18 19 18 18 17 15 15 14 14 17 20 24 29 33 37 41 45 49 55
42 43 43 42 41 42 41 41 40 40 40 41 41 41 41 40 40 40 41 43 41 36 36 35 34 30 27 25 24 21 20 19 20 19 19 20 22 20 19 19 18 17 16 18 21 25 29 34 38 43 46 50 55 60
41 41 41 40 40 40 40 40 40 40 39 39 40 40 41 43 43 42 42 39 32 34 33 32 29 27 25 24 23 23 21 21 21 20 21 22 23 23 22 20 19 18 18 21 25 29 34 39 42 47 51 55 60 64
36 37 38 38 39 40 41 42 42 42 42 42 42 41 41 40 38 39 37 31 31 31 29 27 26 25 24 24 23 22 21 22 22 20 21 23 24 23 22 20 20 20 22 26 29 34 38 42 47 52 56 59 64 68
29 30 32 34 35 35 34 34 33 33 34 34 35 35 36 35 35 34 29 26 27 27 26 25 25 23 23 23 23 22 22 23 21 20 21 21 22 23 23 21 22 25 26 30 34 37 42 46 51 55 60 64 68 72
21 22 23 24 25 25 25 27 29 30 30 31 31 30 30 30 28 25 22 25 27 24 23 24 22 23 24 24 23 22 23 24 23 21 21 22 22 24 23 23 25 27 30 35 38 42 47 51 56 60 64 68 72 74
23 23 23 24 25 25 26 26 26 27 27 26 24 24 22 21 20 18 21 24 23 22 23 22 22 23 24 24 22 22 21 21 22 22 22 23 23 23 23 25 27 30 35 38 42 46 51 55 59 64 68 71 74 77
16 16 18 18 19 20 19 20 20 21 20 18 16 15 15 14 14 19 21 20 21 22 22 22 22 22 22 21 20 19 19 20 21 21 22 21 21 22 24 27 30 34 38 42 47 51 55 59 63 67 70 74 76 76
12 10 11 12 11 13 12 12 11 10 12 14 14 13 12 14 19 19 19 19 20 20 19 19 19 18 18 19 19 19 19 19 20 20 20 19 20 23 27 31 35 39 43 47 51 54 58 62 66 69 73 75 76 73
13 16 16 16 15 16 17 18 18 18 16 13 13 16 20 21 16 15 15 16 17 17 17 17 18 18 19 19 18 17 17 17 16 16 17 19 22 26 31 35 39 43 47 50 53 57 61 65 68 72 75 76 74 70
11 12 14 15 17 19 18 18 16 14 12 13 15 17 15 12 15 15 15 16 17 18 17 16 17 16 15 14 15 16 16 14 15 16 18 22 26 31 34 38 42 46 49 53 56 61 64 68 71 74 75 73 69 66
9 10 10 11 12 11 12 13 14 16 15 15 15 12 13 15 15 16 16 17 18 17 15 14 13 14 14 15 15 15 15 15 17 19 23 27 30 34 37 41 45 49 52 56 60 63 66 70 73 73 71 67 65 61
12 13 13 13 14 15 15 14 15 16 17 17 15 15 16 14 14 16 16 16 15 13 12 13 14 15 15 14 14 15 16 18 20 24 27 30 33 38 42 45 49 52 55 59 63 65 69 70 70 68 65 63 60 59

GFSWCAN_250_spd_120.txt.gz
Wind_Speed
44 45 44 42 41 36 29 28 41 44 45 46 49 47 48 48 49 50 51 54 53 51 48 44 40 37 36 35 33 29 27 28 31 33 32 34 39 46 49 54 57 58 61 58 51 43 41 41 39 38 38 47 41 35
46 47 45 46 42 32 29 25 44 49 47 45 45 46 46 47 48 47 49 49 49 49 46 40 38 35 33 30 26 23 25 29 31 30 31 38 44 48 54 56 58 60 59 57 49 42 39 40 40 40 40 43 47 38
49 49 46 49 48 39 39 38 44 47 45 45 43 41 40 40 40 42 45 43 42 39 39 38 38 34 29 28 24 26 29 29 25 30 38 43 48 52 55 58 58 59 57 51 45 40 38 40 41 42 43 42 47 47
49 51 47 54 49 40 41 38 36 44 50 49 46 42 41 40 42 42 40 40 40 41 36 34 32 31 29 27 26 27 27 23 31 38 40 44 48 51 55 56 56 57 52 47 41 38 35 38 40 42 44 47 48 47
53 54 51 50 49 46 40 39 41 40 43 42 40 42 37 33 37 37 37 42 41 37 34 31 29 28 27 27 26 26 24 31 36 38 41 46 49 53 56 56 52 49 47 41 37 35 31 34 39 42 45 49 53 52
55 55 52 48 49 47 42 41 43 42 42 40 38 41 38 33 34 37 37 38 37 35 31 29 27 26 27 26 26 24 30 33 36 38 43 48 52 56 58 51 44 43 43 36 32 30 28 30 36 40 44 47 51 55
56 55 49 50 47 47 41 47 45 43 37 39 35 35 37 37 38 38 36 35 34 33 31 28 25 26 23 23 22 25 30 35 37 40 45 50 55 57 56 49 37 38 37 29 27 26 25 27 31 37 41 45 49 53
58 57 53 51 48 45 40 42 40 41 38 40 37 33 35 38 37 36 37 35 32 31 30 28 24 22 23 23 25 29 33 34 38 43 49 54 57 57 55 47 38 34 31 25 24 23 23 25 27 32 36 42 46 50
57 58 57 56 49 43 39 37 42 43 36 37 38 38 37 33 34 33 37 33 29 28 27 25 24 21 23 26 30 33 34 38 43 47 51 54 57 56 49 46 42 31 26 22 22 22 23 24 25 27 31 36 40 43
58 56 56 56 47 41 37 37 41 39 39 38 34 30 29 25 28 32 32 31 28 26 26 23 23 23 28 31 34 35 37 41 46 49 52 56 56 51 46 45 41 29 22 20 20 20 22 24 24 26 28 30 33 36
59 54 56 54 51 42 35 35 35 35 33 29 32 29 26 23 26 29 30 30 30 26 26 26 26 30 35 35 36 38 41 46 48 51 54 56 51 46 45 42 36 26 20 19 18 19 20 22 23 24 25 27 29 31
58 52 51 51 52 47 42 35 31 33 33 29 29 25 20 21 21 28 28 29 30 28 29 31 33 35 36 36 38 41 46 48 51 53 55 51 46 44 42 35 29 23 18 16 15 14 16 18 20 22 24 25 27 29
58 52 49 50 52 49 44 38 35 30 30 29 23 22 20 21 22 26 28 27 29 31 32 34 36 35 35 36 41 44 47 50 53 53 49 44 43 42 34 27 22 19 17 14 12 11 12 13 14 16 17 19 19 20
56 53 50 49 49 51 47 48 41 41 39 33 30 31 28 28 32 33 32 31 32 33 33 34 35 37 40 42 43 45 47 53 53 48 44 43 40 33 25 20 18 17 16 15 12 11 10 11 12 12 13 15 16 18
56 54 52 49 49 46 48 45 44 39 38 37 33 34 36 33 35 35 35 35 35 35 34 34 36 37 38 42 45 47 51 51 47 44 43 41 33 25 20 17 16 17 16 15 13 12 12 12 11 12 14 15 15 17
53 50 48 46 44 44 43 44 41 42 43 35 32 36 38 37 39 38 34 34 36 36 36 36 37 40 43 45 46 48 47 45 43 42 42 34 26 21 19 17 16 16 16 16 15 14 14 15 14 13 12 12 14 17
49 48 45 45 43 41 43 43 43 42 43 44 39 35 36 36 38 37 34 34 35 35 36 37 40 42 46 45 45 44 42 41 41 41 35 28 22 20 17 16 15 16 15 15 15 15 15 12 11 11 12 15 19 23
47 45 44 42 42 42 41 43 42 40 41 43 42 39 37 38 35 31 30 32 33 35 38 40 41 41 41 43 42 41 39 41 41 35 30 23 21 19 16 15 14 15 15 15 15 13 12 12 13 14 17 21 25 30
43 43 41 39 40 40 39 41 40 40 43 45 45 43 40 35 34 33 34 36 38 38 36 38 40 41 41 41 42 40 41 42 36 29 25 22 21 18 17 17 16 16 16 15 14 13 14 15 16 19 22 26 30 34
46 44 41 39 38 37 37 36 36 36 37 36 34 35 36 37 35 36 39 41 42 41 40 42 41 39 40 41 41 42 42 38 30 26 23 23 20 20 18 18 19 19 18 17 16 16 17 19 21 24 28 32 36 40
47 44 41 39 38 37 34 32 32 34 34 35 34 35 36 36 37 39 39 39 40 40 41 42 40 39 39 41 42 42 39 34 28 25 23 23 21 21 19 19 20 20 20 20 19 20 21 23 26 29 32 37 41 45
44 42 41 39 38 36 34 33 34 35 35 36 36 36 38 40 40 41 40 40 39 39 41 41 39 39 42 44 42 38 35 30 26 24 24 23 23 22 21 21 22 23 22 22 22 23 25 27 30 33 37 41 45 50
44 43 41 40 39 37 38 38 38 38 39 39 38 39 40 40 40 40 40 39 38 41 42 41 41 41 42 40 37 33 31 28 25 26 25 24 23 23 22 22 23 24 24 23 24 25 27 30 34 38 41 46 51 55
44 44 44 44 43 43 42 41 40 40 39 39 39 39 39 39 41 42 42 40 40 42 43 43 41 38 37 34 32 32 29 26 25 26 25 24 23 22 23 23 23 24 25 25 26 28 30 34 39 43 47 51 55 59
40 42 42 43 43 42 41 40 40 39 40 40 41 42 42 42 42 42 41 40 40 40 38 36 33 32 32 31 31 30 27 24 24 25 23 22 22 22 21 22 23 24 25 26 28 31 34 38 43 47 51 56 60 63
37 38 40 39 38 38 38 39 39 40 41 41 41 41 40 40 40 38 36 34 33 33 32 31 32 32 31 30 29 27 24 23 25 24 23 24 24 23 22 21 23 25 25 27 30 34 37 42 47 51 56 60 63 66
29 29 29 28 28 30 33 35 35 35 35 35 36 35 34 32 29 27 25 25 28 30 30 29 29 28 27 27 25 24 23 23 23 22 22 23 24 23 23 23 24 25 26 30 34 38 42 47 52 56 60 62 65 69
22 26 28 27 28 28 27 26 26 28 29 26 24 24 24 22 21 22 24 29 30 27 26 26 25 24 23 23 21 20 20 21 20 20 22 23 23 23 22 22 23 26 29 33 38 42 46 50 55 59 61 64 68 71
16 17 16 18 18 18 18 19 19 20 19 21 22 22 21 23 26 28 27 23 21 21 21 20 19 20 19 18 18 19 19 19 19 19 20 21 22 21 20 22 25 28 32 37 41 45 49 53 57 60 63 68 71 73
16 18 19 21 23 22 23 23 23 23 23 22 21 22 24 25 25 21 19 18 17 16 15 15 16 16 16 17 18 18 18 17 18 18 19 19 19 20 22 24 27 31 35 39 43 48 51 55 59 63 66 70 72 72
12 13 14 15 17 18 20 22 23 23 22 21 20 20 19 17 14 16 17 15 14 14 15 15 16 16 16 15 14 14 15 16 15 16 18 18 19 21 24 27 31 34 38 43 46 51 55 58 62 65 68 70 70 69
13 14 14 15 15 15 15 15 14 14 15 16 17 16 15 16 17 17 16 15 14 14 15 15 15 14 14 14 13 14 15 16 17 17 18 19 21 24 27 31 34 38 42 46 51 55 58 61 65 67 68 68 67 65
13 14 15 15 15 15 15 15 16 16 17 16 13 13 15 16 17 18 17 17 16 16 16 15 14 14 15 15 15 15 15 15 16 17 19 21 24 27 31 35 39 43 47 51 54 58 61 63 65 66 66 64 63 60

GFSWCAN_250_spd_123.txt.gz
Wind_Speed
35 36 38 35 31 31 35 36 35 35 35 34 37 38 39 38 40 41 43 45 45 48 53 53 51 47 47 45 44 44 43 40 39 37 35 33 31 29 37 39 39 44 52 56 59 62 64 62 59 56 48 44 40 41
35 34 30 29 31 34 35 31 32 32 35 38 40 41 40 42 44 44 46 49 52 53 51 50 48 49 48 46 44 44 41 37 34 35 34 29 29 37 37 36 41 51 56 58 61 65 64 61 59 52 48 44 41 42
34 31 32 33 34 32 30 28 31 37 38 38 37 38 40 44 46 49 54 55 52 53 55 52 51 48 45 42 36 34 31 35 36 33 28 31 36 36 34 41 52 55 55 58 62 64 62 59 51 47 47 44 43 43
34 36 38 37 35 32 26 24 40 48 47 47 45 43 46 51 54 57 57 58 57 55 52 50 45 41 37 35 33 33 34 32 27 26 31 35 36 32 43 49 51 55 58 62 64 63 59 53 46 45 44 43 43 44
40 41 40 40 35 32 31 34 36 40 44 46 45 46 49 51 51 53 55 56 55 53 49 45 41 41 38 37 36 31 27 26 28 32 35 33 32 42 45 50 54 57 59 63 61 57 54 48 43 40 40 41 43 44
46 43 43 41 36 37 38 40 42 43 43 46 49 50 47 45 43 44 44 47 50 50 45 42 42 39 38 35 32 31 29 30 32 34 30 32 39 43 50 53 57 59 60 50 50 52 51 44 37 35 36 38 41 45
46 47 46 43 45 46 52 51 52 52 51 49 46 44 42 41 42 45 48 48 46 46 42 38 36 35 34 31 30 29 30 31 31 28 29 35 41 46 49 54 58 60 56 46 44 47 41 35 31 32 34 36 39 44
50 52 53 53 53 54 53 54 53 51 50 48 47 44 39 38 38 39 45 48 45 41 36 34 33 32 31 29 29 28 28 29 27 27 33 38 43 47 53 56 60 56 52 45 40 37 32 29 28 28 31 35 38 42
54 54 56 53 51 53 51 51 51 49 49 48 44 40 38 39 39 42 44 42 41 38 34 35 34 31 27 27 28 28 27 26 27 31 37 41 47 51 54 59 58 53 47 43 35 31 28 27 26 27 28 32 36 40
55 56 54 53 50 55 56 55 52 50 48 45 40 36 39 41 40 39 37 37 37 37 36 32 32 28 25 24 25 26 26 29 33 37 41 46 50 52 58 60 54 49 46 39 30 27 25 24 25 25 27 30 35 38
55 49 51 46 46 52 52 52 46 48 46 42 40 37 36 35 33 33 33 34 32 29 28 27 27 28 27 26 26 27 29 32 36 41 45 48 51 56 60 56 51 48 43 34 26 24 22 22 23 24 26 29 31 34
52 49 48 44 45 45 43 47 47 44 42 41 40 36 35 31 30 33 33 35 37 32 29 29 31 30 29 29 30 30 32 36 41 43 47 49 54 57 55 52 48 44 37 28 22 21 21 21 22 23 24 27 28 30
53 49 47 43 39 41 48 43 39 41 38 37 34 32 29 23 23 28 33 35 35 34 33 32 32 33 33 33 32 33 36 39 43 46 48 53 57 55 50 47 43 37 31 23 20 19 19 19 20 21 22 24 25 27
49 51 48 46 40 39 38 38 42 39 37 35 34 29 24 24 24 28 31 33 33 33 35 36 35 35 33 33 33 35 38 42 43 46 52 56 54 49 46 43 37 31 26 23 19 17 18 18 17 18 19 21 22 23
54 51 49 44 40 39 37 37 37 36 33 31 30 23 23 27 23 21 23 27 31 31 30 31 32 33 32 33 35 36 40 42 46 52 56 54 50 45 42 38 32 26 24 22 20 18 17 17 16 16 17 18 19 20
52 53 48 48 45 41 36 37 35 30 28 26 26 26 24 27 26 24 24 28 30 30 32 33 35 36 37 37 37 39 42 45 50 54 54 51 46 41 39 34 27 24 23 22 20 19 19 19 17 17 17 17 18 19
51 51 47 43 41 42 42 39 37 32 33 32 31 28 28 26 24 27 30 29 30 33 33 32 36 39 39 38 39 42 45 49 52 53 50 46 42 41 36 29 24 23 22 21 20 21 21 19 17 18 19 19 17 17
53 49 47 42 41 38 36 37 39 41 41 37 32 30 30 30 28 29 31 32 34 36 38 39 38 37 38 41 42 43 48 51 52 49 44 41 41 39 32 25 24 22 21 21 21 20 18 19 20 20 18 17 18 20
52 49 46 44 44 43 42 41 36 36 37 35 33 31 33 36 35 35 34 34 37 38 38 36 37 38 40 41 42 45 47 50 49 44 41 40 40 35 29 24 23 21 20 19 18 19 19 20 19 18 18 19 22 25
53 51 47 46 44 38 39 42 40 38 37 38 38 37 37 38 39 40 40 37 36 38 39 39 40 41 42 44 46 48 50 47 45 43 40 40 37 32 26 24 23 22 21 20 20 20 20 20 20 21 22 24 27 31
50 50 49 48 45 40 38 40 39 39 40 40 41 40 41 41 42 42 43 42 42 43 44 44 43 43 45 46 48 48 45 44 44 43 40 37 33 29 25 24 23 23 23 22 21 22 22 22 22 24 26 29 33 37
46 46 44 43 43 42 42 43 43 42 41 41 42 42 41 40 41 41 41 42 43 45 46 44 43 45 46 47 46 44 43 43 44 43 38 35 31 27 26 25 24 24 23 22 22 23 24 24 25 28 30 33 37 41
46 45 44 43 41 39 39 38 38 39 39 40 40 40 40 41 42 41 41 42 43 45 45 45 45 45 45 45 44 43 44 44 44 41 36 32 30 27 26 25 24 25 24 23 23 23 25 27 29 31 35 38 42 46
47 46 44 43 42 41 41 41 40 39 39 39 40 41 40 41 42 43 43 43 44 44 45 45 45 44 45 45 45 44 44 42 41 37 32 30 29 26 26 25 24 25 24 23 24 25 27 29 31 34 38 41 45 49
47 47 46 45 45 43 43 43 42 42 42 43 43 43 43 43 43 42 42 43 44 46 46 46 45 44 44 44 45 44 41 38 36 32 29 29 27 25 26 25 25 25 25 25 26 27 29 31 33 37 41 45 49 53
43 42 43 43 43 44 44 44 44 44 45 44 44 43 43 43 43 44 45 45 44 44 44 45 45 44 44 42 41 39 37 34 32 30 28 27 26 25 26 27 26 25 26 26 26 28 30 32 37 40 44 48 52 56
37 37 38 38 40 41 41 42 42 43 42 42 42 42 42 43 43 43 42 42 43 43 44 43 41 40 38 37 35 33 32 30 28 25 25 25 25 26 26 26 25 26 26 27 27 29 31 35 39 43 47 51 55 59
30 31 33 35 37 37 38 38 38 38 38 38 38 39 39 39 40 40 40 39 39 39 40 38 36 35 33 31 30 28 26 24 23 23 23 23 24 25 26 25 25 25 26 27 28 31 34 38 41 46 50 54 59 63
28 29 28 30 31 32 34 34 35 35 35 35 35 35 35 34 35 34 35 36 35 36 34 32 31 29 28 25 24 22 21 21 20 21 22 23 23 23 23 24 24 26 27 28 30 33 37 40 45 49 53 58 62 65
27 27 28 28 29 29 30 31 31 32 32 32 32 31 32 33 32 32 32 30 30 29 28 27 26 24 23 22 21 19 19 19 20 20 20 21 22 22 23 24 24 25 26 29 32 36 40 44 48 53 58 61 64 67
20 19 21 22 23 24 25 26 26 28 28 28 28 29 30 30 27 25 25 25 25 25 25 24 24 23 21 19 17 17 18 17 18 19 20 21 21 22 22 22 23 25 29 32 36 40 44 49 53 57 60 63 66 68
19 20 20 20 21 21 22 22 21 21 22 24 25 25 24 24 22 22 23 22 22 23 23 22 21 18 16 16 16 16 16 16 18 19 19 19 19 20 21 23 26 29 33 37 40 45 49 53 56 59 63 65 66 66
15 16 17 17 18 18 19 19 20 20 20 20 18 16 15 15 17 19 21 21 20 20 20 18 16 15 15 14 15 16 16 16 16 17 18 18 20 21 23 27 30 34 38 42 46 49 53 56 59 61 63 64 64 63